[[{"header":{"parameterUnit":"m.s-1","parameterCategory":1,"la1":31.0,"la2":29.5877,"lo1":-88.7671,"lo2":-86.6584,"dy":0.0162,"dx":0.0185,"nx":115,"ny":88,"refTime":"2024-03-15T00:00:00:Z","depth":0,"parameterNumber":2,"parameterNumberName":"U-component_of_WINDS"},"data":[0.0,0.0,0.0,0.0,0.0,0.0,0.0,0.0,0.0,0.0,0.0,0.0,0.0,0.0,0.0,0.0,0.0,0.0,0.0,0.0,0.0,0.0,0.0,0.0,0.0,0.0,0.0,0.0,0.0,0.0,0.0,0.0,0.0,0.0,0.0,0.0,0.0,0.0,0.0,0.0,0.0,0.0,0.0,0.0,0.0,0.0,0.0,0.0,0.0,0.0,0.0,0.0,0.0,0.0,0.0,0.0,0.0,0.0,0.0,0.0,0.0,0.0,0.0,0.0,0.0,0.0,0.0,0.0,0.0,0.0,0.0,0.0,0.0,0.0,0.0,0.0,0.0,0.0,0.0,0.0,0.0,0.0,0.0,0.0,0.0,0.0,0.0,0.0,0.0,0.0,0.0,0.0,0.0,0.0,0.0,0.0,0.0,0.0,0.0,0.0,0.0,0.0,0.0,0.0,0.0,0.0,0.0,0.0,0.0,0.0,0.0,0.0,0.0,0.0,0.0,0.0,0.0,0.0,0.0,0.0,0.0,0.0,0.0,0.0,0.0,0.0,0.0,0.0,0.0,0.0,0.0,0.0,0.0,0.0,0.0,0.0,0.0,0.0,0.0,0.0,0.0,0.0,0.0,0.0,0.0,0.0,0.0,0.0,0.0,0.0,0.0,0.0,0.0,0.0,0.0,0.0,0.0,0.0,0.0,0.0,0.0,0.0,0.0,0.0,0.0,0.0,0.0,0.0,0.0,0.0,0.0,0.0,0.0,0.0,0.0,0.0,0.0,0.0,0.0,0.0,0.0,0.0,0.0,0.0,0.0,0.0,0.0,0.0,0.0,0.0,0.0,0.0,0.0,0.0,0.0,0.0,0.0,0.0,0.0,0.0,0.0,0.0,0.0,0.0,0.0,0.0,0.0,0.0,0.0,0.0,0.0,0.0,0.0,0.0,0.0,0.0,0.0,0.0,0.0,0.0,0.0,0.0,0.0,0.0,0.0,0.0,0.0,0.0,0.0,0.0,0.0,0.0,0.0,0.0,0.0,0.0,0.0,0.0,0.0,0.0,0.0,0.0,0.0,0.0,0.0,0.0,0.0,0.0,0.0,0.0,0.0,0.0,0.0,0.0,0.0,0.0,0.0,0.0,0.0,0.0,0.0,0.0,0.0,0.0,0.0,0.0,0.0,0.0,0.0,0.0,0.0,0.0,0.0,0.0,0.0,0.0,0.0,0.0,0.0,0.0,0.0,0.0,0.0,0.0,0.0,0.0,0.0,0.0,0.0,0.0,0.0,0.0,0.0,0.0,0.0,0.0,0.0,0.0,0.0,0.0,0.0,0.0,0.0,0.0,0.0,0.0,0.0,0.0,0.0,0.0,0.0,0.0,0.0,0.0,0.0,0.0,0.0,0.0,0.0,0.0,0.0,0.0,0.0,0.0,0.0,0.0,0.0,0.0,0.0,0.0,0.0,0.0,0.0,0.0,0.0,0.0,0.0,0.0,0.0,0.0,0.0,0.0,0.0,0.0,0.0,0.0,0.0,0.0,0.0,0.0,0.0,0.0,0.0,0.0,0.0,0.0,0.0,0.0,0.0,0.0,0.0,0.0,0.0,0.0,0.0,0.0,0.0,0.0,0.0,0.0,0.0,0.0,0.0,0.0,0.0,0.0,0.0,0.0,0.0,0.0,0.0,0.0,0.0,0.0,0.0,0.0,0.0,0.0,0.0,0.0,0.0,0.0,0.0,0.0,0.0,0.0,0.0,0.0,0.0,0.0,0.0,0.0,0.0,0.0,0.0,0.0,0.0,0.0,0.0,0.0,0.0,0.0,0.0,0.0,0.0,0.0,0.0,0.0,0.0,0.0,0.0,0.0,0.0,0.0,0.0,0.0,0.0,0.0,0.0,0.0,0.0,0.0,0.0,0.0,0.0,0.0,0.0,0.0,0.0,0.0,0.0,0.0,0.0,0.0,0.0,0.0,0.0,0.0,0.0,0.0,0.0,0.0,0.0,0.0,0.0,0.0,0.0,0.0,0.0,0.0,0.0,0.0,0.0,0.0,0.0,0.0,0.0,0.0,0.0,0.0,0.0,0.0,0.0,0.0,0.0,0.0,0.0,0.0,0.0,0.0,0.0,0.0,0.0,0.0,0.0,0.0,0.0,0.0,0.0,0.0,0.0,0.0,0.0,0.0,0.0,0.0,0.0,0.0,0.0,0.0,0.0,0.0,0.0,0.0,0.0,0.0,0.0,0.0,0.0,0.0,0.0,0.0,0.0,0.0,0.0,0.0,0.0,0.0,0.0,0.0,0.0,0.0,0.0,0.0,0.0,0.0,0.0,0.0,0.0,0.0,0.0,0.0,0.0,0.0,0.0,0.0,0.0,0.0,0.0,0.0,0.0,0.0,0.0,0.0,0.0,0.0,0.0,0.0,0.0,0.0,0.0,0.0,0.0,0.0,0.0,0.0,0.0,0.0,0.0,0.0,0.0,0.0,0.0,0.0,0.0,0.0,0.0,0.0,0.0,0.0,0.0,0.0,0.0,0.0,0.0,0.0,0.0,0.0,0.0,0.0,0.0,0.0,0.0,0.0,0.0,0.0,0.0,0.0,0.0,0.0,0.0,0.0,0.0,0.0,0.0,0.0,0.0,0.0,0.0,0.0,0.0,0.0,0.0,0.0,0.0,0.0,0.0,0.0,0.0,0.0,0.0,0.0,0.0,0.0,0.0,0.0,0.0,0.0,0.0,0.0,0.0,0.0,0.0,0.0,0.0,0.0,0.0,0.0,0.0,0.0,0.0,0.0,0.0,0.0,0.0,0.0,0.0,0.0,0.0,0.0,0.0,0.0,0.0,0.0,0.0,0.0,0.0,0.0,0.0,0.0,0.0,0.0,0.0,0.0,0.0,0.0,0.0,0.0,0.0,0.0,0.0,0.0,0.0,0.0,0.0,0.0,0.0,0.0,0.0,0.0,0.0,0.0,0.0,0.0,0.0,0.0,0.0,0.0,0.0,0.0,0.0,0.0,0.0,0.0,0.0,0.0,0.0,0.0,0.0,0.0,0.0,0.0,0.0,0.0,0.0,0.0,0.0,0.0,0.0,0.0,0.0,0.0,0.0,0.0,0.0,0.0,0.0,0.0,0.0,0.0,0.0,0.0,0.0,0.0,0.0,0.0,0.0,0.0,0.0,0.0,0.0,0.0,0.0,0.0,0.0,0.0,0.0,0.0,0.0,0.0,0.0,0.0,0.0,0.0,0.0,0.0,0.0,0.0,0.0,0.0,0.0,0.0,0.0,0.0,0.0,0.0,0.0,0.0,0.0,0.0,0.0,0.0,0.0,0.0,0.0,0.0,0.0,0.0,0.0,0.0,0.0,0.0,0.0,0.0,0.0,0.0,0.0,0.0,0.0,0.0,0.0,0.0,0.0,0.0,0.0,0.0,0.0,0.0,0.0,0.0,0.0,0.0,0.0,0.0,0.0,0.0,0.0,0.0,0.0,0.0,0.0,0.0,0.0,0.0,0.0,0.0,0.0,0.0,0.0,0.0,0.0,0.0,0.0,0.0,0.0,0.0,0.0,0.0,0.0,0.0,0.0,0.0,0.0,0.0,0.0,0.0,0.0,0.0,0.0,0.0,0.0,0.0,0.0,0.0,0.0,0.0,0.0,0.0,0.0,0.0,0.0,0.0,0.0,0.0,0.0,0.0,0.0,0.0,0.0,0.0,0.0,0.0,0.0,0.0,0.0,0.0,0.0,0.0,0.0,0.0,0.0,0.0,0.0,0.0,0.0,0.0,0.0,0.0,0.0,0.0,0.0,0.0,0.0,0.0,0.0,0.0,0.0,0.0,0.0,0.0,0.0,0.0,0.0,0.0,0.0,0.0,0.0,0.0,0.0,0.0,0.0,0.0,0.0,0.0,0.0,0.0,0.0,0.0,0.0,0.0,0.0,0.0,0.0,0.0,0.0,0.0,0.0,0.0,0.0,0.0,0.0,0.0,0.0,0.0,0.0,0.0,0.0,0.0,0.0,0.0,0.0,0.0,0.0,0.0,0.0,0.0,0.0,0.0,0.0,0.0,0.0,0.0,0.0,0.0,0.0,0.0,0.0,0.0,0.0,0.0,0.0,0.0,0.0,0.0,0.0,0.0,0.0,0.0,0.0,0.0,0.0,0.0,0.0,0.0,0.0,0.0,0.0,0.0,0.0,0.0,0.0,0.0,0.0,0.0,0.0,0.0,0.0,0.0,0.0,0.0,0.0,0.0,0.0,0.0,0.0,0.0,0.8062,0.0,0.0,0.0,0.0,0.0,0.0,0.0,0.0,0.0,0.0,0.0,0.0,0.0,0.0,0.0,0.0,0.0,0.0,0.0,0.0,0.0,0.0,0.0,0.0,0.0,0.0,0.0,0.0,0.0,0.0,0.0,0.0,0.0,0.0,0.0,0.0,0.0,0.0,0.0,0.0,0.0,0.0,0.0,0.0,0.0,0.0,0.0,0.0,0.0,0.0,0.0,0.0,0.0,0.0,0.0,0.0,0.0,0.0,0.0,0.0,0.0,0.0,0.0,0.0,0.0,0.0,0.0,0.0,0.0,0.0,0.0,0.0,0.0,0.0,0.0,0.0,0.0,0.0,0.0,0.0,0.0,0.0,0.0,0.0,0.0,0.0,0.0,0.0,0.0,0.0,0.0,0.0,0.0,0.0,0.0,0.0,0.0,0.0,0.0,0.0,0.0,0.0,0.0,0.0,0.0,0.0,0.0,0.0,0.0,0.0,0.8184,0.8404,0.8336,0.8336,0.846,0.0,0.0,0.0,0.0,0.0,0.0,0.0,0.0,0.0,0.0,0.0,0.0,0.0,0.0,0.0,0.0,0.0,0.0,0.0,0.0,0.0,0.0,0.0,0.0,0.0,0.0,0.0,0.0,0.0,0.0,0.0,0.0,0.0,0.0,0.0,0.0,0.0,0.0,0.0,0.0,0.0,0.0,0.0,0.0,0.0,0.0,0.0,0.0,0.0,0.0,0.0,0.0,0.0,0.0,0.0,0.0,0.0,0.0,0.0,0.0,0.0,0.0,0.0,0.0,0.0,0.0,0.0,0.0,0.0,0.0,0.0,0.0,0.0,0.0,0.0,0.0,0.0,0.0,0.0,0.0,0.0,0.0,0.0,0.0,0.0,0.0,0.0,0.0,0.0,0.0,0.0,0.0,0.0,0.0,0.0,0.0,0.0,0.0,0.0,0.0,0.0,0.0,0.0,0.0,0.0,0.0,0.0,0.0,0.0,0.0,0.0,0.0,0.8728,0.8767,0.88,0.0,0.0,0.0,0.0,0.0,0.0,0.0,0.0,0.0,0.0,0.0,0.0,0.0,0.0,0.0,0.0,0.0,0.0,0.0,0.0,0.0,0.0,0.0,0.0,0.0,0.0,0.0,0.0,0.0,0.0,0.0,0.0,0.0,0.0,0.0,0.0,0.0,0.0,0.0,0.0,0.0,0.0,0.0,0.0,0.0,0.0,0.0,0.0,0.0,0.0,0.0,0.0,0.0,0.0,0.0,0.0,0.0,0.0,0.0,0.0,0.0,0.0,0.0,0.0,0.0,0.0,0.0,0.0,0.0,0.0,0.0,0.0,0.0,0.0,0.0,0.0,0.0,0.0,0.0,0.0,0.0,0.0,0.0,0.0,0.0,0.0,0.0,0.0,0.0,0.0,0.0,0.0,0.0,0.0,0.0,0.0,0.0,0.0,0.0,0.0,0.0,0.0,0.0,0.0,0.0,0.0,0.0,0.0,0.0,0.0,0.891,0.9232,0.9178,0.0,0.9151,0.0,0.0,0.0,0.0,0.0,0.0,0.0,0.0,0.0,0.0,0.0,0.0,0.0,0.0,0.0,0.0,0.0,0.0,0.0,0.0,0.0,0.0,0.0,0.0,0.0,0.0,0.0,0.0,0.0,0.0,0.0,0.0,0.0,0.0,0.0,0.0,0.0,0.0,0.0,0.0,0.0,0.0,0.0,0.0,0.0,0.0,0.0,0.0,0.0,0.0,0.0,0.0,0.0,0.0,0.0,0.0,0.0,0.0,0.0,0.0,0.0,0.0,0.0,0.0,0.0,0.0,0.0,0.0,0.0,0.0,0.0,0.0,0.0,0.0,0.0,0.0,0.0,0.0,0.0,0.0,0.0,0.0,0.0,0.0,0.0,0.0,0.0,0.0,0.0,0.0,0.0,0.0,0.0,0.0,0.0,0.0,0.0,0.0,0.0,0.0,0.0,0.0,0.0,0.0,0.0,0.0,0.0,0.0,0.0,0.0,0.9316,0.9526,0.954,0.954,0.0,0.0,0.0,0.0,0.0,0.0,0.0,0.0,0.0,0.0,0.0,0.0,0.0,0.0,0.0,0.0,0.0,0.0,0.0,0.0,0.0,0.0,0.0,0.0,0.0,0.0,0.0,0.0,0.0,0.0,0.0,0.0,0.0,0.0,0.0,0.0,0.0,0.0,0.0,0.0,0.0,0.0,0.0,0.0,0.0,0.0,0.0,0.0,0.0,0.0,0.0,0.0,0.0,0.0,0.0,0.0,0.0,0.0,0.0,0.0,0.0,0.0,0.0,0.0,0.0,0.0,0.0,0.0,0.0,0.0,0.0,0.0,0.0,0.0,0.0,0.0,0.0,0.0,0.0,0.0,0.0,0.0,0.0,0.0,0.0,0.0,0.0,0.0,0.0,0.0,0.0,0.0,0.0,0.0,0.0,0.0,0.0,0.0,0.0,0.0,0.0,0.0,0.0,0.0,0.0,0.0,0.0,0.0,0.0,0.0,0.9581,0.9712,0.9892,0.9944,0.9944,0.9866,0.0,0.0,0.0,0.0,0.0,0.0,0.0,0.0,0.0,0.0,0.0,0.0,0.0,0.0,0.0,0.0,0.0,0.0,0.0,0.0,0.0,0.0,0.0,0.0,0.0,0.0,0.0,0.0,0.0,0.0,0.0,0.0,0.0,0.0,0.0,0.0,0.0,0.0,0.0,0.0,0.0,0.0,0.0,0.0,0.0,0.0,0.0,0.0,0.0,0.0,0.0,0.0,0.0,0.0,0.0,0.0,0.0,0.0,0.0,0.0,0.0,0.0,0.0,0.0,0.0,0.0,0.0,0.0,0.0,0.0,0.0,0.0,0.0,0.0,0.0,0.0,0.0,0.0,0.0,0.0,0.0,0.0,0.0,0.0,0.0,0.0,0.0,0.0,0.0,0.0,0.0,0.0,0.0,0.0,0.0,0.0,0.0,0.0,0.0,0.0,0.0,0.0,0.0,0.0,0.0,0.0,0.0,0.0,0.9788,0.9944,1.011,1.0363,1.0374,1.0349,0.0,0.0,0.0,0.0,0.0,0.0,0.0,0.0,0.0,0.0,0.0,0.0,0.0,0.0,0.0,0.0,0.0,0.0,0.0,0.0,0.0,0.0,0.0,0.0,0.0,0.0,0.0,0.0,0.0,0.0,0.0,0.0,0.0,0.0,0.0,0.0,0.0,0.0,0.0,0.0,0.0,0.0,0.0,0.0,0.0,0.0,0.0,0.0,0.0,0.0,0.0,0.0,0.0,0.0,0.0,0.0,0.0,0.0,0.0,0.0,0.0,0.0,0.0,0.0,0.0,0.0,0.0,0.0,0.0,0.0,0.0,0.0,0.0,0.0,0.0,0.0,0.0,0.0,0.0,0.0,0.0,0.0,0.0,0.0,0.0,0.0,0.0,0.0,0.0,0.0,0.0,0.0,0.0,0.0,0.0,0.0,0.0,0.0,0.0,0.0,0.0,0.0,0.0,0.0,0.0,0.0,0.0,0.0,0.0,1.0622,1.1308,1.1562,1.1366,1.1353,1.115,0.0,0.0,0.0,0.0,0.0,0.0,0.0,0.0,0.0,0.0,0.0,0.0,0.0,0.0,0.0,0.0,0.0,0.0,0.0,0.0,0.0,0.0,0.0,0.0,0.0,0.0,0.0,0.0,0.0,0.0,0.0,0.0,0.0,0.0,0.0,0.0,0.0,0.0,0.0,0.0,0.0,0.0,0.0,0.0,0.0,0.0,0.0,0.0,0.0,0.0,0.0,0.0,0.0,0.0,0.0,0.0,0.0,0.0,0.0,0.0,0.0,0.0,0.0,0.0,0.0,0.0,0.0,0.0,0.0,0.0,0.0,0.0,0.0,0.0,0.0,0.0,0.0,0.0,0.0,0.0,0.0,0.0,0.0,0.0,0.0,0.0,0.0,0.0,0.0,0.0,0.0,0.0,0.0,0.0,0.0,0.0,0.0,0.0,0.0,0.0,0.0,0.0,0.0,0.0,0.0,0.0,0.0,0.0,0.0,1.1724,0.0,1.277,1.2479,1.2439,1.2091,0.0,0.0,0.0,0.0,0.0,0.0,0.0,0.0,0.0,0.0,0.0,0.0,0.0,0.0,0.0,0.0,0.0,0.0,0.0,0.0,0.0,0.0,0.0,0.0,0.0,0.0,0.0,0.0,0.0,0.0,0.0,0.0,0.0,0.0,0.0,0.0,0.0,0.0,0.0,0.0,0.0,0.0,0.0,0.0,0.0,0.0,0.0,0.0,0.0,0.0,0.0,0.0,0.0,0.0,0.0,0.0,0.0,0.0,0.0,0.0,0.0,0.0,0.0,0.0,0.0,0.0,0.0,0.0,0.0,0.0,0.0,0.0,0.0,0.0,0.0,0.0,0.0,0.0,0.0,0.0,0.0,0.0,0.0,0.0,0.0,0.0,0.0,0.0,0.0,0.0,0.0,0.0,0.0,0.0,0.0,0.0,0.0,0.0,0.0,0.0,0.0,0.0,0.0,0.0,0.0,0.0,0.0,0.0,1.1858,1.3059,1.3397,1.3609,1.3682,1.3565,1.318,0.0,0.0,0.0,0.0,0.0,0.0,0.0,0.0,0.0,0.0,0.0,0.0,0.0,0.0,0.0,0.0,0.0,0.0,0.0,0.0,0.0,0.0,0.0,0.0,0.0,0.0,0.0,0.0,0.0,0.0,0.0,0.0,0.0,0.0,0.0,0.0,0.0,0.0,0.0,0.0,0.0,0.0,0.0,0.0,0.0,0.0,0.0,0.0,0.0,0.0,0.0,0.0,0.0,0.0,0.0,0.0,0.0,0.0,0.0,0.0,0.0,0.0,0.0,0.0,0.0,0.0,0.0,0.0,0.0,0.0,0.0,0.0,0.0,0.0,0.0,0.0,0.0,0.0,0.0,0.0,0.0,0.0,0.0,0.0,0.0,0.0,0.0,0.0,0.0,0.0,0.0,0.0,0.0,0.0,0.0,0.0,0.0,0.0,0.0,0.0,0.0,0.0,0.0,0.0,0.0,0.0,0.0,0.0,0.0,1.4143,1.4763,1.4944,1.4615,1.4595,1.4267,0.0,0.0,0.0,0.0,0.0,0.0,0.0,0.0,0.0,0.0,0.0,0.0,0.0,0.0,0.0,0.0,0.0,0.0,0.0,0.0,0.0,0.0,0.0,0.0,0.0,0.0,0.0,0.0,0.0,0.0,0.0,0.0,0.0,0.0,0.0,0.0,0.0,0.0,0.0,0.0,0.0,0.0,0.0,0.0,0.0,0.0,0.0,0.0,0.0,0.0,0.0,0.0,0.0,0.0,0.0,0.0,0.0,0.0,0.0,0.0,0.0,0.0,0.0,0.0,0.0,0.0,0.0,0.0,0.0,0.0,0.0,0.0,0.0,0.0,0.0,0.0,0.0,0.0,0.0,0.0,0.0,0.0,0.0,0.0,0.0,0.0,0.0,0.0,0.0,0.0,0.0,0.0,0.0,0.0,0.0,0.0,0.0,0.0,0.0,0.0,0.0,0.0,0.0,0.0,0.0,0.0,0.0,0.0,0.0,1.6161,1.6699,1.6856,1.6557,1.6584,1.5941,1.4581,0.0,0.0,0.0,0.0,0.0,0.0,0.0,0.0,0.0,0.0,0.0,0.0,0.0,0.0,0.0,0.0,0.0,0.0,0.0,0.0,0.0,0.0,0.0,0.0,0.0,0.0,0.0,0.0,0.0,0.0,0.0,0.0,0.0,0.0,0.0,0.0,0.0,0.0,0.0,0.0,0.0,0.0,0.0,0.0,0.0,0.0,0.0,0.0,0.0,0.0,0.0,0.0,0.0,0.0,0.0,0.0,0.0,0.0,0.0,0.0,0.0,0.0,0.0,0.0,0.0,0.0,0.0,0.0,0.0,0.0,0.0,0.0,0.0,0.0,0.0,0.0,0.0,0.0,0.0,0.0,0.0,0.0,0.0,0.0,0.0,0.0,0.0,0.0,0.0,0.0,0.0,0.0,0.0,0.0,0.0,0.0,0.0,0.0,0.0,0.0,0.0,0.0,0.0,0.0,0.0,0.0,0.0,0.0,1.8851,1.9148,1.9305,1.9293,1.9155,1.8022,0.0,0.0,0.0,0.0,0.0,0.0,0.0,0.0,0.0,0.0,0.0,0.0,0.0,0.0,0.0,0.0,0.0,0.0,0.0,0.0,0.0,0.0,0.0,0.0,0.0,0.0,0.0,0.0,0.0,0.0,0.0,0.0,0.0,0.0,0.0,0.0,0.0,0.0,0.0,0.0,0.0,0.0,0.0,0.0,0.0,0.0,0.0,0.0,0.0,0.0,0.0,0.0,0.0,0.0,0.0,0.0,0.0,0.0,0.0,0.0,0.0,0.0,0.0,0.0,0.0,0.0,0.0,0.0,0.0,0.0,0.0,0.0,0.0,0.0,0.0,0.0,0.0,0.0,0.0,0.0,0.0,0.0,0.0,0.0,0.0,0.0,0.0,0.0,0.0,0.0,0.0,0.0,0.0,0.0,0.0,0.0,0.0,0.0,0.0,0.0,0.0,0.0,0.0,0.0,0.0,0.0,0.0,0.0,0.0,2.1006,2.2214,2.2217,2.0953,1.9991,1.9099,0.0,0.0,0.0,0.0,0.0,0.0,0.0,0.0,0.0,0.0,0.0,0.0,0.0,0.0,0.0,0.0,0.0,0.0,0.0,0.0,0.0,0.0,0.0,0.0,0.0,0.0,0.0,0.0,0.0,0.0,0.0,0.0,0.0,0.0,0.0,0.0,0.0,0.0,0.0,0.0,0.0,0.0,0.0,0.0,0.0,0.0,0.0,0.0,0.0,0.0,0.0,0.0,0.0,0.0,0.0,0.0,0.0,0.0,0.0,0.0,0.0,0.0,0.0,0.0,0.0,0.0,0.0,0.0,0.0,0.0,0.0,0.0,0.0,0.0,0.0,0.0,0.0,0.0,0.0,0.0,0.0,0.0,0.0,0.0,0.0,0.0,0.0,0.0,0.0,0.0,0.0,0.0,0.0,0.0,0.0,0.0,0.0,0.0,0.0,0.0,0.0,0.0,0.0,0.0,0.0,0.0,0.0,0.0,2.0564,2.2255,2.424,2.4792,2.3779,2.1786,2.0333,0.0,0.0,0.0,0.0,0.0,0.0,0.0,0.0,0.0,0.0,0.0,0.0,0.0,0.0,0.0,0.0,0.0,0.0,0.0,0.0,0.0,0.0,0.0,0.0,0.0,0.0,0.0,0.0,0.0,0.0,0.0,0.0,0.0,0.0,0.0,0.0,0.0,0.0,0.0,0.0,0.0,0.0,0.0,0.0,0.0,0.0,0.0,0.0,0.0,0.0,0.0,0.0,0.0,0.0,0.0,0.0,0.0,0.0,0.0,0.0,0.0,0.0,0.0,0.0,0.0,0.0,0.0,0.0,0.0,0.0,0.0,0.0,0.0,0.0,0.0,0.0,0.0,0.0,0.0,0.0,0.0,0.0,0.0,0.0,0.0,0.0,0.0,0.0,0.0,0.0,0.0,0.0,0.0,0.0,0.0,0.0,0.0,0.0,0.0,0.0,0.0,0.0,0.0,0.0,0.0,0.0,0.0,0.0,2.1931,2.3005,2.5493,2.6825,2.6756,2.3905,2.1551,0.0,0.0,0.0,0.0,0.0,0.0,0.0,0.0,0.0,0.0,0.0,0.0,0.0,0.0,0.0,0.0,0.0,0.0,0.0,0.0,0.0,0.0,0.0,0.0,0.0,0.0,0.0,0.0,0.0,0.0,0.0,0.0,0.0,0.0,0.0,0.0,0.0,0.0,0.0,0.0,0.0,0.0,0.0,0.0,0.0,0.0,0.0,0.0,0.0,0.0,0.0,0.0,0.0,0.0,0.0,0.0,0.0,0.0,0.0,0.0,0.0,0.0,0.0,0.0,0.0,0.0,0.0,0.0,0.0,0.0,0.0,0.0,0.0,0.0,0.0,0.0,0.0,0.0,0.0,0.0,0.0,0.0,0.0,0.0,0.0,0.0,0.0,0.0,0.0,0.0,0.0,0.0,0.0,0.0,0.0,0.0,0.0,0.0,0.0,0.0,0.0,0.0,0.0,0.0,0.0,0.0,0.0,0.0,2.2438,2.4265,2.5926,2.694,2.7169,2.4081,2.2173,0.0,0.0,0.0,0.0,0.0,0.0,0.0,0.0,0.0,0.0,0.0,0.0,0.0,0.0,0.0,0.0,0.0,0.0,0.0,0.0,0.0,0.0,0.0,0.0,0.0,0.0,0.0,0.0,0.0,0.0,0.0,0.0,0.0,0.0,0.0,0.0,0.0,0.0,0.0,0.0,0.0,0.0,0.0,0.0,0.0,0.0,0.0,0.0,1.8092,0.0,0.0,0.0,0.0,0.0,0.0,0.0,0.0,0.0,0.0,0.0,0.0,0.0,0.0,0.0,0.0,0.0,0.0,0.0,0.0,0.0,0.0,0.0,0.0,0.0,0.0,0.0,0.0,0.0,0.0,0.0,0.0,0.0,0.0,0.0,0.0,0.0,0.0,0.0,0.0,0.0,0.0,0.0,0.0,0.0,0.0,0.0,0.0,0.0,0.0,0.0,0.0,0.0,0.0,0.0,0.0,0.0,0.0,0.0,2.4079,2.6273,2.7467,2.8167,2.8247,2.5558,2.3522,0.0,0.0,0.0,0.0,0.0,0.0,0.0,0.0,0.0,0.0,0.0,0.0,0.0,0.0,0.0,0.0,0.0,0.0,0.0,0.0,0.0,0.0,0.0,0.0,0.0,0.0,0.0,0.0,0.0,0.0,0.0,0.0,0.0,0.0,0.0,0.0,0.0,0.0,0.0,0.0,0.0,0.0,0.0,0.0,0.0,0.0,0.0,0.0,0.0,0.0,0.0,0.0,0.0,0.0,0.0,0.0,0.0,0.0,0.0,0.0,0.0,0.0,0.0,0.0,0.0,0.0,0.0,0.0,0.0,0.0,0.0,0.0,0.0,0.0,0.0,0.0,0.0,0.0,0.0,0.0,0.0,0.0,0.0,0.0,0.0,0.0,0.0,0.0,0.0,0.0,0.0,0.0,0.0,0.0,0.0,0.0,0.0,0.0,0.0,0.0,0.0,0.0,0.0,0.0,0.0,0.0,0.0,2.3675,2.5785,2.8288,2.9111,2.9506,2.9472,2.7371,2.506,2.2702,0.0,0.0,0.0,0.0,0.0,0.0,0.0,0.0,0.0,0.0,0.0,0.0,0.0,0.0,0.0,0.0,0.0,0.0,0.0,0.0,0.0,0.0,0.0,0.0,0.0,0.0,0.0,0.0,0.0,0.0,0.0,0.0,0.0,0.0,0.0,0.0,0.0,0.0,1.5408,1.6598,0.0,0.0,0.0,0.0,0.0,0.0,0.0,0.0,2.0311,0.0,0.0,0.0,0.0,0.0,0.0,0.0,0.0,0.0,0.0,0.0,0.0,0.0,0.0,0.0,0.0,0.0,0.0,0.0,0.0,0.0,0.0,0.0,0.0,0.0,0.0,0.0,0.0,0.0,0.0,0.0,0.0,0.0,0.0,0.0,0.0,0.0,0.0,0.0,0.0,0.0,0.0,0.0,0.0,0.0,0.0,0.0,0.0,0.0,0.0,0.0,0.0,0.0,0.0,0.0,0.0,2.3022,2.4066,2.6119,2.9196,2.9437,2.9506,2.9472,2.7937,2.5975,2.3646,0.0,0.0,0.0,0.0,0.0,0.0,0.0,0.0,0.0,0.0,0.0,0.0,0.0,0.0,0.0,0.0,0.0,0.0,0.0,0.0,0.0,0.0,0.0,0.0,0.0,0.0,0.0,0.0,0.0,0.0,0.0,0.0,0.0,0.0,0.0,0.0,0.0,0.0,0.0,1.7939,1.8087,0.0,0.0,0.0,0.0,0.0,0.0,0.0,0.0,2.0771,0.0,0.0,0.0,0.0,0.0,0.0,0.0,0.0,0.0,0.0,0.0,0.0,0.0,0.0,0.0,0.0,0.0,0.0,0.0,0.0,0.0,0.0,0.0,0.0,0.0,0.0,0.0,0.0,0.0,0.0,0.0,0.0,0.0,0.0,0.0,0.0,0.0,0.0,0.0,0.0,0.0,0.0,0.0,0.0,0.0,0.0,0.0,0.0,0.0,0.0,0.0,0.0,0.0,0.0,0.0,2.4394,2.6177,2.8253,3.0593,3.0679,3.0732,3.0785,2.8951,2.7034,0.0,0.0,0.0,0.0,0.0,0.0,0.0,0.0,0.0,0.0,0.0,0.0,0.0,0.0,0.0,0.0,0.0,0.0,0.0,0.0,0.0,0.0,0.0,0.0,0.0,0.0,0.0,0.0,0.0,0.0,0.0,0.0,0.0,0.0,0.0,0.0,0.0,0.0,0.0,0.0,1.9395,1.9884,2.1837,0.0,0.0,0.0,0.0,0.0,0.0,2.213,2.1837,0.0,0.0,0.0,0.0,0.0,0.0,0.0,0.0,0.0,0.0,0.0,0.0,0.0,0.0,0.0,0.0,0.0,0.0,0.0,0.0,0.0,0.0,0.0,0.0,0.0,0.0,0.0,0.0,0.0,0.0,0.0,0.0,0.0,0.0,0.0,0.0,0.0,0.0,0.0,0.0,0.0,0.0,0.0,0.0,0.0,0.0,0.0,0.0,0.0,0.0,0.0,0.0,0.0,0.0,0.0,2.559,2.8049,3.0123,3.1714,3.18,3.1873,3.2002,2.9606,2.765,0.0,0.0,0.0,0.0,0.0,0.0,0.0,0.0,0.0,0.0,0.0,0.0,0.0,0.0,0.0,0.0,0.0,0.0,0.0,0.0,0.0,0.0,0.0,0.0,0.0,0.0,0.0,0.0,0.0,0.0,0.0,0.0,0.0,0.0,0.0,0.0,0.0,0.0,0.0,0.0,0.0,2.1744,2.4418,2.3506,0.0,0.0,0.0,0.0,2.3165,2.3749,0.0,0.0,0.0,0.0,0.0,0.0,0.0,0.0,0.0,0.0,0.0,0.0,0.0,0.0,0.0,0.0,0.0,0.0,0.0,0.0,0.0,0.0,0.0,0.0,0.0,0.0,0.0,0.0,0.0,0.0,0.0,0.0,0.0,0.0,0.0,0.0,0.0,0.0,0.0,0.0,0.0,0.0,0.0,0.0,0.0,0.0,0.0,0.0,0.0,0.0,0.0,0.0,0.0,0.0,0.0,0.0,2.5671,2.81,3.0177,3.1714,3.18,3.1783,3.1802,2.9004,2.7099,0.0,0.0,0.0,0.0,0.0,0.0,0.0,0.0,0.0,0.0,0.0,0.0,0.0,0.0,0.0,0.0,0.0,0.0,0.0,0.0,0.0,0.0,0.0,0.0,0.0,0.0,0.0,0.0,0.0,0.0,0.0,0.0,0.0,0.0,0.0,0.0,0.0,0.0,0.0,0.0,0.0,2.2771,2.4622,2.4694,2.4581,0.0,0.0,0.0,2.6357,2.7014,0.0,0.0,0.0,0.0,0.0,0.0,0.0,0.0,0.0,0.0,0.0,0.0,0.0,0.0,0.0,0.0,0.0,0.0,0.0,0.0,0.0,0.0,0.0,0.0,0.0,0.0,0.0,0.0,0.0,0.0,0.0,0.0,0.0,0.0,0.0,0.0,0.0,0.0,0.0,0.0,0.0,0.0,0.0,0.0,0.0,0.0,0.0,0.0,0.0,0.0,0.0,0.0,0.0,0.0,0.0,2.4329,2.635,2.9248,3.1091,3.1765,3.1893,3.2001,3.2091,2.9161,2.746,0.0,0.0,0.0,0.0,0.0,0.0,0.0,0.0,0.0,0.0,0.0,0.0,0.0,0.0,0.0,0.0,0.0,0.0,0.0,0.0,0.0,0.0,0.0,0.0,0.0,0.0,0.0,0.0,0.0,0.0,0.0,0.0,0.0,0.0,0.0,0.0,0.0,0.0,0.0,0.0,0.0,0.0,2.6913,2.7066,0.0,0.0,0.0,2.8058,2.7041,0.0,0.0,0.0,0.0,0.0,0.0,0.0,0.0,0.0,0.0,0.0,0.0,0.0,0.0,0.0,0.0,0.0,0.0,0.0,0.0,0.0,0.0,0.0,0.0,0.0,0.0,0.0,0.0,0.0,0.0,0.0,0.0,0.0,0.0,0.0,0.0,0.0,0.0,0.0,0.0,0.0,0.0,0.0,0.0,0.0,0.0,0.0,0.0,0.0,0.0,0.0,0.0,0.0,0.0,0.0,0.0,0.0,2.6826,3.0106,3.1837,3.1856,3.1965,3.2091,3.2231,2.9699,0.0,0.0,0.0,0.0,0.0,0.0,0.0,0.0,0.0,0.0,0.0,0.0,0.0,0.0,0.0,0.0,0.0,0.0,0.0,0.0,0.0,0.0,0.0,0.0,0.0,0.0,0.0,1.5118,0.0,0.0,0.0,0.0,0.0,0.0,0.0,0.0,0.0,0.0,0.0,0.0,0.0,0.0,2.7006,2.8662,2.898,2.9314,0.0,0.0,2.9114,2.7958,2.9668,3.0261,0.0,0.0,0.0,0.0,0.0,0.0,0.0,0.0,0.0,0.0,0.0,0.0,0.0,0.0,0.0,0.0,0.0,0.0,0.0,0.0,0.0,0.0,0.0,0.0,0.0,0.0,0.0,0.0,0.0,0.0,0.0,0.0,0.0,0.0,0.0,0.0,0.0,0.0,0.0,0.0,0.0,0.0,0.0,0.0,0.0,0.0,0.0,0.0,0.0,0.0,0.0,0.0,0.0,0.0,0.0,2.686,3.0106,3.1893,3.209,3.191,3.1948,3.2266,3.0815,2.9324,0.0,0.0,0.0,0.0,0.0,0.0,0.0,0.0,0.0,0.0,0.0,0.0,0.0,0.0,0.0,0.0,0.0,0.0,0.0,0.0,0.0,0.0,0.0,0.0,0.0,0.0,0.0,0.0,0.0,0.0,0.0,0.0,0.0,0.0,0.0,0.0,0.0,0.0,0.0,0.0,0.0,2.7839,2.8865,2.9641,3.0351,0.0,0.0,2.9725,3.019,3.1635,3.2018,2.9934,0.0,0.0,0.0,0.0,0.0,0.0,0.0,0.0,0.0,0.0,0.0,0.0,0.0,0.0,0.0,0.0,0.0,0.0,0.0,0.0,0.0,0.0,0.0,0.0,0.0,0.0,0.0,0.0,0.0,0.0,0.0,0.0,0.0,0.0,0.0,0.0,0.0,0.0,0.0,0.0,0.0,0.0,0.0,0.0,0.0,0.0,0.0,0.0,0.0,0.0,0.0,0.0,0.0,2.6173,2.6909,3.0335,3.2091,3.2108,3.2232,3.237,3.2488,3.1133,2.9651,0.0,0.0,0.0,0.0,0.0,0.0,0.0,0.0,0.0,0.0,0.0,0.0,0.0,0.0,0.0,0.0,0.0,0.0,0.0,0.0,0.0,0.0,0.0,0.0,0.0,0.0,0.0,0.0,2.1843,2.2208,2.1018,0.0,0.0,0.0,0.0,0.0,0.0,0.0,0.0,0.0,0.0,2.8887,3.0235,3.1096,0.0,0.0,3.1315,3.0879,3.0641,3.1517,3.1297,2.8631,2.7851,0.0,0.0,0.0,0.0,0.0,0.0,0.0,0.0,0.0,0.0,0.0,0.0,0.0,0.0,0.0,0.0,0.0,0.0,0.0,0.0,0.0,0.0,0.0,0.0,0.0,0.0,0.0,0.0,0.0,0.0,0.0,0.0,0.0,0.0,0.0,0.0,0.0,0.0,0.0,0.0,0.0,0.0,0.0,0.0,0.0,0.0,0.0,0.0,0.0,0.0,0.0,0.0,2.661,2.7282,3.0508,3.2301,3.2564,3.2424,3.2506,3.2702,3.1738,3.0451,0.0,0.0,0.0,0.0,0.0,0.0,0.0,0.0,0.0,0.0,0.0,0.0,0.0,0.0,0.0,0.0,0.0,0.0,0.0,0.0,0.0,0.0,0.0,0.0,0.0,0.0,0.0,0.0,2.3122,2.3098,2.1167,0.0,0.0,0.0,0.0,0.0,0.0,0.0,0.0,0.0,0.0,2.9831,3.0764,3.1587,3.2019,3.1818,3.1448,3.1052,3.0783,3.1177,3.0704,2.835,0.0,0.0,0.0,0.0,0.0,0.0,0.0,0.0,0.0,0.0,0.0,0.0,0.0,0.0,0.0,0.0,0.0,0.0,0.0,0.0,0.0,0.0,0.0,0.0,0.0,0.0,0.0,0.0,0.0,0.0,0.0,0.0,0.0,0.0,0.0,0.0,0.0,0.0,0.0,0.0,0.0,0.0,0.0,0.0,0.0,0.0,0.0,0.0,0.0,0.0,0.0,0.0,0.0,0.0,2.8185,3.061,3.2403,3.3564,3.2474,3.2266,3.3037,3.2795,3.2059,3.0848,0.0,0.0,0.0,0.0,0.0,0.0,0.0,0.0,0.0,0.0,0.0,0.0,0.0,0.0,0.0,0.0,0.0,0.0,0.0,0.0,0.0,0.0,0.0,0.0,0.0,0.0,2.0107,2.1917,2.2965,0.0,0.0,0.0,0.0,0.0,0.0,0.0,0.0,0.0,0.0,2.827,3.0595,3.0064,3.0628,3.1174,3.1147,3.0405,3.0017,3.0689,3.0815,3.0584,0.0,0.0,0.0,0.0,0.0,0.0,0.0,0.0,0.0,0.0,0.0,0.0,0.0,0.0,0.0,0.0,0.0,0.0,0.0,0.0,0.0,0.0,0.0,0.0,0.0,0.0,0.0,0.0,1.8526,0.0,0.0,0.0,0.0,0.0,0.0,0.0,0.0,0.0,0.0,0.0,2.5793,2.6346,0.0,0.0,0.0,0.0,0.0,0.0,0.0,0.0,0.0,0.0,0.0,0.0,2.7508,2.7809,3.1023,3.2891,3.3223,3.3051,3.3111,3.3415,3.3339,3.2607,3.1146,0.0,0.0,0.0,0.0,0.0,0.0,0.0,0.0,0.0,0.0,0.0,0.0,0.0,0.0,0.0,0.0,0.0,0.0,0.0,0.0,0.0,0.0,0.0,0.0,0.0,2.3478,0.0,0.0,0.0,0.0,0.0,0.0,0.0,0.0,0.0,0.0,0.0,2.7288,2.8005,2.8866,2.974,3.0592,3.0956,3.1274,0.0,0.0,0.0,0.0,0.0,0.0,0.0,0.0,0.0,0.0,0.0,0.0,0.0,0.0,2.6731,2.6078,2.6316,2.6583,2.6475,0.0,0.0,0.0,0.0,0.0,0.0,0.0,0.0,0.0,0.0,0.0,0.0,0.0,0.0,0.0,0.0,2.0908,0.0,0.0,0.0,0.0,0.0,0.0,0.0,0.0,2.6482,2.7799,2.838,2.8972,2.9296,0.0,2.9331,2.7324,0.0,0.0,0.0,0.0,0.0,0.0,0.0,0.0,2.7722,2.8045,3.1293,3.3163,3.3382,3.3394,3.3455,3.3633,3.3671,3.3213,3.2177,3.0149,2.8494,0.0,0.0,0.0,0.0,0.0,0.0,0.0,0.0,0.0,0.0,0.0,0.0,0.0,0.0,0.0,0.0,0.0,0.0,0.0,0.0,0.0,0.0,0.0,2.4992,0.0,0.0,0.0,0.0,0.0,0.0,0.0,0.0,0.0,2.4807,2.709,2.9039,2.9751,2.9911,3.0137,3.0576,0.0,0.0,0.0,0.0,0.0,0.0,0.0,3.0148,2.9764,3.0027,3.0283,3.0354,3.0623,3.0788,3.077,0.0,0.0,2.8544,2.8728,2.9181,2.9052,2.9206,2.9291,2.9228,2.933,2.9524,0.0,0.0,0.0,0.0,0.0,0.0,0.0,0.0,2.5216,2.5199,0.0,2.3426,0.0,0.0,0.0,0.0,0.0,0.0,0.0,0.0,3.1016,3.2423,3.1209,3.1294,3.1476,3.1525,2.9776,2.8955,2.9051,2.9721,0.0,0.0,0.0,0.0,0.0,0.0,2.7971,2.8903,3.1402,3.3187,3.4096,3.3378,3.3178,3.3698,3.3842,3.3895,3.3821,3.2435,3.1647,3.1513,2.7524,0.0,0.0,0.0,0.0,0.0,0.0,0.0,0.0,0.0,0.0,0.0,0.0,0.0,0.0,0.0,0.0,0.0,0.0,0.0,0.0,2.4671,0.0,0.0,0.0,0.0,0.0,0.0,0.0,0.0,0.0,0.0,2.5461,2.7789,2.9674,2.9875,0.0,0.0,0.0,0.0,3.0547,2.9047,2.8775,2.9119,2.988,3.0719,3.1843,3.3458,0.0,0.0,3.534,3.4666,3.4104,3.4178,3.4766,3.4148,3.0083,2.9636,2.9662,2.958,2.9736,2.9536,2.9518,3.0049,3.0185,2.8505,0.0,0.0,0.0,0.0,2.6004,2.6323,2.6829,2.6894,2.6923,2.6859,2.6318,0.0,0.0,0.0,0.0,0.0,0.0,2.8059,2.9248,3.0772,3.1885,3.2604,3.2839,3.2967,3.304,3.3148,3.2963,3.2555,3.3879,3.1835,2.6608,0.0,0.0,0.0,0.0,2.913,3.0008,3.2,3.3298,3.3771,3.366,3.3752,3.4049,3.4099,3.4124,3.4124,3.3679,3.2876,3.1634,3.0396,0.0,0.0,0.0,0.0,0.0,0.0,0.0,0.0,0.0,0.0,0.0,0.0,0.0,0.0,0.0,0.0,0.0,0.0,0.0,2.5319,2.6868,2.7049,0.0,0.0,0.0,0.0,0.0,0.0,0.0,0.0,0.0,2.8828,2.9368,2.9816,0.0,0.0,2.9635,2.9155,3.0305,3.1243,3.131,0.0,0.0,0.0,3.3001,3.3086,3.357,3.4613,3.5377,3.5395,3.5377,3.5514,3.5873,3.6463,3.6333,3.4964,3.4612,3.4599,3.4544,3.4647,3.4741,3.4708,3.4828,3.4918,3.1379,2.9568,2.869,2.8397,2.8504,2.8535,2.8978,2.9651,2.9669,2.9717,2.9651,2.8908,2.8566,2.8531,2.7801,0.0,0.0,0.0,2.9672,3.1266,3.1619,3.227,3.3184,3.3455,3.3605,3.3623,3.4118,3.4193,3.3913,3.444,3.2903,2.9435,0.0,0.0,2.7341,2.8894,2.9953,3.0498,3.2265,3.3309,3.353,3.3834,3.4049,3.4148,3.4197,3.4216,3.4216,3.4216,3.3709,3.2673,3.1972,3.042,0.0,0.0,0.0,0.0,0.0,0.0,0.0,0.0,0.0,0.0,0.0,2.1965,0.0,0.0,0.0,0.0,2.6304,2.7284,2.8142,2.8691,0.0,0.0,0.0,0.0,0.0,0.0,0.0,2.7127,2.8892,3.0436,3.1181,3.1096,3.1115,3.1554,3.1237,3.0876,3.0724,0.0,3.2711,3.2708,3.3067,3.3599,3.4333,3.4709,3.5248,3.6273,3.6875,3.7206,3.7069,3.7429,3.7737,3.7618,3.7886,3.8025,3.7708,3.7731,3.7497,3.6861,3.6795,3.687,3.6814,3.6919,3.6972,3.2884,3.2727,3.0758,3.0147,3.0415,3.0415,3.1355,3.288,3.2898,3.2916,3.2777,3.1217,3.0504,3.0415,2.8895,0.0,0.0,3.0486,3.1408,3.3005,3.3135,3.322,3.322,3.3473,3.3605,3.3605,3.3357,3.3473,3.3897,3.293,3.2464,3.2538,3.2314,3.0866,2.8518,2.9816,3.0647,3.0749,3.2379,3.3382,3.3749,3.4097,3.4303,3.4328,3.4358,3.442,3.4383,3.442,3.4364,3.4253,3.2765,3.1824,3.1518,0.0,0.0,0.0,0.0,0.0,0.0,0.0,0.0,0.0,0.0,0.0,0.0,0.0,0.0,0.0,2.9407,0.0,3.1505,3.018,0.0,0.0,0.0,2.8123,2.8925,2.9182,2.9596,3.0309,0.0,0.0,0.0,0.0,3.3172,3.4333,3.4277,3.4002,3.3661,3.43,3.4579,3.3633,3.3589,3.393,3.5044,3.6237,3.7863,3.9917,4.0466,4.0024,3.9652,3.9794,3.9942,3.9227,3.9183,3.9327,3.9296,3.9287,3.8822,3.7485,3.7084,3.6954,3.7061,3.7124,3.715,3.2802,3.2636,3.2264,3.2186,3.225,3.225,3.2495,3.2898,3.2916,3.2916,3.2884,3.3102,3.3176,3.3194,3.3306,3.3339,3.3176,3.3176,3.339,3.3791,3.3386,3.322,3.322,3.3455,3.3605,3.3605,3.353,3.3868,3.4483,3.4093,3.3912,3.3984,3.3714,3.2344,3.0053,3.0909,3.1816,3.2619,3.3069,3.4073,3.5652,3.5962,3.6066,3.6085,3.6092,3.611,3.6092,3.611,3.5813,3.52,3.4785,3.366,3.1695,2.9379,0.0,0.0,0.0,0.0,0.0,0.0,0.0,0.0,0.0,2.384,2.2625,0.0,2.724,0.0,3.048,3.2059,3.1495,3.1204,0.0,0.0,2.9016,2.8846,2.9071,3.0793,3.1819,3.132,3.3025,3.4408,3.4747,3.4784,3.5269,3.6473,3.4861,3.3559,3.3679,3.4761,3.5665,3.5846,3.6802,3.7935,3.8383,3.9049,3.982,4.0914,4.102,4.0974,4.1083,3.9866,3.9338,4.0581,4.0993,4.0993,4.0958,4.0996,4.0884,4.0467,3.95,3.8738,3.8821,3.892,3.8925,3.3616,3.3494,3.3598,3.3489,3.3202,3.2977,3.2916,3.2916,3.2916,3.2916,3.292,3.374,3.4276,3.4597,3.4686,3.4508,3.4097,3.3723,3.3562,3.3526,3.3239,3.3086,3.3086,3.3568,3.381,3.3828,3.4153,3.4581,3.5054,3.4997,3.4952,3.4984,3.5202,3.4214,3.2188,3.2188,3.2384,3.2637,3.343,3.454,3.5981,3.6371,3.6157,3.5446,3.5558,3.5256,3.4507,3.4494,3.429,3.3863,3.3844,3.3189,3.1728,3.0023,2.8441,0.0,0.0,0.0,0.0,0.0,0.0,0.0,0.0,0.0,0.0,0.0,2.886,0.0,0.0,0.0,3.1581,3.1579,3.1427,3.0863,3.114,3.1533,3.1908,3.3525,3.442,3.3938,3.5138,3.6147,3.6448,3.6334,3.6712,3.8005,3.6789,3.5843,3.6136,3.6926,3.7609,3.8026,3.8886,3.9784,4.0518,4.0871,4.1287,4.1912,4.2072,4.2029,4.1807,4.1148,4.0749,4.1354,4.2075,4.2396,4.1776,4.159,4.1619,4.1547,4.1017,4.0502,4.0506,4.0616,4.071,3.4561,3.4579,3.4579,3.4303,3.3723,3.3324,3.303,3.2852,3.2852,3.2991,3.3223,3.4044,3.4757,3.5328,3.4793,3.449,3.4365,3.3669,3.333,3.333,3.3241,3.3187,3.3205,3.3901,3.424,3.4276,3.49,3.5393,3.5764,3.5764,3.5764,3.5865,3.6501,3.5969,3.4264,3.3602,3.2903,3.2176,3.3918,3.5186,3.5792,3.615,3.5607,3.4229,3.4382,3.3759,3.2265,3.2242,3.2172,3.1949,3.1972,3.1987,3.2061,3.0405,2.9544,0.0,2.7394,0.0,0.0,0.0,0.0,0.0,0.0,0.0,0.0,2.9425,3.0406,3.0614,3.2107,3.2802,3.2162,3.2181,3.2556,3.3308,3.4068,3.4816,3.5572,3.6352,3.6853,3.6835,3.6946,3.7281,3.7858,3.7684,3.8003,3.8929,3.9126,3.9102,3.9445,3.9474,3.9604,4.0065,4.0241,4.0847,4.1612,4.1996,4.2375,4.3032,4.3194,4.3012,4.2438,4.2784,4.2923,4.206,4.2884,4.3454,4.2147,4.1943,4.1973,4.2145,4.2156,4.2053,4.1781,4.1796,4.1999,3.4524,3.4376,3.4541,3.4621,3.4641,3.457,3.3825,3.2672,3.2672,3.3433,3.4744,3.5579,3.606,3.6221,3.6702,3.6577,3.5953,3.581,3.5721,3.5703,3.5061,3.4757,3.4775,3.4936,3.4989,3.5025,3.5132,3.5661,3.6558,3.6558,3.6721,3.6973,3.7057,3.6364,0.0,0.0,0.0,0.0,3.5842,3.6839,3.6985,3.6589,3.6214,3.592,3.6011,0.0,3.4747,3.4717,3.4111,3.286,3.2767,0.0,0.0,0.0,0.0,0.0,0.0,0.0,0.0,0.0,0.0,0.0,3.1323,3.0844,2.9075,2.9802,3.0956,3.2279,3.3358,3.4179,3.4711,3.5361,3.5788,3.5955,3.6129,3.6296,3.6482,3.7188,3.7671,3.7671,3.8228,3.8637,3.867,3.9254,3.9667,3.9638,4.0417,4.114,4.1409,4.0743,4.0547,4.1176,4.1922,4.2577,4.2887,4.2941,4.3156,4.3442,4.3511,4.356,4.3684,4.3661,4.3841,4.3478,4.3769,4.4005,4.3596,4.354,4.3485,4.3571,4.3781,4.3558,4.2265,4.1991,4.1999,3.5387,0.0,3.5387,3.5318,0.0,3.5122,3.4473,3.3494,3.3756,3.4602,3.5758,3.6203,3.6613,3.6952,3.6595,3.6185,3.5774,3.5007,3.4882,3.5239,3.4865,3.4865,3.5204,3.5614,3.5792,3.581,3.6185,3.6753,3.737,3.737,3.7555,3.7825,3.7794,3.7411,3.6723,3.7022,3.6698,3.5698,3.676,3.7361,3.7434,3.7411,3.6978,3.615,0.0,0.0,0.0,0.0,0.0,0.0,0.0,0.0,0.0,0.0,0.0,3.4105,3.3346,3.3001,3.3438,3.3451,3.3635,3.4074,3.4506,3.4018,3.2342,3.3025,3.3846,3.4668,3.5168,3.5602,3.6036,3.6445,3.6642,3.6554,3.686,3.7073,3.7016,3.7632,3.8206,3.8358,3.8709,3.9079,3.9523,3.9893,4.0355,4.0572,4.1277,4.1922,4.2087,4.175,4.1648,4.2287,4.2922,4.352,4.3921,4.4154,4.4441,4.4853,4.5035,4.5101,4.5199,4.4536,4.4225,4.4994,4.5231,4.5231,4.5194,4.4934,4.4655,4.4612,4.4487,4.4214,4.3278,4.3273,4.3429,3.6715,3.6697,3.6715,3.6437,3.5931,3.5931,3.5682,3.5266,0.0,0.0,0.0,3.6488,3.6934,3.7487,3.6203,3.5632,3.5543,3.4311,3.4079,3.4722,3.4722,3.5043,3.5667,3.6292,3.6613,3.6649,3.7345,3.781,3.807,3.8119,3.8285,3.8491,3.8523,3.8614,3.8761,3.8889,3.8506,3.7624,3.7539,3.7667,3.8007,3.8292,3.7758,3.6352,3.6575,3.6095,3.4895,3.4661,3.4519,3.4439,3.4271,3.4327,3.4606,3.4631,3.4772,3.5032,3.5006,3.5303,3.5996,3.6033,3.6356,3.7058,3.7113,3.6697,3.5699,3.6289,3.6705,3.6705,3.6816,3.6909,3.6909,3.7013,3.7007,3.6805,3.7366,3.7665,3.7534,3.8052,3.8664,3.9006,3.9121,3.9427,4.0389,4.0577,4.0757,4.1551,4.212,4.2491,4.2802,4.275,4.2797,4.3465,4.3876,4.4232,4.4897,4.529,4.5769,4.6201,4.6401,4.6513,4.6294,4.5393,4.5119,4.6108,4.6675,4.6768,4.6513,4.5932,4.5574,4.5555,4.517,4.4803,4.4832,4.5092,4.5168,3.8267,3.8284,3.8267,3.833,3.8417,3.8417,3.844,3.8362,3.651,3.5834,3.6072,3.6836,3.734,3.7577,3.7345,3.7255,3.7238,3.7023,3.6988,0.0,3.7095,3.7148,3.7255,3.7362,3.7416,3.7452,3.7774,3.8086,3.835,3.8541,3.8803,3.897,3.9017,3.9388,4.0111,4.0796,4.0954,4.0551,3.9116,3.8711,3.9469,3.9001,3.8663,3.8412,3.8255,3.7923,3.7303,3.6445,3.5745,3.533,3.4606,3.4847,3.624,3.637,3.6983,3.8284,3.8386,3.8442,3.8535,3.8599,3.8637,3.8729,3.8767,3.8135,3.6686,3.6612,3.6705,3.6742,3.7336,3.7726,3.7764,3.8155,3.8477,3.8609,3.8615,3.8649,3.8728,3.8905,3.9275,4.0036,4.0187,4.0378,4.1065,4.1792,4.223,4.2432,4.3079,4.3947,4.436,4.404,4.3937,4.4716,4.5036,4.5403,4.6019,4.6275,4.642,4.6475,4.6605,4.6698,4.6717,4.6405,4.6294,4.6513,4.7597,4.7872,4.695,4.6512,4.6495,4.6508,4.6513,4.661,4.6572,4.6755,4.6429,3.8594,3.8594,3.8594,3.8639,3.8711,3.8755,3.8842,3.8971,3.7993,3.7421,3.7309,3.7445,3.7521,3.7541,3.7148,3.6934,3.6916,3.6488,3.6524,3.6916,3.6952,3.7166,3.7559,3.7577,3.7577,3.7613,3.788,3.8153,3.8382,3.8652,3.8892,3.9138,3.9565,4.0215,4.1014,4.1404,4.1753,4.2032,4.0824,4.0246,4.0339,4.0184,4.0111,4.0093,4.0,3.9946,3.9861,3.9375,3.9034,3.8822,3.8432,3.8562,3.9287,3.8934,3.9027,3.9733,3.9361,3.9101,3.9101,3.9101,3.9101,3.9101,3.9101,3.8822,3.8061,3.7986,3.8005,3.8005,3.8358,3.8562,3.8562,3.8795,3.896,3.895,3.8833,3.8958,3.9277,3.9369,3.9743,4.064,4.0836,4.1151,4.1958,4.2495,4.2971,4.323,4.409,4.4859,4.5287,4.5282,4.5342,4.5811,4.5955,4.629,4.6977,4.7144,4.7311,4.7701,4.7794,4.7794,4.7813,4.7794,4.7809,4.7965,4.866,4.8786,4.8077,4.7741,4.7566,4.7485,4.7287,4.7259,4.7229,4.7318,4.7061,3.9094,3.9112,3.9112,3.9112,3.9094,3.9112,3.9247,3.9469,3.9364,3.9175,3.8868,3.8338,3.8057,3.8041,3.7452,3.7202,3.7113,3.6542,3.6613,3.7148,3.7184,3.7541,3.8076,3.8112,3.8023,3.7917,3.8185,3.835,3.8433,3.8713,3.9042,3.9472,4.042,4.1237,4.1832,4.2054,4.2463,4.2983,4.2463,4.1958,4.1552,4.1733,4.1846,4.1846,4.1783,4.1865,4.2099,4.1902,4.179,4.1869,4.1702,4.159,4.1571,4.0996,4.0661,4.0606,4.003,3.9658,3.9658,3.9658,3.9584,3.9398,3.938,3.9324,3.912,3.9101,3.9101,3.9101,3.9045,3.9064,3.9064,3.9027,3.9007,3.8862,3.8988,3.9307,3.9685,3.991,4.0414,4.1341,4.1588,4.1964,4.2773,4.3058,4.3429,4.4209,4.5026,4.5584,4.5862,4.642,4.6754,4.6991,4.6936,4.7088,4.7794,4.7961,4.8203,4.8834,4.8887,4.8829,4.8847,4.8937,4.9023,4.908,4.9244,4.9308,4.9327,4.8957,4.8593,4.8499,4.8249,4.7918,4.7983,4.8045,4.7776,4.0647,4.0664,4.0612,4.0681,4.0612,4.0629,4.0735,4.0861,4.0508,4.0391,4.0447,3.9762,3.9509,3.9661,3.9557,3.9468,3.9468,3.9486,3.9432,3.9468,3.9593,3.9629,3.9611,3.9646,3.9343,3.8829,3.9118,3.9046,3.8611,3.8918,3.95,4.0383,4.1813,4.2575,4.2742,4.3392,4.3801,4.3893,4.3819,4.3751,4.3701,4.3732,4.3751,4.3732,4.349,4.3509,4.3639,4.2839,4.2451,4.26,4.2017,4.1609,4.1609,4.1516,4.1479,4.1479,4.1386,4.1367,4.1349,4.1367,4.0996,4.0383,4.0234,3.9881,3.9194,3.9101,3.9101,3.9101,3.9101,3.9101,3.9101,3.8968,3.9013,3.9184,3.9623,4.0007,4.0396,4.0974,4.1735,4.2544,4.2625,4.2953,4.3633,4.3856,4.4246,4.5064,4.5895,4.662,4.714,4.7489,4.7895,4.846,4.8226,4.7995,4.8553,4.8779,4.8795,4.8925,4.9046,4.9164,4.9179,4.9239,4.9327,4.9352,4.9459,4.9527,4.9514,4.9461,4.9512,4.9372,4.9363,4.953,4.9614,4.95,4.9026,4.0871,4.0871,4.0871,4.0871,4.0871,4.0871,4.1105,4.1418,4.1209,4.1347,4.1647,4.1327,4.0726,3.9914,3.9896,3.9896,3.9896,3.9896,3.9896,3.9896,3.9896,3.9896,3.9896,3.9896,3.9812,3.975,3.9896,3.9995,4.0102,4.0422,4.1014,4.1776,4.25,4.302,4.3485,4.3838,4.4005,4.4005,4.4005,4.4005,4.4005,4.4005,4.4005,4.4005,4.391,4.3892,4.3936,4.3577,4.341,4.3485,4.3188,4.3002,4.3002,4.2575,4.2314,4.2296,4.185,4.159,4.159,4.159,4.1256,4.0438,4.0401,4.003,3.9212,3.9101,3.9101,3.9101,3.9101,3.9101,3.9157,3.9462,3.9777,3.9927,4.05,4.1167,4.1776,4.2092,4.263,4.3355,4.3522,4.3615,4.4005,4.4451,4.5082,4.5932,4.6797,4.7551,4.7849,4.8324,4.8851,4.9158,4.8939,4.887,4.9137,4.9113,4.9094,4.9155,4.9239,4.934,4.9415,4.9371,4.9427,4.9555,4.9642,4.9671,4.9712,4.9741,4.9816,4.9816,4.9843,4.9879,4.9879,4.9879,4.95,4.0871,4.0871,4.0871,4.0871,4.0871,4.0871,4.1105,4.1471,4.156,4.1823,4.2187,4.2287,4.1663,4.0681,4.0556,4.0556,4.0556,4.0556,4.0574,4.0574,4.0556,4.0574,4.0574,4.0556,4.0566,4.0615,4.0691,4.0937,4.1335,4.1742,4.2222,4.2742,4.302,4.3299,4.3652,4.3856,4.3893,4.3708,4.3875,4.4005,4.4005,4.4005,4.4005,4.4005,4.4005,4.4005,4.4005,4.4005,4.4005,4.4005,4.4005,4.4005,4.3986,4.3448,4.3132,4.3095,4.2593,4.2259,4.224,4.2259,4.1813,4.0866,4.0717,4.0253,3.9398,3.9305,3.9491,3.963,3.9677,3.977,3.9547,4.0215,4.0698,4.0754,4.1441,4.2184,4.2667,4.2946,4.3336,4.3893,4.4191,4.4469,4.4766,4.5435,4.6285,4.6871,4.7714,4.8352,4.8434,4.8946,4.9396,4.9476,4.9427,4.9396,4.9384,4.934,4.9302,4.9296,4.9377,4.9514,4.9619,4.9525,4.9566,4.9731,4.975,4.9778,4.9797,4.9871,4.9898,4.9898,4.9879,4.9879,4.9879,4.9879,4.9879,4.0871,4.0871,4.0871,4.0918,4.0871,4.0918,4.1059,4.1318,4.1498,4.1719,4.1977,4.2205,4.2234,4.2091,4.2019,4.2144,4.2126,4.2055,4.2037,4.2037,4.2073,4.2144,4.218,4.2162,4.1792,4.1271,4.1578,4.1727,4.1716,4.2389,4.276,4.2872,4.3522,4.3559,4.3169,4.3689,4.3633,4.315,4.3596,4.3968,4.3968,4.3968,4.3949,4.3931,4.4005,4.4005,4.4005,4.4005,4.4005,4.4005,4.4005,4.4005,4.4005,4.3949,4.3893,4.3893,4.3875,4.3819,4.3745,4.3689,4.3039,4.1757,4.1404,4.0828,3.938,3.9863,4.0448,4.069,4.1136,4.1136,4.0587,4.1107,4.1534,4.159,4.2259,4.2723,4.2835,4.3559,4.3912,4.4172,4.4766,4.5472,4.6252,4.7107,4.7504,4.797,4.8651,4.9145,4.9234,4.9358,4.9506,4.9615,4.9537,4.9415,4.9415,4.9434,4.9396,4.9439,4.9577,4.9673,4.9712,4.9703,4.9824,4.9871,4.9871,4.9871,4.9879,4.9879,4.9879,4.9879,4.9879,4.9879,4.9879,4.9879,4.9879,4.0871,4.0871,4.0871,4.0948,4.1071,4.1088,4.13,4.1657,4.1762,4.1934,4.2145,4.2287,4.2287,4.2287,4.2287,4.2287,4.2287,4.2287,4.2287,4.2287,4.2287,4.2287,4.2287,4.2287,4.2404,4.2427,4.2429,4.2558,4.2936,4.3367,4.3559,4.3596,4.3856,4.3838,4.3652,4.3856,4.3838,4.3578,4.3392,4.3243,4.3262,4.3225,4.3225,4.3262,4.3726,4.4005,4.4005,4.4005,4.4005,4.4005,4.4005,4.4005,4.4005,4.4005,4.4005,4.4005,4.4005,4.3782,4.3336,4.3225,4.2537,4.1089,4.1311,4.0929,3.9713,4.0335,4.1359,4.1779,4.2238,4.2265,4.2103,4.2222,4.2352,4.2482,4.3076,4.3559,4.3726,4.4302,4.4822,4.4952,4.5565,4.6415,4.7252,4.7732,4.8151,4.8765,4.9265,4.9506,4.9585,4.9673,4.9741,4.9788,4.9769,4.9712,4.9712,4.9644,4.9615,4.9683,4.9769,4.9816,4.9824,4.9805,4.9879,4.9898,4.9879,4.9879,4.9879,4.9879,4.9879,4.9879,4.9879,4.9879,4.9879,4.9879,4.9879,4.0871,4.0871,4.0871,4.0995,4.1209,4.1209,4.1436,4.1805,4.1874,4.2019,4.2163,4.2246,4.2351,4.2432,4.2432,4.2512,4.2552,4.2512,4.2432,4.2432,4.2552,4.2591,4.2591,4.2591,4.2786,4.3123,4.3069,4.3267,4.3679,4.391,4.4005,4.4005,4.4005,4.3875,4.3708,4.3856,4.3912,4.3578,4.3299,4.3206,4.3188,4.3188,4.3188,4.3262,4.3708,4.4005,4.4005,4.4005,4.4005,4.4005,4.4005,4.4005,4.4005,4.4005,4.4005,4.4005,4.4005,4.3782,4.328,4.3188,4.2612,4.1349,4.1627,4.1356,4.0195,4.1229,4.2284,4.2938,4.3247,4.3397,4.3383,4.346,4.3485,4.3373,4.3974,4.4457,4.4469,4.5175,4.5783,4.6201,4.6712,4.7447,4.8215,4.8415,4.8778,4.942,4.9634,4.9692,4.9778,4.9843,4.9879,4.9879,4.9879,4.9852,4.9852,4.9788,4.9759,4.9824,4.9824,4.9879,4.9879,4.9879,4.9879,4.9879,4.9879,4.9879,4.9879,4.9879,4.9879,4.9879,4.9879,4.9879,4.9879,4.9879,4.9879,4.0918,4.0918,4.0935,4.1117,4.1328,4.1373,4.1453,4.1762,4.1934,4.2103,4.2187,4.2246,4.2552,4.2673,4.2711,4.2864,4.305,4.2864,4.275,4.275,4.2995,4.3142,4.3142,4.3105,4.3123,4.3268,4.3461,4.3712,4.3955,4.4005,4.4005,4.4005,4.4005,4.3689,4.289,4.3633,4.3633,4.3243,4.3522,4.3819,4.3986,4.3819,4.3763,4.3838,4.3931,4.4005,4.4005,4.4005,4.4005,4.4005,4.4005,4.4005,4.4005,4.4005,4.4005,4.4005,4.4005,4.3986,4.3893,4.3801,4.3355,4.2593,4.2667,4.2314,4.1731,4.2387,4.3361,4.4055,4.4317,4.4314,4.4416,4.4897,4.4935,4.4296,4.4885,4.5388,4.5512,4.6043,4.6876,4.7684,4.8072,4.8532,4.9133,4.9283,4.9382,4.9588,4.9702,4.9778,4.9843,4.9879,4.9879,4.9879,4.9879,4.9879,4.9879,4.9879,4.9879,4.9879,4.9879,4.9879,4.9879,4.9879,4.9879,4.9879,4.9879,4.9879,4.9879,4.9879,4.9879,4.9879,4.9879,4.9879,4.9879,4.9879,4.9879,4.1328,4.1356,4.17,4.2015,4.2257,4.2302,4.248,4.2673,4.2768,4.2806,4.2806,4.29,4.2975,4.305,4.305,4.3142,4.3196,4.3232,4.325,4.3142,4.3178,4.3214,4.3214,4.3214,4.3304,4.3495,4.3763,4.3892,4.3974,4.4005,4.4005,4.4005,4.4005,4.3893,4.3633,4.3875,4.3838,4.3652,4.3299,4.3169,4.3169,4.3188,4.3206,4.3243,4.3689,4.4005,4.4005,4.4005,4.4005,4.4005,4.4005,4.4005,4.4005,4.4005,4.4005,4.4005,4.4005,4.3726,4.3262,4.3188,4.289,4.2296,4.25,4.2653,4.2518,4.3303,4.4092,4.4637,4.5068,4.5435,4.5444,4.6186,4.6196,4.5163,4.5817,4.6401,4.66,4.7199,4.8016,4.8778,4.9008,4.922,4.948,4.9585,4.9673,4.9769,4.9816,4.9871,4.9879,4.9879,4.9879,4.9879,4.9879,4.9879,4.9879,4.9879,4.9879,4.9879,4.9879,4.9879,4.9879,4.9879,4.9879,4.9879,4.9879,4.9879,4.9879,4.9879,4.9879,4.9879,4.9879,4.9879,4.9879,4.9879,4.9879,4.1828,4.1913,4.2226,4.2523,4.2714,4.2772,4.2958,4.3178,4.3214,4.3214,4.3251,4.3524,4.3707,4.3833,4.4107,4.4325,4.4448,4.4601,4.4586,4.4301,4.3679,4.3532,4.3513,4.3513,4.3563,4.373,4.3923,4.4005,4.4005,4.4005,4.4005,4.4005,4.4005,4.4005,4.4005,4.4005,4.4005,4.3931,4.3522,4.3243,4.3243,4.3243,4.3225,4.3336,4.3745,4.3986,4.4005,4.4005,4.4005,4.4005,4.4005,4.4005,4.4005,4.4005,4.4005,4.4005,4.3986,4.3782,4.3318,4.3336,4.3058,4.2705,4.3044,4.3327,4.3482,4.4298,4.4965,4.5415,4.5997,4.6401,4.6421,4.7071,4.7259,4.6692,4.702,4.7489,4.7867,4.8386,4.8867,4.9356,4.9529,4.9644,4.9731,4.9778,4.9807,4.9898,4.9879,4.9879,4.9879,4.9879,4.9879,4.9879,4.9879,4.9879,4.9879,4.9879,4.9879,4.9879,4.9879,4.9879,4.9879,4.9879,4.9879,4.9879,4.9879,4.9879,4.9879,4.9879,4.9879,4.9879,4.9879,4.9879,4.9879,4.9879,4.9879,4.2404,4.2523,4.2562,4.2734,4.2922,4.2922,4.3105,4.3268,4.3396,4.3468,4.3596,4.4272,4.471,4.5033,4.551,4.5891,4.6405,4.6257,4.6201,4.5834,4.4999,4.4332,4.4337,4.4355,4.4387,4.4326,4.4339,4.4228,4.4228,4.4228,4.4042,4.4005,4.4005,4.4005,4.4005,4.4005,4.4005,4.3986,4.3949,4.3912,4.3912,4.3949,4.3949,4.3931,4.3968,4.4005,4.4005,4.4005,4.4005,4.4005,4.4005,4.4005,4.4005,4.4005,4.4005,4.4005,4.4005,4.4005,4.3968,4.3906,4.3869,4.3844,4.4114,4.4371,4.4504,4.5322,4.6081,4.6456,4.7011,4.7305,4.7409,4.7957,4.8286,4.8447,4.8428,4.871,4.9288,4.9539,4.9617,4.9665,4.9816,4.9879,4.9879,4.9879,4.9879,4.9898,4.9879,4.9879,4.9879,4.9879,4.9879,4.9879,4.9879,4.9879,4.9879,4.9879,4.9879,4.9879,4.9879,4.9879,4.9879,4.9879,4.9879,4.9879,4.9879,4.9879,4.9879,4.9879,4.9879,4.9879,4.9879,4.9879,4.9879,4.9879,4.9879,4.2867,4.2978,4.3336,4.3563,4.3631,4.3679,4.3712,4.3888,4.4465,4.465,4.4905,4.5589,4.5941,4.6079,4.6264,4.6409,4.6587,4.6568,4.6513,4.6438,4.6122,4.5844,4.5825,4.5825,4.5788,4.5769,4.5658,4.5528,4.4989,4.4952,4.4655,4.4023,4.4098,4.4042,4.4005,4.4023,4.4005,4.4005,4.4005,4.4005,4.4005,4.4005,4.4005,4.4005,4.4005,4.4005,4.4005,4.4005,4.4005,4.4005,4.4005,4.4005,4.4005,4.4005,4.4005,4.4005,4.4005,4.4005,4.4036,4.4184,4.4226,4.4293,4.4953,4.5378,4.5509,4.6298,4.6898,4.7261,4.7818,4.831,4.8424,4.8964,4.938,4.9503,4.9427,4.9494,4.9693,4.9797,4.9843,4.9843,4.9879,4.9879,4.9879,4.9879,4.9879,4.9879,4.9879,4.9879,4.9879,4.9879,4.9879,4.9879,4.9879,4.9879,4.9879,4.9879,4.9879,4.9879,4.9879,4.9879,4.9879,4.9879,4.9879,4.9879,4.9879,4.9879,4.9879,4.9879,4.9879,4.9879,4.9879,4.9879,4.9879,4.9879,4.9879,4.3406,4.3508,4.3795,4.3942,4.3942,4.3974,4.4005,4.4172,4.4915,4.5287,4.5528,4.6531,4.6995,4.7033,4.7348,4.7497,4.7516,4.7516,4.7534,4.7534,4.7516,4.7125,4.6661,4.6513,4.6513,4.6513,4.6531,4.6234,4.5862,4.5807,4.5491,4.5119,4.4692,4.4544,4.4562,4.4135,4.4055,4.4116,4.4116,4.4097,4.4116,4.4116,4.4067,4.4036,4.4005,4.4005,4.4005,4.4085,4.4116,4.4055,4.4005,4.4005,4.4005,4.4005,4.4005,4.4005,4.4005,4.4036,4.4202,4.4517,4.4849,4.5057,4.5801,4.6308,4.6598,4.7276,4.7894,4.7996,4.8723,4.9121,4.9254,4.9633,4.9841,4.9841,4.9879,4.9879,4.9879,4.9879,4.9879,4.9879,4.9879,4.9879,4.9879,4.9879,4.9879,4.9879,4.9879,4.9879,4.9879,4.9879,4.9906,4.9906,4.9933,4.9933,4.9933,4.9933,4.994,4.994,4.9952,4.9952,4.9933,4.9933,4.9879,4.9879,4.9879,4.9879,4.9879,4.9879,4.9879,4.9879,4.9879,4.9906,4.9933,4.9986,4.9959,4.3961,4.4005,4.4005,4.4005,4.4005,4.4005,4.4098,4.4321,4.5119,4.5565,4.5974,4.7181,4.7794,4.785,4.837,4.8816,4.8797,4.8649,4.8742,4.8686,4.8593,4.811,4.7125,4.707,4.7033,4.6995,4.6791,4.6754,4.6661,4.6624,4.655,4.6178,4.5658,4.5454,4.5324,4.4748,4.4433,4.4647,4.4591,4.4565,4.452,4.4427,4.4237,4.4128,4.4097,4.4097,4.4165,4.4319,4.4423,4.4216,4.4092,4.4023,4.4005,4.4005,4.4147,4.4271,4.4358,4.4438,4.4707,4.5421,4.5742,4.5989,4.6788,4.7324,4.7548,4.8207,4.8799,4.8799,4.9481,4.9728,4.9784,4.9879,4.9879,4.9879,4.9879,4.9879,4.9879,4.9879,4.9879,4.9879,4.9879,4.9879,4.9879,4.9879,4.9879,4.9879,4.9879,4.9879,4.9879,4.9879,4.9933,4.9986,4.9986,4.994,4.9967,4.9993,5.0019,5.0044,5.0031,5.0031,5.0019,4.9993,4.9933,4.9879,4.9879,4.9879,4.9879,4.9879,4.9933,4.9986,5.0044,5.0019,4.9986,5.007,5.01,4.3961,4.4005,4.4005,4.4005,4.4005,4.4023,4.4376,4.5045,4.5862,4.6494,4.7256,4.8203,4.8574,4.863,4.8797,4.889,4.889,4.889,4.889,4.889,4.889,4.8779,4.8333,4.8259,4.8314,4.8277,4.8351,4.8036,4.759,4.7404,4.7125,4.6587,4.6457,4.6234,4.6178,4.5955,4.6033,4.6059,4.5574,4.5327,4.5265,4.4852,4.458,4.4504,4.4514,4.4458,4.4551,4.5058,4.5377,4.514,4.4587,4.424,4.4253,4.4307,4.4629,4.5069,4.5279,4.5629,4.6269,4.6581,4.6836,4.6967,4.7737,4.8393,4.8431,4.9094,4.9557,4.9633,4.9803,4.9879,4.9879,4.9879,4.9879,4.9879,4.9879,4.9879,4.9879,4.9879,4.9879,4.9879,4.9879,4.9879,4.9879,4.9879,4.9879,4.9879,4.9879,4.9879,4.9879,4.9879,4.9959,5.0038,5.0063,5.007,5.013,5.0155,5.0155,5.0155,5.0144,5.0139,5.0149,5.01,5.0025,4.9967,4.9879,4.9906,4.9993,5.0063,5.0139,5.0169,5.0197,5.0197,5.0178,5.0225,5.0245,4.3992,4.4005,4.4005,4.4005,4.4005,4.4023,4.4488,4.5324,4.6141,4.6958,4.7757,4.8537,4.889,4.889,4.889,4.889,4.889,4.889,4.889,4.889,4.889,4.889,4.889,4.889,4.889,4.889,4.8872,4.8612,4.8351,4.8203,4.8073,4.7608,4.7274,4.7088,4.6958,4.6768,4.66,4.6712,4.6461,4.6259,4.6271,4.6036,4.5717,4.5688,4.5717,4.5763,4.5772,4.6121,4.6318,4.6186,4.5739,4.5406,4.5406,4.5496,4.5769,4.6098,4.6288,4.6506,4.7015,4.7514,4.7796,4.7897,4.8753,4.9121,4.9292,4.969,4.9841,4.9879,4.9879,4.9879,4.9879,4.9879,4.9879,4.9879,4.9879,4.9879,4.9879,4.9879,4.9879,4.9879,4.9879,4.9879,4.9879,4.9906,4.9906,4.9933,4.9906,4.9906,4.9879,4.9906,5.0012,5.0089,5.0139,5.0217,5.0317,5.0342,5.032,5.0317,5.0313,5.0291,5.0294,5.0225,5.0155,5.0125,5.0076,5.0149,5.0221,5.0287,5.031,5.0313,5.0317,5.0363,5.0385,5.0361,5.0339,4.4005,4.4005,4.4005,4.4005,4.4005,4.4023,4.4488,4.5342,4.6141,4.694,4.7757,4.8537,4.889,4.889,4.889,4.889,4.889,4.8909,4.8909,4.8959,4.8909,4.8925,4.8925,4.8943,4.889,4.889,4.889,4.8834,4.8834,4.889,4.872,4.8739,4.8308,4.8006,4.782,4.7392,4.733,4.7612,4.7379,4.7297,4.7324,4.7219,4.6948,4.6901,4.6929,4.6938,4.692,4.7221,4.7418,4.7288,4.7401,4.7486,4.7448,4.7099,4.7145,4.7164,4.7249,4.7523,4.7909,4.8314,4.871,4.8913,4.9443,4.983,4.9895,4.9876,4.9914,4.9933,4.9933,4.9879,4.9879,4.9879,4.9879,4.9879,4.9879,4.9925,4.9952,4.9933,4.9959,4.9879,4.9906,4.9906,4.9959,4.9986,4.9986,4.9959,4.994,4.994,4.994,4.9993,5.0144,5.0264,5.0355,5.0464,5.0548,5.0587,5.0567,5.0508,5.0507,5.0486,5.0507,5.0504,5.044,5.0339,5.032,5.0361,5.0383,5.0423,5.0445,5.0425,5.0508,5.0587,5.0548,5.0488,5.0488,4.4005,4.4005,4.4005,4.4005,4.4005,4.4005,4.4488,4.5361,4.6141,4.6958,4.7757,4.8537,4.889,4.889,4.889,4.889,4.889,4.8909,4.8978,4.9079,4.9012,4.8978,4.9113,4.9046,4.8925,4.889,4.8925,4.8925,4.889,4.889,4.8978,4.9057,4.8959,4.8931,4.8952,4.8959,4.8788,4.8843,4.8513,4.8304,4.8299,4.7972,4.7643,4.761,4.7674,4.7617,4.7647,4.8109,4.851,4.8637,4.9289,4.9591,4.9306,4.8143,4.7767,4.8088,4.8359,4.8647,4.9167,4.9462,4.9652,4.9709,4.9857,4.9993,5.0063,5.0057,5.0038,5.0063,5.0012,4.9906,4.9906,4.9959,4.9906,4.9906,4.9959,4.9986,5.0114,5.0139,5.007,4.9993,4.9959,4.9986,5.007,5.0144,5.0169,5.0174,5.0178,5.0178,5.0202,5.0249,5.0361,5.0486,5.0645,5.0718,5.0805,5.0805,5.0805,5.0773,5.0738,5.0739,5.0758,5.0797,5.076,5.0586,5.0469,5.0448,5.0488,5.0567,5.0606,5.0625,5.0699,5.0786,5.0735,5.0681,5.0735,4.4005,4.4005,4.4005,4.4005,4.4005,4.4005,4.4488,4.5324,4.6141,4.694,4.7738,4.8519,4.889,4.889,4.889,4.889,4.889,4.889,4.9012,4.9131,4.9113,4.9146,4.9308,4.9193,4.916,4.916,4.9141,4.9061,4.8909,4.889,4.8993,4.9061,4.9206,4.9358,4.9442,4.9514,4.9749,4.9789,4.953,4.9378,4.9539,4.9044,4.8924,4.8827,4.8827,4.8846,4.8941,4.9169,4.9553,4.9733,5.0061,5.032,5.0068,4.9637,4.8971,4.9314,4.9496,4.9673,5.0073,5.0174,5.0155,5.0155,5.013,5.0178,5.0245,5.0245,5.0217,5.0245,5.0245,5.013,5.0174,5.0149,5.0174,5.0174,5.013,5.0197,5.0287,5.031,5.0245,5.0174,5.0221,5.0245,5.0268,5.0313,5.0336,5.0361,5.0385,5.0406,5.0427,5.0467,5.0528,5.0625,5.0738,5.0808,5.089,5.089,5.0906,5.0893,5.0897,5.0916,5.0899,5.0885,5.0849,5.0773,5.0681,5.0587,5.0681,5.0771,5.0771,5.0808,5.0822,5.0839,5.089,5.089,5.0906,4.4005,4.4005,4.4005,4.4017,4.4079,4.4079,4.4494,4.5289,4.6253,4.7031,4.7676,4.8623,4.9075,4.8993,4.8959,4.8978,4.8978,4.8978,4.9113,4.9276,4.9211,4.9276,4.9415,4.9415,4.9384,4.9352,4.9334,4.9239,4.9094,4.9027,4.9042,4.9233,4.9424,4.9551,4.9673,4.9886,5.0121,5.0187,5.0233,5.0298,5.0363,5.0404,5.0358,5.0259,5.0259,5.0164,5.0068,5.0087,5.0218,5.0308,5.0448,5.0467,5.0508,5.0508,5.0508,5.0488,5.0427,5.0385,5.0363,5.0363,5.0339,5.032,5.0363,5.0404,5.0446,5.0466,5.0445,5.0406,5.0363,5.0342,5.032,5.0363,5.0363,5.0363,5.0383,5.0404,5.0466,5.0486,5.0507,5.0486,5.0507,5.0507,5.0507,5.0486,5.0507,5.0606,5.0625,5.0606,5.0625,5.0587,5.0663,5.0736,5.0808,5.0858,5.089,5.089,5.0906,5.0909,5.0909,5.0893,5.0909,5.0893,5.0874,5.0841,5.0858,5.0805,5.089,5.0906,5.0874,5.0858,5.089,5.0906,5.0906,5.0906,5.0906,4.4005,4.4005,4.4005,4.4121,4.4346,4.4346,4.453,4.5009,4.6463,4.7235,4.7475,4.889,4.9453,4.9365,4.9225,4.9179,4.9179,4.9225,4.9365,4.9566,4.9415,4.9476,4.9615,4.9476,4.9529,4.9558,4.9518,4.9384,4.9365,4.9365,4.9469,4.9665,4.9757,4.9968,5.0126,5.0281,5.0342,5.0363,5.0385,5.0385,5.0406,5.0427,5.0425,5.0383,5.0383,5.0402,5.0402,5.0402,5.0446,5.0625,5.0664,5.0718,5.0805,5.0839,5.0839,5.0752,5.0587,5.0385,5.0427,5.0448,5.0448,5.0467,5.0446,5.0488,5.0587,5.0644,5.0587,5.0385,5.0406,5.0469,5.047,5.0427,5.0406,5.0448,5.0489,5.0567,5.0606,5.0681,5.0699,5.0752,5.075,5.0717,5.0699,5.07,5.072,5.0791,5.0839,5.0805,5.0789,5.0754,5.0754,5.0825,5.0841,5.089,5.0906,5.0906,5.0906,5.0906,5.0906,5.0906,5.0906,5.0906,5.0906,5.089,5.0906,5.0906,5.0906,5.0906,5.0906,5.0906,5.0906,5.0906,5.0906,5.0906,5.0906,4.4457,4.4438,4.4457,4.4538,4.4624,4.4643,4.4676,4.5022,4.6007,4.6866,4.7453,4.8515,4.9248,4.9551,4.9598,4.9598,4.9579,4.957,4.973,4.9903,4.983,4.9857,5.0012,5.0012,4.9968,4.9917,4.9962,4.9993,4.9884,4.9617,4.9558,4.9803,5.0012,5.0145,5.0429,5.0606,5.0681,5.0699,5.0699,5.0681,5.0681,5.0681,5.0644,5.0567,5.0567,5.0586,5.0567,5.0567,5.0644,5.0791,5.0825,5.0841,5.089,5.089,5.089,5.089,5.0769,5.068,5.0699,5.0681,5.0663,5.0681,5.0681,5.0717,5.0808,5.0808,5.0805,5.0748,5.0731,5.0748,5.0761,5.0778,5.0793,5.0778,5.0713,5.075,5.0819,5.0855,5.0902,5.0947,5.0976,5.0913,5.0867,5.0855,5.0841,5.0858,5.089,5.0855,5.0855,5.0858,5.0858,5.0874,5.089,5.089,5.0906,5.0906,5.0906,5.0906,5.0906,5.0906,5.0906,5.0906,5.0906,5.0906,5.0906,5.0906,5.0906,5.0906,5.0906,5.0906,5.0906,5.0906,5.0906,5.0906,5.0906,4.4843,4.4992,4.4872,4.4849,4.4896,4.4896,4.4943,4.5103,4.5921,4.6739,4.7615,4.858,4.9429,4.9829,4.9943,4.9962,4.9943,4.998,5.0078,5.0187,5.023,5.0252,5.0298,5.0342,5.0342,5.0385,5.0298,5.0298,5.0206,5.0012,4.983,4.9943,5.0252,5.0408,5.0567,5.0733,5.0858,5.0858,5.0874,5.0874,5.0874,5.0874,5.0841,5.0791,5.0756,5.0756,5.0756,5.0736,5.0825,5.0858,5.089,5.089,5.0906,5.0906,5.0906,5.089,5.0839,5.0855,5.0858,5.0874,5.089,5.0906,5.0906,5.0874,5.089,5.0906,5.0937,5.0961,5.0942,5.0998,5.1081,5.1062,5.1017,5.0992,5.0998,5.103,5.103,5.1004,5.1004,5.1017,5.1024,5.1049,5.1011,5.099,5.0966,5.0937,5.0921,5.0921,5.0921,5.0921,5.0921,5.0921,5.0906,5.0906,5.0906,5.0906,5.0906,5.0906,5.0906,5.0945,5.0964,5.0945,5.0906,5.0906,5.1041,5.0906,5.0906,5.0906,5.0906,5.0906,5.0906,5.0906,5.0906,5.0906,5.0906,4.4919,4.5596,4.5099,4.503,4.5161,4.5262,4.5362,4.5552,4.6397,4.7242,4.8183,4.9468,5.0093,5.0301,5.0252,5.023,5.0206,5.0164,5.0278,5.0342,5.0294,5.0342,5.0427,5.0448,5.0427,5.0427,5.0469,5.0448,5.0406,5.0385,5.0425,5.0606,5.0547,5.0699,5.0786,5.0855,5.0906,5.0906,5.0906,5.0906,5.0906,5.0906,5.089,5.089,5.0874,5.089,5.089,5.0874,5.0874,5.0906,5.0906,5.0906,5.0906,5.0921,5.0921,5.0921,5.0937,5.0937,5.0937,5.0921,5.0906,5.0906,5.0906,5.0906,5.0906,5.0906,5.0937,5.1004,5.103,5.1069,5.1093,5.1086,5.1128,5.1128,5.1117,5.1105,5.1093,5.1093,5.1074,5.1074,5.1097,5.1139,5.115,5.1105,5.1043,5.1004,5.099,5.099,5.0961,5.0961,5.0947,5.0952,5.0937,5.0921,5.0902,5.0917,5.0966,5.0981,5.0947,5.1029,5.1111,5.1037,5.0913,5.144,5.1663,5.1285,5.108,5.1498,5.1595,5.1099,5.0906,5.0906,5.0906,5.0906,5.0906,4.4944,4.5731,4.5545,4.5493,4.551,4.5547,4.5582,4.5709,4.6018,4.6998,4.8345,4.9354,5.0144,5.0491,5.0644,5.0625,5.0625,5.0625,5.0643,5.0662,5.0681,5.0662,5.0699,5.0699,5.0717,5.0699,5.0699,5.0736,5.0717,5.0681,5.0736,5.0791,5.0756,5.0791,5.0858,5.0906,5.0906,5.0906,5.0906,5.0906,5.0906,5.0906,5.0906,5.0906,5.0906,5.0906,5.089,5.089,5.0906,5.0906,5.0906,5.0906,5.0921,5.0932,5.0947,5.0961,5.099,5.1004,5.099,5.0966,5.0906,5.0906,5.0906,5.0906,5.0921,5.0952,5.099,5.1043,5.1093,5.1128,5.123,5.1249,5.123,5.122,5.1278,5.1336,5.1413,5.153,5.153,5.1686,5.1425,5.1239,5.1239,5.123,5.115,5.1093,5.1069,5.1056,5.105,5.1166,5.123,5.1347,5.1377,5.1358,5.1358,5.1236,5.1095,5.1153,5.1197,5.1449,5.1649,5.1037,5.1089,5.1735,5.2516,5.256,5.2579,5.2584,5.2221,5.1474,5.1076,5.0906,5.0906,5.0906,5.0906,4.4607,4.5428,4.5713,4.5781,4.5715,4.5715,4.5715,4.57,4.57,4.668,4.8337,4.9186,5.0016,5.0651,5.0861,5.088,5.0861,5.0858,5.0874,5.0874,5.0874,5.0906,5.0906,5.089,5.0858,5.0906,5.0906,5.089,5.0874,5.089,5.089,5.0858,5.0825,5.0841,5.0874,5.0906,5.0906,5.0906,5.0906,5.0906,5.0906,5.0906,5.0906,5.0906,5.0906,5.0906,5.0906,5.0906,5.0906,5.0906,5.0906,5.0906,5.0952,5.0981,5.1023,5.1043,5.1069,5.1086,5.1081,5.103,5.0981,5.0976,5.0976,5.0961,5.0961,5.1004,5.1056,5.1117,5.1171,5.1327,5.1546,5.1779,5.2102,5.2288,5.2416,5.2475,5.2436,5.2475,5.2378,5.2339,5.2172,5.2239,5.2278,5.2308,5.1746,5.1519,5.1139,5.1156,5.1159,5.1365,5.1688,5.1831,5.1994,5.1987,5.196,5.211,5.2292,5.235,5.2408,5.244,5.2363,5.1785,5.1804,5.2719,5.3437,5.3916,5.3767,5.3288,5.253,5.1693,5.1407,5.1175,5.0952,5.0966,5.0921,4.3827,4.4697,4.5432,4.5699,4.5638,4.5765,4.5765,4.5696,4.5715,4.6619,4.8176,4.9154,5.002,5.0658,5.0793,5.0909,5.0909,5.089,5.0906,5.0906,5.0906,5.0906,5.0906,5.0906,5.0906,5.0906,5.0906,5.0906,5.0906,5.0906,5.0906,5.0906,5.0874,5.0874,5.089,5.0906,5.0906,5.0906,5.0906,5.0906,5.0906,5.0906,5.0921,5.0921,5.0937,5.0932,5.0952,5.0952,5.0952,5.0952,5.0952,5.0966,5.1004,5.1017,5.1056,5.1093,5.1105,5.1117,5.1105,5.1105,5.1093,5.1069,5.1037,5.1037,5.1062,5.1086,5.1369,5.1677,5.1502,5.1823,5.218,5.2625,5.3015,5.321,5.329,5.3329,5.3251,5.3213,5.3087,5.299,5.3427,5.3775,5.3755,5.3533,5.2697,5.2086,5.1444,5.1307,5.1558,5.1889,5.2377,5.2532,5.2736,5.2833,5.2911,5.3297,5.3487,5.3545,5.3479,5.3347,5.3347,5.3133,5.3355,5.3946,5.4529,5.5143,5.4509,5.3759,5.3281,5.2834,5.1897,5.1496,5.1224,5.1125,5.1266,4.2937,4.3808,4.4659,4.4974,4.5042,4.5578,4.5791,4.5771,4.5868,4.6428,4.7506,4.845,4.9301,4.9997,5.0693,5.0906,5.0906,5.0906,5.0906,5.0906,5.0906,5.0906,5.0906,5.0906,5.0906,5.0906,5.0906,5.0906,5.0906,5.0906,5.0906,5.0906,5.0921,5.0906,5.0906,5.0906,5.0906,5.0906,5.0906,5.0906,5.0906,5.0952,5.0981,5.0981,5.1004,5.1017,5.1017,5.1017,5.1017,5.1017,5.1017,5.1043,5.1069,5.1093,5.1139,5.119,5.1201,5.123,5.123,5.123,5.1201,5.1139,5.1097,5.1117,5.1105,5.1139,5.1735,5.2446,5.2309,5.2706,5.3241,5.3424,5.3677,5.3677,5.3728,5.3728,5.3708,5.3728,5.3669,5.363,5.3892,5.4067,5.4126,5.4418,5.3836,5.3544,5.3078,5.2786,5.2923,5.3088,5.3418,5.3428,5.3545,5.3672,5.3857,5.4207,5.411,5.3896,5.3916,5.3906,5.3964,5.4237,5.4645,5.5093,5.5744,5.6258,5.551,5.4849,5.4636,5.413,5.333,5.2663,5.2472,5.2233,5.2001,4.2389,4.3008,4.3846,4.4407,4.4775,4.5471,4.58,4.58,4.5819,4.6283,4.7173,4.8024,4.8914,4.9745,5.048,5.0906,5.0906,5.0906,5.0906,5.0906,5.0906,5.0906,5.0906,5.0925,5.0906,5.0906,5.0906,5.0906,5.0906,5.0937,5.0966,5.0976,5.0961,5.0976,5.0981,5.0952,5.0906,5.0906,5.0906,5.0906,5.0921,5.0947,5.099,5.1017,5.1037,5.1074,5.1086,5.1086,5.1086,5.1086,5.1105,5.1117,5.1139,5.118,5.122,5.1239,5.1276,5.1292,5.1292,5.1292,5.1239,5.1201,5.1161,5.1161,5.1288,5.1551,5.2456,5.3126,5.3251,5.3689,5.4145,5.4281,5.4437,5.4457,5.4691,5.473,5.4749,5.4807,5.4807,5.471,5.4652,5.4691,5.4671,5.4905,5.4983,5.4905,5.4807,5.4496,5.4164,5.4262,5.4359,5.439,5.4585,5.4868,5.4985,5.5102,5.4868,5.4312,5.4457,5.473,5.5052,5.5385,5.5831,5.6132,5.63,5.6407,5.6348,5.6015,5.5617,5.5365,5.5074,5.446,5.3911,5.3394,5.2927,4.2163,4.2298,4.3099,4.3912,4.4711,4.5331,4.5744,4.5814,4.5819,4.6283,4.7096,4.7889,4.8701,4.9629,5.0461,5.0867,5.0945,5.0945,5.0945,5.0945,5.0964,5.0964,5.0964,5.0964,5.0975,5.0956,5.0941,5.0975,5.0921,5.0992,5.1042,5.1086,5.1086,5.1086,5.1049,5.1004,5.0966,5.0952,5.0932,5.0952,5.0981,5.1009,5.1043,5.1069,5.1105,5.1139,5.1139,5.1139,5.1128,5.1128,5.1117,5.115,5.119,5.1211,5.1239,5.1284,5.13,5.13,5.13,5.13,5.13,5.1276,5.1421,5.137,5.1487,5.1966,5.3057,5.3844,5.4184,5.4632,5.5041,5.5275,5.5509,5.5762,5.6093,5.6152,5.6171,5.6191,5.6171,5.6113,5.6074,5.6035,5.5937,5.6035,5.5723,5.5782,5.5626,5.5333,5.51,5.5139,5.5236,5.5333,5.5626,5.6152,5.6191,5.5879,5.5782,5.5295,5.5606,5.5899,5.621,5.621,5.6269,5.6327,5.6425,5.6464,5.6405,5.6425,5.6366,5.6182,5.59,5.5599,5.4859,5.4265,5.3837,4.1338,4.1435,4.2233,4.2739,4.3155,4.4494,4.5414,4.5944,4.6027,4.6201,4.6452,4.7245,4.8145,4.8952,4.9788,5.048,5.0867,5.1099,5.108,5.1076,5.1063,5.1095,5.1115,5.1106,5.112,5.1121,5.1108,5.1081,5.1109,5.1142,5.1139,5.1164,5.117,5.1171,5.1132,5.1086,5.1069,5.1043,5.103,5.103,5.1043,5.1093,5.1117,5.1139,5.1181,5.1201,5.123,5.123,5.123,5.123,5.1239,5.1276,5.1276,5.1284,5.1292,5.1292,5.13,5.13,5.13,5.13,5.13,5.1456,5.1807,5.1768,5.1787,5.2391,5.3638,5.4554,5.5002,5.5314,5.5665,5.5937,5.6074,5.6249,5.6483,5.6483,5.6483,5.6483,5.6483,5.6483,5.6483,5.6483,5.6483,5.6425,5.6171,5.6386,5.6347,5.6035,5.586,5.586,5.5879,5.5957,5.6074,5.6444,5.6483,5.6249,5.6347,5.6386,5.6483,5.6483,5.6425,5.6386,5.6464,5.6492,5.65,5.6492,5.6483,5.65,5.6484,5.65,5.6269,5.6085,5.5812,5.5208,5.4779,4.1049,4.1108,4.1557,4.1967,4.2555,4.4152,4.5199,4.5663,4.5949,4.6113,4.6191,4.6973,4.759,4.823,4.931,5.0176,5.0564,5.1011,5.1171,5.1171,5.1194,5.1186,5.1202,5.1202,5.119,5.122,5.1211,5.1181,5.1203,5.1245,5.1249,5.1264,5.1258,5.1245,5.1218,5.1206,5.1191,5.1171,5.1128,5.1097,5.1109,5.1161,5.1201,5.123,5.1265,5.1281,5.1308,5.1308,5.13,5.13,5.13,5.1296,5.131,5.131,5.1347,5.1347,5.133,5.1304,5.1297,5.1308,5.1308,5.1534,5.2119,5.2469,5.2859,5.3444,5.471,5.5762,5.5782,5.5879,5.621,5.6483,5.6464,5.6483,5.6483,5.6483,5.6483,5.6483,5.6483,5.6483,5.6483,5.6483,5.6483,5.6483,5.6483,5.6483,5.6483,5.6386,5.6249,5.6249,5.6249,5.6269,5.6347,5.6483,5.6483,5.6483,5.6483,5.6483,5.6483,5.6483,5.6483,5.6492,5.6492,5.648,5.6488,5.6496,5.6491,5.6497,5.6489,5.6491,5.6485,5.6341,5.6205,5.601,5.5724,4.1146,4.1224,4.1144,4.1636,4.2552,4.4036,4.4813,4.506,4.569,4.6065,4.6255,4.6872,4.724,4.782,4.8996,4.9749,5.0314,5.0872,5.1245,5.1219,5.1245,5.1255,5.1235,5.1216,5.1264,5.124,5.124,5.1264,5.1245,5.1268,5.134,5.1402,5.1379,5.1352,5.1297,5.1299,5.1277,5.1264,5.1217,5.1172,5.1161,5.1201,5.123,5.1239,5.1281,5.1303,5.1303,5.1296,5.1296,5.1316,5.1303,5.131,5.1342,5.1343,5.1391,5.1372,5.1355,5.1347,5.1318,5.1322,5.146,5.1739,5.2212,5.3052,5.3702,5.4212,5.5333,5.6113,5.6171,5.6171,5.6405,5.6483,5.6483,5.6483,5.6483,5.6483,5.6483,5.6483,5.6483,5.6483,5.6483,5.6483,5.6483,5.6483,5.6483,5.6483,5.6483,5.6483,5.6492,5.6492,5.65,5.6492,5.6492,5.6492,5.6483,5.6483,5.6483,5.6483,5.65,5.6492,5.6492,5.6492,5.648,5.6491,5.6484,5.6489,5.6499,5.6493,5.6481,5.6481,5.6481,5.649,5.6448,5.638,5.6313,4.1484,4.2014,4.1367,4.1602,4.2385,4.2831,4.3824,4.4972,4.5165,4.5661,4.6208,4.6503,4.6914,4.7593,4.855,4.9309,5.0035,5.0669,5.1203,5.1305,5.1308,5.1308,5.1344,5.1328,5.1346,5.1361,5.1363,5.1346,5.1327,5.1344,5.1359,5.1398,5.1384,5.1367,5.1365,5.1359,5.1346,5.1351,5.1318,5.1271,5.1273,5.1264,5.1277,5.1302,5.1323,5.1355,5.1355,5.1359,5.1363,5.1363,5.1382,5.1389,5.1391,5.1396,5.1398,5.1379,5.1357,5.1374,5.1369,5.1421,5.1629,5.2355,5.3038,5.3803,5.4455,5.4943,5.5498,5.6141,5.6492,5.65,5.65,5.65,5.65,5.65,5.65,5.65,5.6492,5.6492,5.6492,5.6483,5.6483,5.6492,5.6492,5.6492,5.6483,5.6483,5.6483,5.6492,5.648,5.6488,5.6484,5.6496,5.6492,5.6492,5.65,5.6496,5.6491,5.6491,5.6478,5.6484,5.648,5.6491,5.6497,5.6489,5.6484,5.6488,5.6488,5.649,5.6495,5.65,5.6502,5.6523,5.6504,5.6464,5.6461,4.1615,4.2259,4.1459,4.1361,4.1849,4.222,4.3177,4.4328,4.4836,4.548,4.6222,4.6323,4.658,4.7154,4.7935,4.8819,4.9589,5.0402,5.0953,5.1244,5.1379,5.1385,5.1394,5.1394,5.1382,5.1394,5.1394,5.1379,5.1394,5.1394,5.1398,5.1398,5.1394,5.14,5.1385,5.1386,5.1384,5.1398,5.14,5.1366,5.1352,5.1351,5.1343,5.1369,5.1372,5.14,5.1398,5.1398,5.1398,5.1402,5.1402,5.1385,5.1386,5.1386,5.1386,5.1386,5.1387,5.1386,5.1385,5.1501,5.1831,5.2671,5.3431,5.4052,5.4752,5.525,5.5889,5.648,5.6499,5.6499,5.6499,5.6499,5.6499,5.6499,5.6494,5.6489,5.6491,5.6498,5.6496,5.6483,5.6492,5.6488,5.6496,5.6498,5.6485,5.6494,5.6484,5.6497,5.6497,5.6485,5.6491,5.6491,5.6485,5.6491,5.6494,5.6499,5.6499,5.6499,5.6499,5.6504,5.6499,5.6489,5.6481,5.6495,5.65,5.6483,5.6484,5.6503,5.6523,5.6558,5.6538,5.6539,5.6536,5.6532,5.6538,4.1732,4.224,4.1596,4.1283,4.1361,4.2064,4.2923,4.3782,4.4621,4.5402,4.6027,4.6222,4.628,4.6593,4.7217,4.8076,4.8974,4.9957,5.0621,5.1206,5.1379,5.1394,5.1394,5.1394,5.1394,5.1394,5.1394,5.1394,5.1394,5.1394,5.1394,5.1394,5.1398,5.1389,5.14,5.1384,5.1386,5.1387,5.1386,5.1386,5.1384,5.1402,5.1402,5.14,5.1402,5.1384,5.1384,5.1384,5.1385,5.1386,5.1386,5.1385,5.1402,5.1394,5.1389,5.1391,5.1398,5.1402,5.1385,5.1406,5.2051,5.2811,5.3512,5.4235,5.4977,5.5661,5.6325,5.6479,5.6499,5.6495,5.6493,5.6493,5.6493,5.6493,5.649,5.6488,5.6493,5.6494,5.6491,5.6496,5.6484,5.6485,5.6497,5.6494,5.6489,5.649,5.6495,5.6495,5.6493,5.6481,5.6497,5.6484,5.6484,5.649,5.6493,5.649,5.6507,5.6488,5.6488,5.6515,5.6518,5.6499,5.652,5.6542,5.6523,5.6521,5.6536,5.6554,5.6582,5.6595,5.6579,5.6566,5.6582,5.6579,5.6591,4.224,4.2376,4.2201,4.2142,4.2158,4.2354,4.2903,4.3762,4.4618,4.5129,4.5476,4.6046,4.63,4.6358,4.7217,4.7998,4.8681,4.956,5.0535,5.1277,5.1355,5.1375,5.1394,5.1394,5.1394,5.1394,5.1394,5.1394,5.1394,5.1394,5.1394,5.1394,5.1394,5.1398,5.1398,5.1385,5.1391,5.1398,5.1396,5.1396,5.14,5.1402,5.1386,5.1385,5.1398,5.1394,5.1389,5.1391,5.1389,5.1389,5.1389,5.1389,5.1385,5.1402,5.1394,5.1394,5.1385,5.1389,5.1394,5.1396,5.2006,5.339,5.4093,5.4677,5.5419,5.618,5.6554,5.6538,5.6541,5.6521,5.652,5.652,5.652,5.652,5.6518,5.6497,5.6493,5.6488,5.6481,5.6493,5.6493,5.6481,5.6484,5.649,5.651,5.652,5.6502,5.6502,5.6502,5.6502,5.65,5.6503,5.6504,5.6481,5.6497,5.65,5.6518,5.65,5.6503,5.6543,5.6541,5.6521,5.6539,5.6558,5.6571,5.6582,5.6591,5.6595,5.6591,5.661,5.6606,5.661,5.6606,5.6606,5.6606]},{"header":{"parameterUnit":"m.s-1","parameterCategory":1,"la1":31.0,"la2":29.5877,"lo1":-88.7671,"lo2":-86.6584,"dy":0.0162,"dx":0.0185,"nx":115,"ny":88,"refTime":"2024-03-15T00:00:00:Z","depth":0,"parameterNumber":3,"parameterNumberName":"V-component_of_WINDS"},"data":[0.0,0.0,0.0,0.0,0.0,0.0,0.0,0.0,0.0,0.0,0.0,0.0,0.0,0.0,0.0,0.0,0.0,0.0,0.0,0.0,0.0,0.0,0.0,0.0,0.0,0.0,0.0,0.0,0.0,0.0,0.0,0.0,0.0,0.0,0.0,0.0,0.0,0.0,0.0,0.0,0.0,0.0,0.0,0.0,0.0,0.0,0.0,0.0,0.0,0.0,0.0,0.0,0.0,0.0,0.0,0.0,0.0,0.0,0.0,0.0,0.0,0.0,0.0,0.0,0.0,0.0,0.0,0.0,0.0,0.0,0.0,0.0,0.0,0.0,0.0,0.0,0.0,0.0,0.0,0.0,0.0,0.0,0.0,0.0,0.0,0.0,0.0,0.0,0.0,0.0,0.0,0.0,0.0,0.0,0.0,0.0,0.0,0.0,0.0,0.0,0.0,0.0,0.0,0.0,0.0,0.0,0.0,0.0,0.0,0.0,0.0,0.0,0.0,0.0,0.0,0.0,0.0,0.0,0.0,0.0,0.0,0.0,0.0,0.0,0.0,0.0,0.0,0.0,0.0,0.0,0.0,0.0,0.0,0.0,0.0,0.0,0.0,0.0,0.0,0.0,0.0,0.0,0.0,0.0,0.0,0.0,0.0,0.0,0.0,0.0,0.0,0.0,0.0,0.0,0.0,0.0,0.0,0.0,0.0,0.0,0.0,0.0,0.0,0.0,0.0,0.0,0.0,0.0,0.0,0.0,0.0,0.0,0.0,0.0,0.0,0.0,0.0,0.0,0.0,0.0,0.0,0.0,0.0,0.0,0.0,0.0,0.0,0.0,0.0,0.0,0.0,0.0,0.0,0.0,0.0,0.0,0.0,0.0,0.0,0.0,0.0,0.0,0.0,0.0,0.0,0.0,0.0,0.0,0.0,0.0,0.0,0.0,0.0,0.0,0.0,0.0,0.0,0.0,0.0,0.0,0.0,0.0,0.0,0.0,0.0,0.0,0.0,0.0,0.0,0.0,0.0,0.0,0.0,0.0,0.0,0.0,0.0,0.0,0.0,0.0,0.0,0.0,0.0,0.0,0.0,0.0,0.0,0.0,0.0,0.0,0.0,0.0,0.0,0.0,0.0,0.0,0.0,0.0,0.0,0.0,0.0,0.0,0.0,0.0,0.0,0.0,0.0,0.0,0.0,0.0,0.0,0.0,0.0,0.0,0.0,0.0,0.0,0.0,0.0,0.0,0.0,0.0,0.0,0.0,0.0,0.0,0.0,0.0,0.0,0.0,0.0,0.0,0.0,0.0,0.0,0.0,0.0,0.0,0.0,0.0,0.0,0.0,0.0,0.0,0.0,0.0,0.0,0.0,0.0,0.0,0.0,0.0,0.0,0.0,0.0,0.0,0.0,0.0,0.0,0.0,0.0,0.0,0.0,0.0,0.0,0.0,0.0,0.0,0.0,0.0,0.0,0.0,0.0,0.0,0.0,0.0,0.0,0.0,0.0,0.0,0.0,0.0,0.0,0.0,0.0,0.0,0.0,0.0,0.0,0.0,0.0,0.0,0.0,0.0,0.0,0.0,0.0,0.0,0.0,0.0,0.0,0.0,0.0,0.0,0.0,0.0,0.0,0.0,0.0,0.0,0.0,0.0,0.0,0.0,0.0,0.0,0.0,0.0,0.0,0.0,0.0,0.0,0.0,0.0,0.0,0.0,0.0,0.0,0.0,0.0,0.0,0.0,0.0,0.0,0.0,0.0,0.0,0.0,0.0,0.0,0.0,0.0,0.0,0.0,0.0,0.0,0.0,0.0,0.0,0.0,0.0,0.0,0.0,0.0,0.0,0.0,0.0,0.0,0.0,0.0,0.0,0.0,0.0,0.0,0.0,0.0,0.0,0.0,0.0,0.0,0.0,0.0,0.0,0.0,0.0,0.0,0.0,0.0,0.0,0.0,0.0,0.0,0.0,0.0,0.0,0.0,0.0,0.0,0.0,0.0,0.0,0.0,0.0,0.0,0.0,0.0,0.0,0.0,0.0,0.0,0.0,0.0,0.0,0.0,0.0,0.0,0.0,0.0,0.0,0.0,0.0,0.0,0.0,0.0,0.0,0.0,0.0,0.0,0.0,0.0,0.0,0.0,0.0,0.0,0.0,0.0,0.0,0.0,0.0,0.0,0.0,0.0,0.0,0.0,0.0,0.0,0.0,0.0,0.0,0.0,0.0,0.0,0.0,0.0,0.0,0.0,0.0,0.0,0.0,0.0,0.0,0.0,0.0,0.0,0.0,0.0,0.0,0.0,0.0,0.0,0.0,0.0,0.0,0.0,0.0,0.0,0.0,0.0,0.0,0.0,0.0,0.0,0.0,0.0,0.0,0.0,0.0,0.0,0.0,0.0,0.0,0.0,0.0,0.0,0.0,0.0,0.0,0.0,0.0,0.0,0.0,0.0,0.0,0.0,0.0,0.0,0.0,0.0,0.0,0.0,0.0,0.0,0.0,0.0,0.0,0.0,0.0,0.0,0.0,0.0,0.0,0.0,0.0,0.0,0.0,0.0,0.0,0.0,0.0,0.0,0.0,0.0,0.0,0.0,0.0,0.0,0.0,0.0,0.0,0.0,0.0,0.0,0.0,0.0,0.0,0.0,0.0,0.0,0.0,0.0,0.0,0.0,0.0,0.0,0.0,0.0,0.0,0.0,0.0,0.0,0.0,0.0,0.0,0.0,0.0,0.0,0.0,0.0,0.0,0.0,0.0,0.0,0.0,0.0,0.0,0.0,0.0,0.0,0.0,0.0,0.0,0.0,0.0,0.0,0.0,0.0,0.0,0.0,0.0,0.0,0.0,0.0,0.0,0.0,0.0,0.0,0.0,0.0,0.0,0.0,0.0,0.0,0.0,0.0,0.0,0.0,0.0,0.0,0.0,0.0,0.0,0.0,0.0,0.0,0.0,0.0,0.0,0.0,0.0,0.0,0.0,0.0,0.0,0.0,0.0,0.0,0.0,0.0,0.0,0.0,0.0,0.0,0.0,0.0,0.0,0.0,0.0,0.0,0.0,0.0,0.0,0.0,0.0,0.0,0.0,0.0,0.0,0.0,0.0,0.0,0.0,0.0,0.0,0.0,0.0,0.0,0.0,0.0,0.0,0.0,0.0,0.0,0.0,0.0,0.0,0.0,0.0,0.0,0.0,0.0,0.0,0.0,0.0,0.0,0.0,0.0,0.0,0.0,0.0,0.0,0.0,0.0,0.0,0.0,0.0,0.0,0.0,0.0,0.0,0.0,0.0,0.0,0.0,0.0,0.0,0.0,0.0,0.0,0.0,0.0,0.0,0.0,0.0,0.0,0.0,0.0,0.0,0.0,0.0,0.0,0.0,0.0,0.0,0.0,0.0,0.0,0.0,0.0,0.0,0.0,0.0,0.0,0.0,0.0,0.0,0.0,0.0,0.0,0.0,0.0,0.0,0.0,0.0,0.0,0.0,0.0,0.0,0.0,0.0,0.0,0.0,0.0,0.0,0.0,0.0,0.0,0.0,0.0,0.0,0.0,0.0,0.0,0.0,0.0,0.0,0.0,0.0,0.0,0.0,0.0,0.0,0.0,0.0,0.0,0.0,0.0,0.0,0.0,0.0,0.0,0.0,0.0,0.0,0.0,0.0,0.0,0.0,0.0,0.0,0.0,0.0,0.0,0.0,0.0,0.0,0.0,0.0,0.0,0.0,0.0,0.0,0.0,0.0,0.0,0.0,0.0,0.0,0.0,0.0,0.0,0.0,0.0,0.0,0.0,0.0,0.0,0.0,0.0,0.0,0.0,0.0,0.0,0.0,0.0,0.0,0.0,0.0,0.0,0.0,0.0,0.0,0.0,0.0,0.0,0.0,0.0,0.0,0.0,0.0,0.0,0.0,0.0,0.0,0.0,0.0,0.0,0.0,0.0,0.0,0.0,0.0,0.0,0.0,0.0,0.0,0.0,0.0,0.0,0.0,0.0,0.0,0.0,0.0,0.0,0.0,0.0,0.0,0.0,0.0,0.0,0.0,0.0,0.0,0.0,0.0,0.0,0.0,0.0,0.0,0.0,0.0,0.0,0.0,0.0,0.0,0.0,0.0,0.0,0.0,0.0,0.0,0.0,0.0,0.0,0.0,0.0,0.0,0.0,0.0,0.0,0.0,0.0,0.0,0.0,0.0,0.0,0.0,0.0,0.0,0.0,0.0,0.0,0.0,0.0,0.0,0.0,0.0,0.0,0.0,0.0,0.0,0.0,0.0,0.0,0.0,0.0,-1.3156,0.0,0.0,0.0,0.0,0.0,0.0,0.0,0.0,0.0,0.0,0.0,0.0,0.0,0.0,0.0,0.0,0.0,0.0,0.0,0.0,0.0,0.0,0.0,0.0,0.0,0.0,0.0,0.0,0.0,0.0,0.0,0.0,0.0,0.0,0.0,0.0,0.0,0.0,0.0,0.0,0.0,0.0,0.0,0.0,0.0,0.0,0.0,0.0,0.0,0.0,0.0,0.0,0.0,0.0,0.0,0.0,0.0,0.0,0.0,0.0,0.0,0.0,0.0,0.0,0.0,0.0,0.0,0.0,0.0,0.0,0.0,0.0,0.0,0.0,0.0,0.0,0.0,0.0,0.0,0.0,0.0,0.0,0.0,0.0,0.0,0.0,0.0,0.0,0.0,0.0,0.0,0.0,0.0,0.0,0.0,0.0,0.0,0.0,0.0,0.0,0.0,0.0,0.0,0.0,0.0,0.0,0.0,0.0,0.0,0.0,-1.3034,-1.294,-1.2961,-1.2961,-1.2904,0.0,0.0,0.0,0.0,0.0,0.0,0.0,0.0,0.0,0.0,0.0,0.0,0.0,0.0,0.0,0.0,0.0,0.0,0.0,0.0,0.0,0.0,0.0,0.0,0.0,0.0,0.0,0.0,0.0,0.0,0.0,0.0,0.0,0.0,0.0,0.0,0.0,0.0,0.0,0.0,0.0,0.0,0.0,0.0,0.0,0.0,0.0,0.0,0.0,0.0,0.0,0.0,0.0,0.0,0.0,0.0,0.0,0.0,0.0,0.0,0.0,0.0,0.0,0.0,0.0,0.0,0.0,0.0,0.0,0.0,0.0,0.0,0.0,0.0,0.0,0.0,0.0,0.0,0.0,0.0,0.0,0.0,0.0,0.0,0.0,0.0,0.0,0.0,0.0,0.0,0.0,0.0,0.0,0.0,0.0,0.0,0.0,0.0,0.0,0.0,0.0,0.0,0.0,0.0,0.0,0.0,0.0,0.0,0.0,0.0,0.0,0.0,-1.27,-1.2697,-1.2626,0.0,0.0,0.0,0.0,0.0,0.0,0.0,0.0,0.0,0.0,0.0,0.0,0.0,0.0,0.0,0.0,0.0,0.0,0.0,0.0,0.0,0.0,0.0,0.0,0.0,0.0,0.0,0.0,0.0,0.0,0.0,0.0,0.0,0.0,0.0,0.0,0.0,0.0,0.0,0.0,0.0,0.0,0.0,0.0,0.0,0.0,0.0,0.0,0.0,0.0,0.0,0.0,0.0,0.0,0.0,0.0,0.0,0.0,0.0,0.0,0.0,0.0,0.0,0.0,0.0,0.0,0.0,0.0,0.0,0.0,0.0,0.0,0.0,0.0,0.0,0.0,0.0,0.0,0.0,0.0,0.0,0.0,0.0,0.0,0.0,0.0,0.0,0.0,0.0,0.0,0.0,0.0,0.0,0.0,0.0,0.0,0.0,0.0,0.0,0.0,0.0,0.0,0.0,0.0,0.0,0.0,0.0,0.0,0.0,0.0,-1.2549,-1.2363,-1.2403,0.0,-1.2423,0.0,0.0,0.0,0.0,0.0,0.0,0.0,0.0,0.0,0.0,0.0,0.0,0.0,0.0,0.0,0.0,0.0,0.0,0.0,0.0,0.0,0.0,0.0,0.0,0.0,0.0,0.0,0.0,0.0,0.0,0.0,0.0,0.0,0.0,0.0,0.0,0.0,0.0,0.0,0.0,0.0,0.0,0.0,0.0,0.0,0.0,0.0,0.0,0.0,0.0,0.0,0.0,0.0,0.0,0.0,0.0,0.0,0.0,0.0,0.0,0.0,0.0,0.0,0.0,0.0,0.0,0.0,0.0,0.0,0.0,0.0,0.0,0.0,0.0,0.0,0.0,0.0,0.0,0.0,0.0,0.0,0.0,0.0,0.0,0.0,0.0,0.0,0.0,0.0,0.0,0.0,0.0,0.0,0.0,0.0,0.0,0.0,0.0,0.0,0.0,0.0,0.0,0.0,0.0,0.0,0.0,0.0,0.0,0.0,0.0,-1.2251,-1.2138,-1.2102,-1.2102,0.0,0.0,0.0,0.0,0.0,0.0,0.0,0.0,0.0,0.0,0.0,0.0,0.0,0.0,0.0,0.0,0.0,0.0,0.0,0.0,0.0,0.0,0.0,0.0,0.0,0.0,0.0,0.0,0.0,0.0,0.0,0.0,0.0,0.0,0.0,0.0,0.0,0.0,0.0,0.0,0.0,0.0,0.0,0.0,0.0,0.0,0.0,0.0,0.0,0.0,0.0,0.0,0.0,0.0,0.0,0.0,0.0,0.0,0.0,0.0,0.0,0.0,0.0,0.0,0.0,0.0,0.0,0.0,0.0,0.0,0.0,0.0,0.0,0.0,0.0,0.0,0.0,0.0,0.0,0.0,0.0,0.0,0.0,0.0,0.0,0.0,0.0,0.0,0.0,0.0,0.0,0.0,0.0,0.0,0.0,0.0,0.0,0.0,0.0,0.0,0.0,0.0,0.0,0.0,0.0,0.0,0.0,0.0,0.0,0.0,-1.2045,-1.194,-1.1841,-1.1798,-1.1798,-1.1863,0.0,0.0,0.0,0.0,0.0,0.0,0.0,0.0,0.0,0.0,0.0,0.0,0.0,0.0,0.0,0.0,0.0,0.0,0.0,0.0,0.0,0.0,0.0,0.0,0.0,0.0,0.0,0.0,0.0,0.0,0.0,0.0,0.0,0.0,0.0,0.0,0.0,0.0,0.0,0.0,0.0,0.0,0.0,0.0,0.0,0.0,0.0,0.0,0.0,0.0,0.0,0.0,0.0,0.0,0.0,0.0,0.0,0.0,0.0,0.0,0.0,0.0,0.0,0.0,0.0,0.0,0.0,0.0,0.0,0.0,0.0,0.0,0.0,0.0,0.0,0.0,0.0,0.0,0.0,0.0,0.0,0.0,0.0,0.0,0.0,0.0,0.0,0.0,0.0,0.0,0.0,0.0,0.0,0.0,0.0,0.0,0.0,0.0,0.0,0.0,0.0,0.0,0.0,0.0,0.0,0.0,0.0,0.0,-1.1927,-1.1798,-1.163,-1.1458,-1.1421,-1.1444,0.0,0.0,0.0,0.0,0.0,0.0,0.0,0.0,0.0,0.0,0.0,0.0,0.0,0.0,0.0,0.0,0.0,0.0,0.0,0.0,0.0,0.0,0.0,0.0,0.0,0.0,0.0,0.0,0.0,0.0,0.0,0.0,0.0,0.0,0.0,0.0,0.0,0.0,0.0,0.0,0.0,0.0,0.0,0.0,0.0,0.0,0.0,0.0,0.0,0.0,0.0,0.0,0.0,0.0,0.0,0.0,0.0,0.0,0.0,0.0,0.0,0.0,0.0,0.0,0.0,0.0,0.0,0.0,0.0,0.0,0.0,0.0,0.0,0.0,0.0,0.0,0.0,0.0,0.0,0.0,0.0,0.0,0.0,0.0,0.0,0.0,0.0,0.0,0.0,0.0,0.0,0.0,0.0,0.0,0.0,0.0,0.0,0.0,0.0,0.0,0.0,0.0,0.0,0.0,0.0,0.0,0.0,0.0,0.0,-1.222,-1.2341,-1.2184,-1.1668,-1.1654,-1.1496,0.0,0.0,0.0,0.0,0.0,0.0,0.0,0.0,0.0,0.0,0.0,0.0,0.0,0.0,0.0,0.0,0.0,0.0,0.0,0.0,0.0,0.0,0.0,0.0,0.0,0.0,0.0,0.0,0.0,0.0,0.0,0.0,0.0,0.0,0.0,0.0,0.0,0.0,0.0,0.0,0.0,0.0,0.0,0.0,0.0,0.0,0.0,0.0,0.0,0.0,0.0,0.0,0.0,0.0,0.0,0.0,0.0,0.0,0.0,0.0,0.0,0.0,0.0,0.0,0.0,0.0,0.0,0.0,0.0,0.0,0.0,0.0,0.0,0.0,0.0,0.0,0.0,0.0,0.0,0.0,0.0,0.0,0.0,0.0,0.0,0.0,0.0,0.0,0.0,0.0,0.0,0.0,0.0,0.0,0.0,0.0,0.0,0.0,0.0,0.0,0.0,0.0,0.0,0.0,0.0,0.0,0.0,0.0,0.0,-1.2354,0.0,-1.2278,-1.179,-1.1804,-1.1575,0.0,0.0,0.0,0.0,0.0,0.0,0.0,0.0,0.0,0.0,0.0,0.0,0.0,0.0,0.0,0.0,0.0,0.0,0.0,0.0,0.0,0.0,0.0,0.0,0.0,0.0,0.0,0.0,0.0,0.0,0.0,0.0,0.0,0.0,0.0,0.0,0.0,0.0,0.0,0.0,0.0,0.0,0.0,0.0,0.0,0.0,0.0,0.0,0.0,0.0,0.0,0.0,0.0,0.0,0.0,0.0,0.0,0.0,0.0,0.0,0.0,0.0,0.0,0.0,0.0,0.0,0.0,0.0,0.0,0.0,0.0,0.0,0.0,0.0,0.0,0.0,0.0,0.0,0.0,0.0,0.0,0.0,0.0,0.0,0.0,0.0,0.0,0.0,0.0,0.0,0.0,0.0,0.0,0.0,0.0,0.0,0.0,0.0,0.0,0.0,0.0,0.0,0.0,0.0,0.0,0.0,0.0,0.0,-1.2333,-1.2285,-1.2063,-1.1882,-1.1738,-1.1844,-1.1661,0.0,0.0,0.0,0.0,0.0,0.0,0.0,0.0,0.0,0.0,0.0,0.0,0.0,0.0,0.0,0.0,0.0,0.0,0.0,0.0,0.0,0.0,0.0,0.0,0.0,0.0,0.0,0.0,0.0,0.0,0.0,0.0,0.0,0.0,0.0,0.0,0.0,0.0,0.0,0.0,0.0,0.0,0.0,0.0,0.0,0.0,0.0,0.0,0.0,0.0,0.0,0.0,0.0,0.0,0.0,0.0,0.0,0.0,0.0,0.0,0.0,0.0,0.0,0.0,0.0,0.0,0.0,0.0,0.0,0.0,0.0,0.0,0.0,0.0,0.0,0.0,0.0,0.0,0.0,0.0,0.0,0.0,0.0,0.0,0.0,0.0,0.0,0.0,0.0,0.0,0.0,0.0,0.0,0.0,0.0,0.0,0.0,0.0,0.0,0.0,0.0,0.0,0.0,0.0,0.0,0.0,0.0,0.0,0.0,-1.2458,-1.2608,-1.2484,-1.1994,-1.1925,-1.1709,0.0,0.0,0.0,0.0,0.0,0.0,0.0,0.0,0.0,0.0,0.0,0.0,0.0,0.0,0.0,0.0,0.0,0.0,0.0,0.0,0.0,0.0,0.0,0.0,0.0,0.0,0.0,0.0,0.0,0.0,0.0,0.0,0.0,0.0,0.0,0.0,0.0,0.0,0.0,0.0,0.0,0.0,0.0,0.0,0.0,0.0,0.0,0.0,0.0,0.0,0.0,0.0,0.0,0.0,0.0,0.0,0.0,0.0,0.0,0.0,0.0,0.0,0.0,0.0,0.0,0.0,0.0,0.0,0.0,0.0,0.0,0.0,0.0,0.0,0.0,0.0,0.0,0.0,0.0,0.0,0.0,0.0,0.0,0.0,0.0,0.0,0.0,0.0,0.0,0.0,0.0,0.0,0.0,0.0,0.0,0.0,0.0,0.0,0.0,0.0,0.0,0.0,0.0,0.0,0.0,0.0,0.0,0.0,0.0,-1.2971,-1.3047,-1.2876,-1.2364,-1.2328,-1.2013,-1.1443,0.0,0.0,0.0,0.0,0.0,0.0,0.0,0.0,0.0,0.0,0.0,0.0,0.0,0.0,0.0,0.0,0.0,0.0,0.0,0.0,0.0,0.0,0.0,0.0,0.0,0.0,0.0,0.0,0.0,0.0,0.0,0.0,0.0,0.0,0.0,0.0,0.0,0.0,0.0,0.0,0.0,0.0,0.0,0.0,0.0,0.0,0.0,0.0,0.0,0.0,0.0,0.0,0.0,0.0,0.0,0.0,0.0,0.0,0.0,0.0,0.0,0.0,0.0,0.0,0.0,0.0,0.0,0.0,0.0,0.0,0.0,0.0,0.0,0.0,0.0,0.0,0.0,0.0,0.0,0.0,0.0,0.0,0.0,0.0,0.0,0.0,0.0,0.0,0.0,0.0,0.0,0.0,0.0,0.0,0.0,0.0,0.0,0.0,0.0,0.0,0.0,0.0,0.0,0.0,0.0,0.0,0.0,0.0,-1.3696,-1.3345,-1.3083,-1.2891,-1.292,-1.2502,0.0,0.0,0.0,0.0,0.0,0.0,0.0,0.0,0.0,0.0,0.0,0.0,0.0,0.0,0.0,0.0,0.0,0.0,0.0,0.0,0.0,0.0,0.0,0.0,0.0,0.0,0.0,0.0,0.0,0.0,0.0,0.0,0.0,0.0,0.0,0.0,0.0,0.0,0.0,0.0,0.0,0.0,0.0,0.0,0.0,0.0,0.0,0.0,0.0,0.0,0.0,0.0,0.0,0.0,0.0,0.0,0.0,0.0,0.0,0.0,0.0,0.0,0.0,0.0,0.0,0.0,0.0,0.0,0.0,0.0,0.0,0.0,0.0,0.0,0.0,0.0,0.0,0.0,0.0,0.0,0.0,0.0,0.0,0.0,0.0,0.0,0.0,0.0,0.0,0.0,0.0,0.0,0.0,0.0,0.0,0.0,0.0,0.0,0.0,0.0,0.0,0.0,0.0,0.0,0.0,0.0,0.0,0.0,0.0,-1.3447,-1.3948,-1.4018,-1.3672,-1.2859,-1.2403,0.0,0.0,0.0,0.0,0.0,0.0,0.0,0.0,0.0,0.0,0.0,0.0,0.0,0.0,0.0,0.0,0.0,0.0,0.0,0.0,0.0,0.0,0.0,0.0,0.0,0.0,0.0,0.0,0.0,0.0,0.0,0.0,0.0,0.0,0.0,0.0,0.0,0.0,0.0,0.0,0.0,0.0,0.0,0.0,0.0,0.0,0.0,0.0,0.0,0.0,0.0,0.0,0.0,0.0,0.0,0.0,0.0,0.0,0.0,0.0,0.0,0.0,0.0,0.0,0.0,0.0,0.0,0.0,0.0,0.0,0.0,0.0,0.0,0.0,0.0,0.0,0.0,0.0,0.0,0.0,0.0,0.0,0.0,0.0,0.0,0.0,0.0,0.0,0.0,0.0,0.0,0.0,0.0,0.0,0.0,0.0,0.0,0.0,0.0,0.0,0.0,0.0,0.0,0.0,0.0,0.0,0.0,0.0,-1.3871,-1.3772,-1.4493,-1.475,-1.4501,-1.3155,-1.246,0.0,0.0,0.0,0.0,0.0,0.0,0.0,0.0,0.0,0.0,0.0,0.0,0.0,0.0,0.0,0.0,0.0,0.0,0.0,0.0,0.0,0.0,0.0,0.0,0.0,0.0,0.0,0.0,0.0,0.0,0.0,0.0,0.0,0.0,0.0,0.0,0.0,0.0,0.0,0.0,0.0,0.0,0.0,0.0,0.0,0.0,0.0,0.0,0.0,0.0,0.0,0.0,0.0,0.0,0.0,0.0,0.0,0.0,0.0,0.0,0.0,0.0,0.0,0.0,0.0,0.0,0.0,0.0,0.0,0.0,0.0,0.0,0.0,0.0,0.0,0.0,0.0,0.0,0.0,0.0,0.0,0.0,0.0,0.0,0.0,0.0,0.0,0.0,0.0,0.0,0.0,0.0,0.0,0.0,0.0,0.0,0.0,0.0,0.0,0.0,0.0,0.0,0.0,0.0,0.0,0.0,0.0,0.0,-1.4174,-1.4305,-1.4867,-1.5177,-1.5061,-1.3594,-1.2632,0.0,0.0,0.0,0.0,0.0,0.0,0.0,0.0,0.0,0.0,0.0,0.0,0.0,0.0,0.0,0.0,0.0,0.0,0.0,0.0,0.0,0.0,0.0,0.0,0.0,0.0,0.0,0.0,0.0,0.0,0.0,0.0,0.0,0.0,0.0,0.0,0.0,0.0,0.0,0.0,0.0,0.0,0.0,0.0,0.0,0.0,0.0,0.0,0.0,0.0,0.0,0.0,0.0,0.0,0.0,0.0,0.0,0.0,0.0,0.0,0.0,0.0,0.0,0.0,0.0,0.0,0.0,0.0,0.0,0.0,0.0,0.0,0.0,0.0,0.0,0.0,0.0,0.0,0.0,0.0,0.0,0.0,0.0,0.0,0.0,0.0,0.0,0.0,0.0,0.0,0.0,0.0,0.0,0.0,0.0,0.0,0.0,0.0,0.0,0.0,0.0,0.0,0.0,0.0,0.0,0.0,0.0,0.0,-1.3885,-1.3869,-1.4743,-1.501,-1.4675,-1.328,-1.2609,0.0,0.0,0.0,0.0,0.0,0.0,0.0,0.0,0.0,0.0,0.0,0.0,0.0,0.0,0.0,0.0,0.0,0.0,0.0,0.0,0.0,0.0,0.0,0.0,0.0,0.0,0.0,0.0,0.0,0.0,0.0,0.0,0.0,0.0,0.0,0.0,0.0,0.0,0.0,0.0,0.0,0.0,0.0,0.0,0.0,0.0,0.0,0.0,-1.0184,0.0,0.0,0.0,0.0,0.0,0.0,0.0,0.0,0.0,0.0,0.0,0.0,0.0,0.0,0.0,0.0,0.0,0.0,0.0,0.0,0.0,0.0,0.0,0.0,0.0,0.0,0.0,0.0,0.0,0.0,0.0,0.0,0.0,0.0,0.0,0.0,0.0,0.0,0.0,0.0,0.0,0.0,0.0,0.0,0.0,0.0,0.0,0.0,0.0,0.0,0.0,0.0,0.0,0.0,0.0,0.0,0.0,0.0,0.0,-1.4113,-1.4563,-1.5147,-1.5293,-1.5019,-1.3877,-1.3039,0.0,0.0,0.0,0.0,0.0,0.0,0.0,0.0,0.0,0.0,0.0,0.0,0.0,0.0,0.0,0.0,0.0,0.0,0.0,0.0,0.0,0.0,0.0,0.0,0.0,0.0,0.0,0.0,0.0,0.0,0.0,0.0,0.0,0.0,0.0,0.0,0.0,0.0,0.0,0.0,0.0,0.0,0.0,0.0,0.0,0.0,0.0,0.0,0.0,0.0,0.0,0.0,0.0,0.0,0.0,0.0,0.0,0.0,0.0,0.0,0.0,0.0,0.0,0.0,0.0,0.0,0.0,0.0,0.0,0.0,0.0,0.0,0.0,0.0,0.0,0.0,0.0,0.0,0.0,0.0,0.0,0.0,0.0,0.0,0.0,0.0,0.0,0.0,0.0,0.0,0.0,0.0,0.0,0.0,0.0,0.0,0.0,0.0,0.0,0.0,0.0,0.0,0.0,0.0,0.0,0.0,0.0,-1.3876,-1.4514,-1.5519,-1.5642,-1.5689,-1.567,-1.463,-1.3606,-1.2584,0.0,0.0,0.0,0.0,0.0,0.0,0.0,0.0,0.0,0.0,0.0,0.0,0.0,0.0,0.0,0.0,0.0,0.0,0.0,0.0,0.0,0.0,0.0,0.0,0.0,0.0,0.0,0.0,0.0,0.0,0.0,0.0,0.0,0.0,0.0,0.0,0.0,0.0,-1.0054,-1.0625,0.0,0.0,0.0,0.0,0.0,0.0,0.0,0.0,-0.9906,0.0,0.0,0.0,0.0,0.0,0.0,0.0,0.0,0.0,0.0,0.0,0.0,0.0,0.0,0.0,0.0,0.0,0.0,0.0,0.0,0.0,0.0,0.0,0.0,0.0,0.0,0.0,0.0,0.0,0.0,0.0,0.0,0.0,0.0,0.0,0.0,0.0,0.0,0.0,0.0,0.0,0.0,0.0,0.0,0.0,0.0,0.0,0.0,0.0,0.0,0.0,0.0,0.0,0.0,0.0,0.0,-1.3561,-1.3824,-1.4478,-1.5606,-1.5652,-1.5689,-1.567,-1.4854,-1.3884,-1.2772,0.0,0.0,0.0,0.0,0.0,0.0,0.0,0.0,0.0,0.0,0.0,0.0,0.0,0.0,0.0,0.0,0.0,0.0,0.0,0.0,0.0,0.0,0.0,0.0,0.0,0.0,0.0,0.0,0.0,0.0,0.0,0.0,0.0,0.0,0.0,0.0,0.0,0.0,0.0,-1.0567,-1.039,0.0,0.0,0.0,0.0,0.0,0.0,0.0,0.0,-1.0075,0.0,0.0,0.0,0.0,0.0,0.0,0.0,0.0,0.0,0.0,0.0,0.0,0.0,0.0,0.0,0.0,0.0,0.0,0.0,0.0,0.0,0.0,0.0,0.0,0.0,0.0,0.0,0.0,0.0,0.0,0.0,0.0,0.0,0.0,0.0,0.0,0.0,0.0,0.0,0.0,0.0,0.0,0.0,0.0,0.0,0.0,0.0,0.0,0.0,0.0,0.0,0.0,0.0,0.0,0.0,-1.4155,-1.4735,-1.542,-1.6266,-1.6312,-1.6254,-1.6026,-1.5151,-1.4223,0.0,0.0,0.0,0.0,0.0,0.0,0.0,0.0,0.0,0.0,0.0,0.0,0.0,0.0,0.0,0.0,0.0,0.0,0.0,0.0,0.0,0.0,0.0,0.0,0.0,0.0,0.0,0.0,0.0,0.0,0.0,0.0,0.0,0.0,0.0,0.0,0.0,0.0,0.0,0.0,-1.0695,-1.0572,-1.0474,0.0,0.0,0.0,0.0,0.0,0.0,-1.0674,-1.0474,0.0,0.0,0.0,0.0,0.0,0.0,0.0,0.0,0.0,0.0,0.0,0.0,0.0,0.0,0.0,0.0,0.0,0.0,0.0,0.0,0.0,0.0,0.0,0.0,0.0,0.0,0.0,0.0,0.0,0.0,0.0,0.0,0.0,0.0,0.0,0.0,0.0,0.0,0.0,0.0,0.0,0.0,0.0,0.0,0.0,0.0,0.0,0.0,0.0,0.0,0.0,0.0,0.0,0.0,0.0,-1.47,-1.5628,-1.6356,-1.6862,-1.6908,-1.6769,-1.6394,-1.533,-1.4394,0.0,0.0,0.0,0.0,0.0,0.0,0.0,0.0,0.0,0.0,0.0,0.0,0.0,0.0,0.0,0.0,0.0,0.0,0.0,0.0,0.0,0.0,0.0,0.0,0.0,0.0,0.0,0.0,0.0,0.0,0.0,0.0,0.0,0.0,0.0,0.0,0.0,0.0,0.0,0.0,0.0,-1.0664,-1.0554,-1.0589,0.0,0.0,0.0,0.0,-1.0864,-1.1137,0.0,0.0,0.0,0.0,0.0,0.0,0.0,0.0,0.0,0.0,0.0,0.0,0.0,0.0,0.0,0.0,0.0,0.0,0.0,0.0,0.0,0.0,0.0,0.0,0.0,0.0,0.0,0.0,0.0,0.0,0.0,0.0,0.0,0.0,0.0,0.0,0.0,0.0,0.0,0.0,0.0,0.0,0.0,0.0,0.0,0.0,0.0,0.0,0.0,0.0,0.0,0.0,0.0,0.0,0.0,0.0,-1.4598,-1.5496,-1.6215,-1.6862,-1.6908,-1.6899,-1.6821,-1.526,-1.4182,0.0,0.0,0.0,0.0,0.0,0.0,0.0,0.0,0.0,0.0,0.0,0.0,0.0,0.0,0.0,0.0,0.0,0.0,0.0,0.0,0.0,0.0,0.0,0.0,0.0,0.0,0.0,0.0,0.0,0.0,0.0,0.0,0.0,0.0,0.0,0.0,0.0,0.0,0.0,0.0,0.0,-1.0079,-1.0325,-1.0355,-1.0371,0.0,0.0,0.0,-1.2011,-1.2311,0.0,0.0,0.0,0.0,0.0,0.0,0.0,0.0,0.0,0.0,0.0,0.0,0.0,0.0,0.0,0.0,0.0,0.0,0.0,0.0,0.0,0.0,0.0,0.0,0.0,0.0,0.0,0.0,0.0,0.0,0.0,0.0,0.0,0.0,0.0,0.0,0.0,0.0,0.0,0.0,0.0,0.0,0.0,0.0,0.0,0.0,0.0,0.0,0.0,0.0,0.0,0.0,0.0,0.0,0.0,-1.4188,-1.4984,-1.5963,-1.6619,-1.689,-1.6691,-1.6482,-1.6263,-1.4698,-1.3691,0.0,0.0,0.0,0.0,0.0,0.0,0.0,0.0,0.0,0.0,0.0,0.0,0.0,0.0,0.0,0.0,0.0,0.0,0.0,0.0,0.0,0.0,0.0,0.0,0.0,0.0,0.0,0.0,0.0,0.0,0.0,0.0,0.0,0.0,0.0,0.0,0.0,0.0,0.0,0.0,0.0,0.0,-1.0601,-1.0798,0.0,0.0,0.0,-1.2419,-1.2252,0.0,0.0,0.0,0.0,0.0,0.0,0.0,0.0,0.0,0.0,0.0,0.0,0.0,0.0,0.0,0.0,0.0,0.0,0.0,0.0,0.0,0.0,0.0,0.0,0.0,0.0,0.0,0.0,0.0,0.0,0.0,0.0,0.0,0.0,0.0,0.0,0.0,0.0,0.0,0.0,0.0,0.0,0.0,0.0,0.0,0.0,0.0,0.0,0.0,0.0,0.0,0.0,0.0,0.0,0.0,0.0,0.0,-1.5332,-1.6346,-1.6839,-1.676,-1.6551,-1.6263,-1.5807,-1.4405,0.0,0.0,0.0,0.0,0.0,0.0,0.0,0.0,0.0,0.0,0.0,0.0,0.0,0.0,0.0,0.0,0.0,0.0,0.0,0.0,0.0,0.0,0.0,0.0,0.0,0.0,0.0,-0.9084,0.0,0.0,0.0,0.0,0.0,0.0,0.0,0.0,0.0,0.0,0.0,0.0,0.0,0.0,-1.0843,-1.0788,-1.1052,-1.1326,0.0,0.0,-1.2735,-1.2594,-1.3364,-1.3473,0.0,0.0,0.0,0.0,0.0,0.0,0.0,0.0,0.0,0.0,0.0,0.0,0.0,0.0,0.0,0.0,0.0,0.0,0.0,0.0,0.0,0.0,0.0,0.0,0.0,0.0,0.0,0.0,0.0,0.0,0.0,0.0,0.0,0.0,0.0,0.0,0.0,0.0,0.0,0.0,0.0,0.0,0.0,0.0,0.0,0.0,0.0,0.0,0.0,0.0,0.0,0.0,0.0,0.0,0.0,-1.5352,-1.6346,-1.6691,-1.6351,-1.67,-1.6542,-1.5824,-1.4698,-1.383,0.0,0.0,0.0,0.0,0.0,0.0,0.0,0.0,0.0,0.0,0.0,0.0,0.0,0.0,0.0,0.0,0.0,0.0,0.0,0.0,0.0,0.0,0.0,0.0,0.0,0.0,0.0,0.0,0.0,0.0,0.0,0.0,0.0,0.0,0.0,0.0,0.0,0.0,0.0,0.0,0.0,-1.0478,-1.0577,-1.0788,-1.1122,0.0,0.0,-1.2848,-1.3441,-1.4085,-1.4088,-1.2706,0.0,0.0,0.0,0.0,0.0,0.0,0.0,0.0,0.0,0.0,0.0,0.0,0.0,0.0,0.0,0.0,0.0,0.0,0.0,0.0,0.0,0.0,0.0,0.0,0.0,0.0,0.0,0.0,0.0,0.0,0.0,0.0,0.0,0.0,0.0,0.0,0.0,0.0,0.0,0.0,0.0,0.0,0.0,0.0,0.0,0.0,0.0,0.0,0.0,0.0,0.0,0.0,0.0,-1.4582,-1.5147,-1.5876,-1.6263,-1.6272,-1.5982,-1.57,-1.5409,-1.4435,-1.3591,0.0,0.0,0.0,0.0,0.0,0.0,0.0,0.0,0.0,0.0,0.0,0.0,0.0,0.0,0.0,0.0,0.0,0.0,0.0,0.0,0.0,0.0,0.0,0.0,0.0,0.0,0.0,0.0,-1.125,-1.1438,-1.1058,0.0,0.0,0.0,0.0,0.0,0.0,0.0,0.0,0.0,0.0,-1.08,-1.1154,-1.1472,0.0,0.0,-1.3051,-1.3427,-1.3483,-1.3868,-1.369,-1.2227,-1.1966,0.0,0.0,0.0,0.0,0.0,0.0,0.0,0.0,0.0,0.0,0.0,0.0,0.0,0.0,0.0,0.0,0.0,0.0,0.0,0.0,0.0,0.0,0.0,0.0,0.0,0.0,0.0,0.0,0.0,0.0,0.0,0.0,0.0,0.0,0.0,0.0,0.0,0.0,0.0,0.0,0.0,0.0,0.0,0.0,0.0,0.0,0.0,0.0,0.0,0.0,0.0,0.0,-1.4599,-1.52,-1.5797,-1.6105,-1.6147,-1.5902,-1.5417,-1.4903,-1.438,-1.3717,0.0,0.0,0.0,0.0,0.0,0.0,0.0,0.0,0.0,0.0,0.0,0.0,0.0,0.0,0.0,0.0,0.0,0.0,0.0,0.0,0.0,0.0,0.0,0.0,0.0,0.0,0.0,0.0,-1.1403,-1.1453,-1.0727,0.0,0.0,0.0,0.0,0.0,0.0,0.0,0.0,0.0,0.0,-1.1451,-1.1579,-1.1888,-1.2291,-1.2855,-1.3187,-1.3421,-1.3305,-1.3475,-1.3192,-1.1888,0.0,0.0,0.0,0.0,0.0,0.0,0.0,0.0,0.0,0.0,0.0,0.0,0.0,0.0,0.0,0.0,0.0,0.0,0.0,0.0,0.0,0.0,0.0,0.0,0.0,0.0,0.0,0.0,0.0,0.0,0.0,0.0,0.0,0.0,0.0,0.0,0.0,0.0,0.0,0.0,0.0,0.0,0.0,0.0,0.0,0.0,0.0,0.0,0.0,0.0,0.0,0.0,0.0,0.0,-1.5463,-1.6276,-1.651,-1.583,-1.6457,-1.5912,-1.4194,-1.4601,-1.419,-1.2699,0.0,0.0,0.0,0.0,0.0,0.0,0.0,0.0,0.0,0.0,0.0,0.0,0.0,0.0,0.0,0.0,0.0,0.0,0.0,0.0,0.0,0.0,0.0,0.0,0.0,0.0,-0.9699,-1.0395,-1.0831,0.0,0.0,0.0,0.0,0.0,0.0,0.0,0.0,0.0,0.0,-1.1927,-1.2439,-1.1767,-1.1988,-1.2201,-1.2269,-1.2284,-1.251,-1.3027,-1.308,-1.2825,0.0,0.0,0.0,0.0,0.0,0.0,0.0,0.0,0.0,0.0,0.0,0.0,0.0,0.0,0.0,0.0,0.0,0.0,0.0,0.0,0.0,0.0,0.0,0.0,0.0,0.0,0.0,0.0,-1.1632,0.0,0.0,0.0,0.0,0.0,0.0,0.0,0.0,0.0,0.0,0.0,-1.1551,-1.1799,0.0,0.0,0.0,0.0,0.0,0.0,0.0,0.0,0.0,0.0,0.0,0.0,-1.4243,-1.4553,-1.4714,-1.4816,-1.4792,-1.4457,-1.397,-1.3331,-1.347,-1.3091,-1.2112,0.0,0.0,0.0,0.0,0.0,0.0,0.0,0.0,0.0,0.0,0.0,0.0,0.0,0.0,0.0,0.0,0.0,0.0,0.0,0.0,0.0,0.0,0.0,0.0,0.0,-1.0886,0.0,0.0,0.0,0.0,0.0,0.0,0.0,0.0,0.0,0.0,0.0,-1.1443,-1.16,-1.1663,-1.179,-1.1973,-1.2116,-1.2319,0.0,0.0,0.0,0.0,0.0,0.0,0.0,0.0,0.0,0.0,0.0,0.0,0.0,0.0,-0.9928,-0.9945,-0.9643,-0.9479,-0.9833,0.0,0.0,0.0,0.0,0.0,0.0,0.0,0.0,0.0,0.0,0.0,0.0,0.0,0.0,0.0,0.0,-1.2377,0.0,0.0,0.0,0.0,0.0,0.0,0.0,0.0,-1.2208,-1.2232,-1.212,-1.2223,-1.221,0.0,-1.2074,-1.1458,0.0,0.0,0.0,0.0,0.0,0.0,0.0,0.0,-1.3822,-1.4136,-1.4179,-1.4248,-1.4429,-1.3747,-1.3178,-1.2826,-1.2673,-1.2335,-1.1871,-1.1048,-1.0512,0.0,0.0,0.0,0.0,0.0,0.0,0.0,0.0,0.0,0.0,0.0,0.0,0.0,0.0,0.0,0.0,0.0,0.0,0.0,0.0,0.0,0.0,0.0,-1.0802,0.0,0.0,0.0,0.0,0.0,0.0,0.0,0.0,0.0,-1.0786,-1.136,-1.1806,-1.1869,-1.1782,-1.1795,-1.2121,0.0,0.0,0.0,0.0,0.0,0.0,0.0,-1.1875,-1.1351,-1.1152,-1.1022,-1.0824,-1.0769,-1.0827,-1.0821,0.0,0.0,-1.0319,-1.0032,-0.9977,-1.0288,-0.9843,-0.9588,-0.9779,-0.953,-0.9309,0.0,0.0,0.0,0.0,0.0,0.0,0.0,0.0,-1.2848,-1.2839,0.0,-1.2521,0.0,0.0,0.0,0.0,0.0,0.0,0.0,0.0,-1.3406,-1.3182,-1.2058,-1.1778,-1.1456,-1.1086,-1.143,-1.1333,-1.0862,-1.1409,0.0,0.0,0.0,0.0,0.0,0.0,-1.4022,-1.4253,-1.4643,-1.4776,-1.4649,-1.434,-1.3658,-1.2599,-1.215,-1.2003,-1.1977,-1.1327,-1.0974,-1.1005,-1.0428,0.0,0.0,0.0,0.0,0.0,0.0,0.0,0.0,0.0,0.0,0.0,0.0,0.0,0.0,0.0,0.0,0.0,0.0,0.0,0.0,-0.9843,0.0,0.0,0.0,0.0,0.0,0.0,0.0,0.0,0.0,0.0,-1.0287,-1.151,-1.2367,-1.1768,0.0,0.0,0.0,0.0,-1.2033,-1.1736,-1.1626,-1.1765,-1.2072,-1.2023,-1.1985,-1.2178,0.0,0.0,-1.1825,-1.1683,-1.1577,-1.1602,-1.1632,-1.1509,-1.0653,-1.0277,-1.0141,-1.0258,-1.0166,-1.0026,-1.002,-0.9909,-0.9808,-1.5076,0.0,0.0,0.0,0.0,-1.3537,-1.3557,-1.3597,-1.3556,-1.3497,-1.3538,-1.3482,0.0,0.0,0.0,0.0,0.0,0.0,-1.3534,-1.3716,-1.338,-1.3207,-1.3256,-1.277,-1.249,-1.2353,-1.2229,-1.1997,-1.1688,-1.2164,-1.2061,-1.1295,0.0,0.0,0.0,0.0,-1.3738,-1.4073,-1.408,-1.3878,-1.3388,-1.2921,-1.2285,-1.1558,-1.1409,-1.1335,-1.1335,-1.1187,-1.1,-1.0893,-1.0764,0.0,0.0,0.0,0.0,0.0,0.0,0.0,0.0,0.0,0.0,0.0,0.0,0.0,0.0,0.0,0.0,0.0,0.0,0.0,-1.0682,-1.0448,-1.0248,0.0,0.0,0.0,0.0,0.0,0.0,0.0,0.0,0.0,-1.0564,-1.1347,-1.1971,0.0,0.0,-1.1524,-1.1411,-1.1633,-1.1915,-1.2176,0.0,0.0,0.0,-1.2999,-1.2618,-1.2718,-1.2257,-1.1837,-1.1843,-1.1837,-1.1797,-1.1829,-1.1848,-1.1805,-1.153,-1.1163,-1.1075,-1.1307,-1.0924,-1.0621,-1.086,-1.0399,-1.0095,-1.4967,-1.4182,-1.4461,-1.4391,-1.4134,-1.4072,-1.4055,-1.4143,-1.4151,-1.4095,-1.4143,-1.4021,-1.401,-1.3993,-1.4013,0.0,0.0,0.0,-1.3915,-1.4331,-1.3585,-1.3449,-1.3745,-1.3178,-1.29,-1.2907,-1.2926,-1.2614,-1.2009,-1.262,-1.2548,-1.1818,0.0,0.0,-1.2677,-1.332,-1.3729,-1.3899,-1.3862,-1.3542,-1.3039,-1.2231,-1.1558,-1.126,-1.1111,-1.1117,-1.1117,-1.1117,-1.1034,-1.0932,-1.0931,-1.0698,0.0,0.0,0.0,0.0,0.0,0.0,0.0,0.0,0.0,0.0,0.0,-0.9437,0.0,0.0,0.0,0.0,-1.0494,-1.0885,-1.0944,-1.0656,0.0,0.0,0.0,0.0,0.0,0.0,0.0,-1.021,-1.073,-1.1002,-1.0889,-1.1472,-1.1866,-1.1641,-1.1369,-1.1391,-1.1794,0.0,-1.2393,-1.3049,-1.336,-1.366,-1.4134,-1.3935,-1.3796,-1.4015,-1.3695,-1.3358,-1.3218,-1.3254,-1.3086,-1.277,-1.2585,-1.2539,-1.2252,-1.1987,-1.1823,-1.1888,-1.1513,-1.1272,-1.1519,-1.1111,-1.0864,-1.4641,-1.4657,-1.5085,-1.4867,-1.4264,-1.4264,-1.4372,-1.4553,-1.4561,-1.4569,-1.4593,-1.4391,-1.4305,-1.4264,-1.4093,0.0,0.0,-1.4297,-1.4396,-1.4609,-1.4065,-1.376,-1.376,-1.3185,-1.29,-1.29,-1.3477,-1.3185,-1.217,-1.2806,-1.287,-1.2572,-1.3138,-1.3261,-1.2921,-1.351,-1.3806,-1.3771,-1.3744,-1.3572,-1.3124,-1.2074,-1.1477,-1.1403,-1.1247,-1.1184,-1.1172,-1.1184,-1.1166,-1.1129,-1.0963,-1.088,-1.093,0.0,0.0,0.0,0.0,0.0,0.0,0.0,0.0,0.0,0.0,0.0,0.0,0.0,0.0,0.0,-1.0631,0.0,-1.0848,-1.0613,0.0,0.0,0.0,-1.0445,-1.0528,-1.0621,-1.0626,-1.0659,0.0,0.0,0.0,0.0,-1.1992,-1.1571,-1.1552,-1.1874,-1.2753,-1.2995,-1.336,-1.419,-1.4344,-1.449,-1.4965,-1.5102,-1.5202,-1.5423,-1.5736,-1.5364,-1.5023,-1.4977,-1.4636,-1.3795,-1.3683,-1.3446,-1.2863,-1.2765,-1.2614,-1.218,-1.196,-1.1918,-1.1774,-1.1705,-1.1624,-1.4776,-1.5046,-1.4874,-1.4668,-1.4528,-1.4528,-1.4553,-1.4561,-1.4569,-1.4569,-1.4641,-1.4824,-1.4945,-1.4953,-1.5178,-1.5106,-1.4945,-1.4945,-1.5041,-1.4956,-1.4172,-1.376,-1.376,-1.3178,-1.29,-1.29,-1.3039,-1.3086,-1.3064,-1.3688,-1.3874,-1.3644,-1.4398,-1.4316,-1.3459,-1.3842,-1.3917,-1.3678,-1.3613,-1.3422,-1.2888,-1.212,-1.1806,-1.1812,-1.1727,-1.1733,-1.1727,-1.1733,-1.1636,-1.1437,-1.1386,-1.1181,-1.0836,-1.0476,0.0,0.0,0.0,0.0,0.0,0.0,0.0,0.0,0.0,-0.9814,-0.943,0.0,-1.0185,0.0,-1.0644,-1.1039,-1.123,-1.0821,0.0,0.0,-1.0275,-1.0286,-1.0295,-1.0754,-1.0956,-1.0784,-1.105,-1.1346,-1.1626,-1.1639,-1.1972,-1.2737,-1.2947,-1.2966,-1.276,-1.3431,-1.4229,-1.5124,-1.5622,-1.6102,-1.6789,-1.6676,-1.5988,-1.4993,-1.493,-1.4711,-1.4046,-1.3922,-1.3834,-1.3578,-1.3517,-1.3517,-1.3308,-1.332,-1.3284,-1.3051,-1.2549,-1.1843,-1.1499,-1.116,-1.107,-1.5765,-1.5976,-1.5756,-1.5527,-1.5218,-1.4768,-1.4569,-1.4569,-1.4569,-1.4569,-1.4657,-1.5022,-1.5261,-1.5404,-1.5443,-1.5364,-1.5181,-1.5014,-1.4943,-1.4927,-1.4367,-1.4129,-1.4129,-1.399,-1.3918,-1.3926,-1.4059,-1.4148,-1.4074,-1.4318,-1.4478,-1.4401,-1.4942,-1.4965,-1.4331,-1.4331,-1.4081,-1.3686,-1.3762,-1.378,-1.3632,-1.279,-1.2274,-1.2119,-1.1725,-1.1455,-1.1295,-1.1208,-1.1141,-1.1003,-1.0997,-1.0864,-1.0616,-1.0411,-1.0141,0.0,0.0,0.0,0.0,0.0,0.0,0.0,0.0,0.0,0.0,0.0,-1.0362,0.0,0.0,0.0,-1.1106,-1.0873,-1.0592,-1.0552,-1.0647,-1.0704,-1.0754,-1.1217,-1.1433,-1.1273,-1.1502,-1.1745,-1.2019,-1.2422,-1.2821,-1.3086,-1.4306,-1.503,-1.4417,-1.4545,-1.51,-1.6436,-1.6807,-1.7093,-1.7513,-1.6929,-1.6263,-1.567,-1.5521,-1.5297,-1.4702,-1.4571,-1.453,-1.4038,-1.3976,-1.3878,-1.3574,-1.3513,-1.3423,-1.32,-1.2736,-1.2286,-1.1999,-1.1551,-1.129,-1.7044,-1.7052,-1.7052,-1.6638,-1.6085,-1.5186,-1.4792,-1.4713,-1.4713,-1.4689,-1.4792,-1.5157,-1.5475,-1.5729,-1.5491,-1.5356,-1.53,-1.499,-1.4839,-1.4839,-1.48,-1.4776,-1.4784,-1.5094,-1.5245,-1.5261,-1.5539,-1.5389,-1.4814,-1.4814,-1.4814,-1.4673,-1.5026,-1.5083,-1.4899,-1.461,-1.4307,-1.3824,-1.3963,-1.4216,-1.4643,-1.3516,-1.2784,-1.2458,-1.1671,-1.1132,-1.0796,-1.0554,-1.0453,-1.0381,-1.0311,-1.0393,-1.0417,-1.0321,-1.0245,0.0,-1.0106,0.0,0.0,0.0,0.0,0.0,0.0,0.0,0.0,-1.0348,-1.0618,-1.0616,-1.0899,-1.0975,-1.0918,-1.0924,-1.0972,-1.1064,-1.1316,-1.1481,-1.1558,-1.1811,-1.1974,-1.1968,-1.2005,-1.2113,-1.2484,-1.353,-1.3738,-1.3404,-1.4921,-1.6197,-1.6238,-1.5749,-1.6001,-1.7525,-1.7707,-1.7339,-1.713,-1.6543,-1.616,-1.6411,-1.6257,-1.6296,-1.5656,-1.5678,-1.5411,-1.4688,-1.4453,-1.4224,-1.3694,-1.3628,-1.3537,-1.3187,-1.2888,-1.2757,-1.2575,-1.2182,-1.2043,-1.7119,-1.7327,-1.7128,-1.6699,-1.6246,-1.6029,-1.5593,-1.5062,-1.5062,-1.5324,-1.5742,-1.5934,-1.6055,-1.6126,-1.6341,-1.6285,-1.6007,-1.5944,-1.5904,-1.5896,-1.561,-1.5475,-1.5483,-1.5554,-1.5578,-1.5594,-1.5642,-1.5506,-1.5143,-1.5143,-1.4743,-1.41,-1.4318,-1.405,0.0,0.0,0.0,0.0,-1.3938,-1.3957,-1.4012,-1.3227,-1.2824,-1.272,-1.24,0.0,-1.1626,-1.1532,-1.1248,-1.0677,-1.0647,0.0,0.0,0.0,0.0,0.0,0.0,0.0,0.0,0.0,0.0,0.0,-1.1015,-1.0847,-1.0225,-1.0334,-1.0583,-1.0879,-1.1161,-1.1353,-1.1362,-1.1575,-1.1714,-1.1769,-1.1739,-1.1793,-1.1854,-1.2083,-1.224,-1.224,-1.2421,-1.2741,-1.3315,-1.342,-1.3659,-1.4329,-1.4412,-1.4771,-1.5896,-1.6152,-1.6588,-1.7161,-1.7044,-1.6772,-1.6678,-1.6591,-1.6135,-1.5812,-1.5622,-1.5425,-1.4829,-1.4715,-1.4669,-1.4337,-1.4327,-1.4298,-1.4165,-1.4147,-1.4129,-1.4052,-1.3385,-1.2696,-1.2319,-1.214,-1.2043,-1.8225,0.0,-1.8225,-1.7802,0.0,-1.732,-1.7,-1.6336,-1.5741,-1.5678,-1.6108,-1.6213,-1.6301,-1.6452,-1.6293,-1.6111,-1.5928,-1.5586,-1.5531,-1.569,-1.5523,-1.5523,-1.5674,-1.5856,-1.5936,-1.5944,-1.6111,-1.5885,-1.5479,-1.5479,-1.5078,-1.4331,-1.4413,-1.4267,-1.3822,-1.4026,-1.4271,-1.4513,-1.4111,-1.4342,-1.522,-1.4267,-1.3642,-1.3516,0.0,0.0,0.0,0.0,0.0,0.0,0.0,0.0,0.0,0.0,0.0,-1.1329,-1.1319,-1.1363,-1.1351,-1.1436,-1.15,-1.1484,-1.1546,-1.1465,-1.1057,-1.105,-1.1243,-1.1432,-1.1597,-1.1654,-1.1709,-1.1842,-1.1994,-1.232,-1.2512,-1.2675,-1.3017,-1.3326,-1.3342,-1.3021,-1.314,-1.3266,-1.3416,-1.3542,-1.3699,-1.4268,-1.4617,-1.4845,-1.5423,-1.5714,-1.6091,-1.6764,-1.6369,-1.6055,-1.6095,-1.5853,-1.5628,-1.5335,-1.5287,-1.5091,-1.4795,-1.4686,-1.469,-1.4728,-1.4696,-1.4696,-1.4684,-1.46,-1.4509,-1.4388,-1.3813,-1.3097,-1.2819,-1.2204,-1.1637,-1.9522,-1.9512,-1.9522,-1.917,-1.8704,-1.8704,-1.8378,-1.7775,0.0,0.0,0.0,-1.6437,-1.6541,-1.669,-1.6118,-1.5864,-1.5825,-1.5276,-1.5173,-1.5459,-1.5459,-1.5602,-1.588,-1.6158,-1.6301,-1.6317,-1.6432,-1.6147,-1.5575,-1.5401,-1.4985,-1.4391,-1.4307,-1.4341,-1.4396,-1.4443,-1.4685,-1.501,-1.4316,-1.4743,-1.6231,-1.518,-1.4399,-1.4136,-1.3493,-1.2693,-1.1676,-1.1513,-1.1383,-1.119,-1.1135,-1.1154,-1.1244,-1.1419,-1.155,-1.1637,-1.1713,-1.1812,-1.1957,-1.1969,-1.1988,-1.2041,-1.2059,-1.2012,-1.1858,-1.1879,-1.1926,-1.1926,-1.1962,-1.1992,-1.1992,-1.2116,-1.2382,-1.2853,-1.314,-1.3523,-1.394,-1.4227,-1.3977,-1.3717,-1.3566,-1.3576,-1.3416,-1.3774,-1.4034,-1.4004,-1.4812,-1.557,-1.5052,-1.5139,-1.5471,-1.6035,-1.5645,-1.5338,-1.5569,-1.5264,-1.4871,-1.5123,-1.5077,-1.5113,-1.5154,-1.5078,-1.5097,-1.5093,-1.5053,-1.5083,-1.5113,-1.4813,-1.4588,-1.4582,-1.3918,-1.3378,-1.328,-1.2294,-1.1471,-2.0347,-2.0356,-2.0347,-2.006,-1.968,-1.968,-1.9375,-1.8918,-1.7906,-1.7284,-1.7013,-1.7177,-1.7017,-1.673,-1.6627,-1.6587,-1.6579,-1.6484,-1.6468,0.0,-1.6516,-1.654,-1.6587,-1.6635,-1.6659,-1.6577,-1.6131,-1.5484,-1.4817,-1.4314,-1.3646,-1.3039,-1.296,-1.3083,-1.3324,-1.3551,-1.4002,-1.4559,-1.4334,-1.4473,-1.4954,-1.4195,-1.3691,-1.3697,-1.4018,-1.3616,-1.2481,-1.2816,-1.257,-1.1479,-1.1244,-1.1323,-1.1775,-1.1817,-1.2017,-1.2439,-1.2565,-1.2583,-1.2614,-1.2542,-1.2554,-1.2584,-1.2596,-1.2391,-1.192,-1.1896,-1.1926,-1.1938,-1.2131,-1.2258,-1.227,-1.2952,-1.3155,-1.2825,-1.3296,-1.3497,-1.3146,-1.3112,-1.3236,-1.3299,-1.3155,-1.351,-1.404,-1.4085,-1.413,-1.4507,-1.4728,-1.4598,-1.4843,-1.5057,-1.5236,-1.507,-1.4851,-1.4862,-1.5175,-1.5147,-1.5083,-1.5101,-1.5143,-1.5173,-1.5179,-1.519,-1.5154,-1.5113,-1.5122,-1.5094,-1.5029,-1.4665,-1.4326,-1.4219,-1.3447,-1.2817,-1.2806,-1.22,-1.1899,-2.0521,-2.0521,-2.0521,-2.0437,-2.0259,-2.0174,-2.0005,-1.9536,-1.9046,-1.8353,-1.7596,-1.7163,-1.6902,-1.6714,-1.654,-1.6444,-1.6436,-1.6246,-1.6261,-1.6436,-1.6452,-1.6547,-1.6722,-1.673,-1.673,-1.6648,-1.5982,-1.5318,-1.4734,-1.4068,-1.3392,-1.2717,-1.2856,-1.3067,-1.3326,-1.3453,-1.3768,-1.4166,-1.3957,-1.4252,-1.5082,-1.4427,-1.4106,-1.4099,-1.4361,-1.4047,-1.3144,-1.3366,-1.3155,-1.2614,-1.2487,-1.253,-1.2765,-1.265,-1.2681,-1.291,-1.2789,-1.2705,-1.2705,-1.2705,-1.2705,-1.2705,-1.2705,-1.2614,-1.2367,-1.2343,-1.2349,-1.2349,-1.2463,-1.253,-1.253,-1.2886,-1.313,-1.3222,-1.3561,-1.3796,-1.4005,-1.4038,-1.3976,-1.3894,-1.3862,-1.3969,-1.4141,-1.4013,-1.4066,-1.4465,-1.4539,-1.4576,-1.4714,-1.5041,-1.5171,-1.4996,-1.4932,-1.504,-1.5264,-1.5318,-1.5372,-1.5499,-1.5529,-1.5529,-1.5535,-1.5529,-1.5419,-1.5123,-1.4993,-1.4915,-1.4698,-1.4255,-1.409,-1.3953,-1.3225,-1.2663,-1.2545,-1.2127,-1.1952,-2.0787,-2.0796,-2.0796,-2.0796,-2.0787,-2.0796,-2.054,-2.011,-1.9841,-1.9213,-1.8228,-1.7371,-1.7044,-1.6937,-1.6675,-1.6563,-1.6524,-1.6269,-1.6301,-1.654,-1.6555,-1.6714,-1.6953,-1.6969,-1.6929,-1.6783,-1.6012,-1.53,-1.4657,-1.3899,-1.3253,-1.2825,-1.3133,-1.3399,-1.3592,-1.3664,-1.3797,-1.3966,-1.3797,-1.4141,-1.5124,-1.4676,-1.4409,-1.4409,-1.4591,-1.4415,-1.378,-1.3817,-1.378,-1.3604,-1.355,-1.3513,-1.3507,-1.332,-1.3212,-1.3194,-1.3006,-1.2886,-1.2886,-1.2886,-1.2862,-1.2801,-1.2795,-1.2777,-1.2711,-1.2705,-1.2705,-1.2705,-1.2687,-1.2693,-1.2693,-1.2869,-1.3052,-1.3476,-1.3711,-1.3919,-1.4542,-1.4723,-1.471,-1.4437,-1.432,-1.4245,-1.4105,-1.399,-1.4111,-1.4364,-1.463,-1.4811,-1.4902,-1.5083,-1.5191,-1.5155,-1.5137,-1.53,-1.5529,-1.5584,-1.5662,-1.5867,-1.5767,-1.563,-1.5636,-1.5547,-1.5339,-1.4888,-1.4821,-1.4606,-1.4261,-1.3923,-1.3705,-1.3678,-1.3041,-1.2616,-1.2521,-1.2202,-1.1912,-2.1612,-2.1621,-2.1594,-2.163,-2.1594,-2.1603,-2.1318,-2.082,-2.0086,-1.9482,-1.8861,-1.8436,-1.8005,-1.7762,-1.7612,-1.7572,-1.7572,-1.758,-1.7556,-1.7572,-1.7628,-1.7644,-1.7636,-1.7652,-1.7517,-1.7085,-1.6004,-1.5184,-1.4628,-1.3496,-1.293,-1.3121,-1.3586,-1.3833,-1.3888,-1.4099,-1.4232,-1.4262,-1.4238,-1.4321,-1.441,-1.4315,-1.4321,-1.4315,-1.4975,-1.4981,-1.4285,-1.4646,-1.4513,-1.3944,-1.3652,-1.3519,-1.3519,-1.3489,-1.3477,-1.3477,-1.3447,-1.3441,-1.3435,-1.3441,-1.332,-1.3121,-1.3073,-1.2958,-1.2735,-1.2705,-1.2705,-1.2705,-1.2705,-1.2705,-1.2705,-1.3228,-1.3338,-1.3016,-1.3547,-1.3873,-1.3516,-1.3511,-1.3762,-1.3926,-1.4056,-1.406,-1.4177,-1.425,-1.4377,-1.4642,-1.4801,-1.5035,-1.5203,-1.5201,-1.5216,-1.5047,-1.5206,-1.5479,-1.5659,-1.5849,-1.5737,-1.5779,-1.5464,-1.5148,-1.5035,-1.4702,-1.4261,-1.4385,-1.4299,-1.4202,-1.3964,-1.3717,-1.3383,-1.3229,-1.2881,-1.2464,-1.237,-1.2342,-1.2224,-2.1731,-2.1731,-2.1731,-2.1731,-2.1731,-2.1731,-2.1284,-2.0538,-2.021,-1.9611,-1.887,-1.8725,-1.8346,-1.7771,-1.7763,-1.7763,-1.7763,-1.7763,-1.7763,-1.7763,-1.7763,-1.7763,-1.7763,-1.7763,-1.7518,-1.6975,-1.6424,-1.5654,-1.4596,-1.3623,-1.3326,-1.3574,-1.3809,-1.3978,-1.4129,-1.4244,-1.4298,-1.4298,-1.4298,-1.4298,-1.4298,-1.4298,-1.4298,-1.4298,-1.4586,-1.458,-1.4382,-1.4475,-1.442,-1.4129,-1.4032,-1.3972,-1.3972,-1.3833,-1.3749,-1.3743,-1.3598,-1.3513,-1.3513,-1.3513,-1.3405,-1.3139,-1.3127,-1.3006,-1.2741,-1.2705,-1.2705,-1.2705,-1.2705,-1.2705,-1.2723,-1.3108,-1.3213,-1.3069,-1.3453,-1.3675,-1.3574,-1.3676,-1.3851,-1.4087,-1.4141,-1.4171,-1.4298,-1.4443,-1.4648,-1.4813,-1.4867,-1.4879,-1.4972,-1.489,-1.4702,-1.4561,-1.4613,-1.4708,-1.4905,-1.525,-1.5244,-1.4911,-1.4702,-1.4498,-1.452,-1.439,-1.4056,-1.3743,-1.365,-1.3542,-1.3088,-1.298,-1.2767,-1.2767,-1.2659,-1.2436,-1.2436,-1.2436,-1.2342,-2.1731,-2.1731,-2.1731,-2.1731,-2.1731,-2.1731,-2.1284,-2.0564,-2.0382,-1.9837,-1.9004,-1.8827,-1.8549,-1.8112,-1.8057,-1.8057,-1.8057,-1.8057,-1.8065,-1.8065,-1.8057,-1.8065,-1.8065,-1.8057,-1.7744,-1.7136,-1.6751,-1.5817,-1.4334,-1.3865,-1.3719,-1.3888,-1.3978,-1.4069,-1.4183,-1.425,-1.4262,-1.4201,-1.4256,-1.4298,-1.4298,-1.4298,-1.4298,-1.4298,-1.4298,-1.4298,-1.4298,-1.4298,-1.4298,-1.4298,-1.4298,-1.4298,-1.4292,-1.4117,-1.4014,-1.4002,-1.3839,-1.3731,-1.3725,-1.3731,-1.3586,-1.3278,-1.323,-1.3079,-1.2801,-1.2771,-1.2831,-1.2781,-1.2892,-1.2922,-1.285,-1.3067,-1.3224,-1.3242,-1.3465,-1.3707,-1.3863,-1.3954,-1.4081,-1.4262,-1.4358,-1.4449,-1.4545,-1.4763,-1.4927,-1.4891,-1.4815,-1.4667,-1.4462,-1.4382,-1.4164,-1.3954,-1.4056,-1.4164,-1.4277,-1.4498,-1.4487,-1.4369,-1.4159,-1.3964,-1.3877,-1.3851,-1.363,-1.3093,-1.3098,-1.2989,-1.2762,-1.255,-1.2441,-1.2441,-1.2436,-1.2436,-1.2436,-1.2436,-1.2436,-2.1731,-2.1731,-2.1731,-2.1642,-2.1731,-2.1642,-2.1374,-2.0826,-2.0464,-2.0011,-1.9463,-1.9012,-1.8804,-1.874,-1.8708,-1.8764,-1.8756,-1.8724,-1.8716,-1.8716,-1.8732,-1.8764,-1.878,-1.8772,-1.8498,-1.7838,-1.6904,-1.5497,-1.3756,-1.3773,-1.3894,-1.393,-1.4141,-1.4153,-1.4026,-1.4195,-1.4177,-1.402,-1.4165,-1.4286,-1.4286,-1.4286,-1.428,-1.4274,-1.4298,-1.4298,-1.4298,-1.4298,-1.4298,-1.4298,-1.4298,-1.4298,-1.4298,-1.428,-1.4262,-1.4262,-1.4256,-1.4238,-1.4214,-1.4195,-1.3984,-1.3568,-1.3453,-1.3266,-1.2795,-1.2952,-1.3045,-1.3123,-1.3267,-1.3267,-1.3188,-1.3357,-1.3495,-1.3513,-1.3731,-1.3882,-1.3918,-1.4153,-1.4268,-1.4352,-1.4545,-1.4775,-1.5028,-1.5306,-1.5092,-1.478,-1.4758,-1.4674,-1.4234,-1.4153,-1.3846,-1.3527,-1.3738,-1.4169,-1.4169,-1.4175,-1.4164,-1.3943,-1.3516,-1.331,-1.3088,-1.297,-1.2654,-1.255,-1.255,-1.255,-1.2436,-1.2436,-1.2436,-1.2436,-1.2436,-1.2436,-1.2436,-1.2436,-1.2436,-2.1731,-2.1731,-2.1731,-2.1544,-2.1266,-2.1275,-2.0817,-2.0093,-1.992,-1.9554,-1.9096,-1.8827,-1.8827,-1.8827,-1.8827,-1.8827,-1.8827,-1.8827,-1.8827,-1.8827,-1.8827,-1.8827,-1.8827,-1.8827,-1.8218,-1.7357,-1.7143,-1.6337,-1.4784,-1.43,-1.4153,-1.4165,-1.425,-1.4244,-1.4183,-1.425,-1.4244,-1.4159,-1.4099,-1.4051,-1.4057,-1.4045,-1.4045,-1.4057,-1.4208,-1.4298,-1.4298,-1.4298,-1.4298,-1.4298,-1.4298,-1.4298,-1.4298,-1.4298,-1.4298,-1.4298,-1.4298,-1.4226,-1.4081,-1.4045,-1.3821,-1.335,-1.3423,-1.3398,-1.3095,-1.3203,-1.3339,-1.3374,-1.3216,-1.3326,-1.3579,-1.3719,-1.3761,-1.3803,-1.3996,-1.4153,-1.4208,-1.4395,-1.4564,-1.4606,-1.4805,-1.4969,-1.4785,-1.4821,-1.4721,-1.4445,-1.4126,-1.3846,-1.3635,-1.331,-1.298,-1.2876,-1.2871,-1.3088,-1.3088,-1.3418,-1.3527,-1.3197,-1.2871,-1.2767,-1.2654,-1.2649,-1.2436,-1.2441,-1.2436,-1.2436,-1.2436,-1.2436,-1.2436,-1.2436,-1.2436,-1.2436,-1.2436,-1.2436,-1.2436,-2.1731,-2.1731,-2.1731,-2.1454,-2.0997,-2.0997,-2.0546,-1.9828,-1.9637,-1.9371,-1.9104,-1.892,-1.8635,-1.845,-1.845,-1.8265,-1.8172,-1.8265,-1.845,-1.845,-1.8172,-1.8079,-1.8079,-1.8079,-1.7613,-1.677,-1.6857,-1.6285,-1.5146,-1.4586,-1.4298,-1.4298,-1.4298,-1.4256,-1.4201,-1.425,-1.4268,-1.4159,-1.4069,-1.4039,-1.4032,-1.4032,-1.4032,-1.4057,-1.4201,-1.4298,-1.4298,-1.4298,-1.4298,-1.4298,-1.4298,-1.4298,-1.4298,-1.4298,-1.4298,-1.4298,-1.4298,-1.4226,-1.4063,-1.4032,-1.3845,-1.3435,-1.3525,-1.3537,-1.3254,-1.3297,-1.3332,-1.3333,-1.3325,-1.3371,-1.3679,-1.4016,-1.4129,-1.4093,-1.4076,-1.4231,-1.4449,-1.4678,-1.4766,-1.4678,-1.4616,-1.4619,-1.4511,-1.4456,-1.4333,-1.3938,-1.3532,-1.3315,-1.2989,-1.2659,-1.2436,-1.2436,-1.2436,-1.2545,-1.2545,-1.2876,-1.2985,-1.2654,-1.2654,-1.2436,-1.2436,-1.2436,-1.2436,-1.2436,-1.2436,-1.2436,-1.2436,-1.2436,-1.2436,-1.2436,-1.2436,-1.2436,-1.2436,-1.2436,-1.2436,-2.1642,-2.1642,-2.1651,-2.1177,-2.0718,-2.0628,-2.0555,-1.992,-1.9554,-1.9188,-1.9004,-1.892,-1.8172,-1.7785,-1.7692,-1.7318,-1.6958,-1.7318,-1.7598,-1.7598,-1.7044,-1.6777,-1.6777,-1.6871,-1.677,-1.6393,-1.5818,-1.5051,-1.4388,-1.4298,-1.4298,-1.4298,-1.4298,-1.4195,-1.3936,-1.4177,-1.4177,-1.4051,-1.4141,-1.4238,-1.4292,-1.4238,-1.422,-1.4244,-1.4274,-1.4298,-1.4298,-1.4298,-1.4298,-1.4298,-1.4298,-1.4298,-1.4298,-1.4298,-1.4298,-1.4298,-1.4298,-1.4292,-1.4262,-1.4232,-1.4087,-1.3839,-1.3863,-1.3749,-1.3459,-1.3263,-1.3153,-1.3154,-1.3232,-1.3443,-1.3579,-1.3941,-1.4276,-1.4286,-1.4045,-1.4202,-1.4459,-1.4849,-1.5005,-1.4579,-1.424,-1.3916,-1.4089,-1.4132,-1.3927,-1.3403,-1.3202,-1.2989,-1.2659,-1.2436,-1.2436,-1.2436,-1.2436,-1.2436,-1.2436,-1.2436,-1.2436,-1.2436,-1.2436,-1.2436,-1.2436,-1.2436,-1.2436,-1.2436,-1.2436,-1.2436,-1.2436,-1.2436,-1.2436,-1.2436,-1.2436,-1.2436,-1.2436,-1.2436,-1.2436,-2.0718,-2.0619,-1.9778,-1.9147,-1.8703,-1.8503,-1.8141,-1.7785,-1.7606,-1.7512,-1.7512,-1.7333,-1.7145,-1.6958,-1.6958,-1.6777,-1.6581,-1.6379,-1.6386,-1.6777,-1.6683,-1.6588,-1.6588,-1.6588,-1.6298,-1.5724,-1.4962,-1.458,-1.4394,-1.4298,-1.4298,-1.4298,-1.4298,-1.4262,-1.4177,-1.4256,-1.4244,-1.4183,-1.4069,-1.4026,-1.4026,-1.4032,-1.4039,-1.4051,-1.4195,-1.4298,-1.4298,-1.4298,-1.4298,-1.4298,-1.4298,-1.4298,-1.4298,-1.4298,-1.4298,-1.4298,-1.4298,-1.4208,-1.4057,-1.4032,-1.3936,-1.3743,-1.3809,-1.3653,-1.3304,-1.3343,-1.3165,-1.2905,-1.2817,-1.2814,-1.3138,-1.2809,-1.3137,-1.3808,-1.4008,-1.3965,-1.3914,-1.4093,-1.4223,-1.4333,-1.4169,-1.3997,-1.3722,-1.3635,-1.331,-1.2871,-1.2767,-1.255,-1.2436,-1.2436,-1.2436,-1.2436,-1.2436,-1.2436,-1.2436,-1.2436,-1.2436,-1.2436,-1.2436,-1.2436,-1.2436,-1.2436,-1.2436,-1.2436,-1.2436,-1.2436,-1.2436,-1.2436,-1.2436,-1.2436,-1.2436,-1.2436,-1.2436,-1.2436,-1.2436,-1.9505,-1.9322,-1.858,-1.794,-1.7584,-1.739,-1.703,-1.6683,-1.6588,-1.6588,-1.6602,-1.6707,-1.6559,-1.6389,-1.6381,-1.6242,-1.5959,-1.5466,-1.557,-1.5906,-1.579,-1.5737,-1.573,-1.573,-1.5534,-1.5057,-1.4484,-1.4298,-1.4298,-1.4298,-1.4298,-1.4298,-1.4298,-1.4298,-1.4298,-1.4298,-1.4298,-1.4274,-1.4141,-1.4051,-1.4051,-1.4051,-1.4045,-1.4081,-1.4214,-1.4292,-1.4298,-1.4298,-1.4298,-1.4298,-1.4298,-1.4298,-1.4298,-1.4298,-1.4298,-1.4298,-1.4292,-1.4226,-1.4075,-1.4081,-1.399,-1.3876,-1.3778,-1.3661,-1.3294,-1.3227,-1.2894,-1.2595,-1.254,-1.2542,-1.2765,-1.2833,-1.2884,-1.3389,-1.3594,-1.3729,-1.3613,-1.3646,-1.3667,-1.3804,-1.3619,-1.3418,-1.3093,-1.2989,-1.2881,-1.2441,-1.2436,-1.2436,-1.2436,-1.2436,-1.2436,-1.2436,-1.2436,-1.2436,-1.2436,-1.2436,-1.2436,-1.2436,-1.2436,-1.2436,-1.2436,-1.2436,-1.2436,-1.2436,-1.2436,-1.2436,-1.2436,-1.2436,-1.2436,-1.2436,-1.2436,-1.2436,-1.2436,-1.2436,-1.2436,-1.8218,-1.794,-1.7848,-1.7483,-1.7016,-1.7016,-1.6655,-1.6393,-1.6441,-1.636,-1.6408,-1.6553,-1.6384,-1.5947,-1.6004,-1.5801,-1.519,-1.5141,-1.5123,-1.5114,-1.4839,-1.4618,-1.4727,-1.4734,-1.4637,-1.4509,-1.4407,-1.437,-1.437,-1.437,-1.431,-1.4298,-1.4298,-1.4298,-1.4298,-1.4298,-1.4298,-1.4292,-1.428,-1.4268,-1.4268,-1.428,-1.428,-1.4274,-1.4286,-1.4298,-1.4298,-1.4298,-1.4298,-1.4298,-1.4298,-1.4298,-1.4298,-1.4298,-1.4298,-1.4298,-1.4298,-1.4298,-1.4286,-1.416,-1.4148,-1.4034,-1.3698,-1.346,-1.3288,-1.2782,-1.2455,-1.2339,-1.2377,-1.2565,-1.2703,-1.3074,-1.3277,-1.2981,-1.2976,-1.328,-1.3901,-1.3506,-1.3295,-1.3192,-1.2767,-1.2436,-1.2436,-1.2436,-1.2436,-1.2441,-1.2436,-1.2436,-1.2436,-1.2436,-1.2436,-1.2436,-1.2436,-1.2436,-1.2436,-1.2436,-1.2436,-1.2436,-1.2436,-1.2436,-1.2436,-1.2436,-1.2436,-1.2436,-1.2436,-1.2436,-1.2436,-1.2436,-1.2436,-1.2436,-1.2436,-1.2436,-1.2436,-1.2436,-1.2436,-1.7102,-1.6821,-1.5988,-1.5534,-1.5343,-1.5146,-1.5051,-1.4898,-1.5202,-1.5265,-1.5243,-1.5476,-1.5595,-1.5306,-1.5368,-1.5303,-1.5137,-1.5131,-1.5113,-1.5089,-1.4986,-1.4896,-1.489,-1.489,-1.4877,-1.4871,-1.4835,-1.4793,-1.4618,-1.4606,-1.4509,-1.4304,-1.4328,-1.431,-1.4298,-1.4304,-1.4298,-1.4298,-1.4298,-1.4298,-1.4298,-1.4298,-1.4298,-1.4298,-1.4298,-1.4298,-1.4298,-1.4298,-1.4298,-1.4298,-1.4298,-1.4298,-1.4298,-1.4298,-1.4298,-1.4298,-1.4298,-1.4298,-1.4202,-1.3931,-1.3732,-1.3647,-1.3422,-1.3012,-1.2621,-1.2622,-1.2347,-1.2113,-1.2144,-1.2269,-1.2298,-1.2549,-1.2656,-1.2572,-1.2553,-1.2685,-1.2852,-1.2762,-1.2659,-1.2659,-1.2436,-1.2436,-1.2436,-1.2436,-1.2436,-1.2436,-1.2436,-1.2436,-1.2436,-1.2436,-1.2436,-1.2436,-1.2436,-1.2436,-1.2436,-1.2436,-1.2436,-1.2436,-1.2436,-1.2436,-1.2436,-1.2436,-1.2436,-1.2436,-1.2436,-1.2436,-1.2436,-1.2436,-1.2436,-1.2436,-1.2436,-1.2436,-1.2436,-1.2436,-1.2436,-1.5798,-1.5514,-1.4867,-1.449,-1.449,-1.4394,-1.4298,-1.4352,-1.4594,-1.4714,-1.4793,-1.5119,-1.527,-1.5282,-1.5384,-1.5433,-1.5439,-1.5439,-1.5445,-1.5445,-1.5439,-1.5312,-1.5161,-1.5113,-1.5113,-1.5113,-1.5119,-1.5022,-1.4902,-1.4883,-1.4781,-1.466,-1.4521,-1.4473,-1.4479,-1.434,-1.4208,-1.4016,-1.4016,-1.401,-1.4016,-1.4016,-1.4106,-1.4202,-1.4298,-1.4298,-1.4298,-1.4112,-1.4016,-1.4208,-1.4298,-1.4298,-1.4298,-1.4298,-1.4298,-1.4298,-1.4298,-1.4202,-1.3937,-1.3716,-1.3498,-1.3346,-1.3025,-1.2734,-1.2486,-1.2447,-1.2163,-1.2078,-1.2148,-1.2247,-1.228,-1.2375,-1.2427,-1.2427,-1.2436,-1.2436,-1.2436,-1.2436,-1.2436,-1.2436,-1.2436,-1.2436,-1.2436,-1.2436,-1.2436,-1.2436,-1.2436,-1.2436,-1.2436,-1.2436,-1.2327,-1.2327,-1.2219,-1.2219,-1.2219,-1.2219,-1.2105,-1.2105,-1.2223,-1.2223,-1.2219,-1.2219,-1.2436,-1.2436,-1.2436,-1.2436,-1.2436,-1.2436,-1.2436,-1.2436,-1.2436,-1.2327,-1.2219,-1.2001,-1.211,-1.4496,-1.4298,-1.4298,-1.4298,-1.4298,-1.4298,-1.4328,-1.4401,-1.466,-1.4805,-1.4938,-1.533,-1.5529,-1.5547,-1.5716,-1.5861,-1.5855,-1.5807,-1.5837,-1.5819,-1.5789,-1.5632,-1.5312,-1.5294,-1.5282,-1.527,-1.5203,-1.5191,-1.5161,-1.5149,-1.5125,-1.5004,-1.4835,-1.4769,-1.4727,-1.4539,-1.4116,-1.3757,-1.3739,-1.3625,-1.3505,-1.3477,-1.363,-1.3913,-1.401,-1.401,-1.3925,-1.3761,-1.3688,-1.4154,-1.422,-1.4304,-1.4298,-1.4298,-1.4238,-1.4171,-1.4093,-1.3905,-1.3562,-1.3562,-1.3441,-1.3079,-1.2756,-1.257,-1.2408,-1.2355,-1.2167,-1.2167,-1.2337,-1.2398,-1.2413,-1.2436,-1.2436,-1.2436,-1.2436,-1.2436,-1.2436,-1.2436,-1.2436,-1.2436,-1.2436,-1.2436,-1.2436,-1.2436,-1.2436,-1.2436,-1.2436,-1.2436,-1.2436,-1.2436,-1.2219,-1.2001,-1.2001,-1.2105,-1.1996,-1.1887,-1.1778,-1.1669,-1.1896,-1.1896,-1.1778,-1.1887,-1.2219,-1.2436,-1.2436,-1.2436,-1.2436,-1.2436,-1.2219,-1.2001,-1.1669,-1.1778,-1.2001,-1.1559,-1.1337,-1.4496,-1.4298,-1.4298,-1.4298,-1.4298,-1.4304,-1.4419,-1.4636,-1.4902,-1.5107,-1.5354,-1.5662,-1.5783,-1.5801,-1.5855,-1.5885,-1.5885,-1.5885,-1.5885,-1.5885,-1.5885,-1.5849,-1.5704,-1.568,-1.5698,-1.5686,-1.571,-1.5608,-1.5463,-1.5403,-1.5312,-1.5137,-1.5095,-1.5022,-1.5004,-1.4932,-1.4625,-1.4082,-1.3933,-1.3534,-1.3193,-1.3073,-1.3099,-1.3288,-1.3186,-1.3169,-1.3197,-1.3133,-1.3226,-1.3478,-1.3951,-1.4268,-1.4165,-1.3864,-1.3751,-1.3779,-1.3627,-1.3408,-1.3377,-1.3137,-1.2879,-1.2695,-1.2457,-1.2178,-1.2188,-1.2354,-1.2356,-1.2375,-1.2417,-1.2436,-1.2436,-1.2436,-1.2436,-1.2436,-1.2436,-1.2436,-1.2436,-1.2436,-1.2436,-1.2436,-1.2436,-1.2436,-1.2436,-1.2436,-1.2436,-1.2436,-1.2436,-1.2436,-1.2436,-1.2436,-1.211,-1.1782,-1.1673,-1.1559,-1.1114,-1.1004,-1.1004,-1.1004,-1.1232,-1.1345,-1.1118,-1.1337,-1.1664,-1.1996,-1.2436,-1.2327,-1.1887,-1.1673,-1.1345,-1.1122,-1.0899,-1.0899,-1.0895,-1.0676,-1.068,-1.44,-1.4298,-1.4298,-1.4298,-1.4298,-1.4304,-1.4455,-1.4727,-1.4992,-1.5258,-1.5517,-1.5771,-1.5885,-1.5885,-1.5885,-1.5885,-1.5885,-1.5885,-1.5885,-1.5885,-1.5885,-1.5885,-1.5885,-1.5885,-1.5885,-1.5885,-1.5879,-1.5795,-1.571,-1.5662,-1.562,-1.5469,-1.536,-1.53,-1.5258,-1.5083,-1.4581,-1.3948,-1.3763,-1.3483,-1.2941,-1.2767,-1.2893,-1.2993,-1.2893,-1.2799,-1.3125,-1.2899,-1.3063,-1.3243,-1.3657,-1.3882,-1.3882,-1.3584,-1.3557,-1.3545,-1.3382,-1.3116,-1.3038,-1.2842,-1.2695,-1.2387,-1.2269,-1.2247,-1.229,-1.2389,-1.2427,-1.2436,-1.2436,-1.2436,-1.2436,-1.2436,-1.2436,-1.2436,-1.2436,-1.2436,-1.2436,-1.2436,-1.2436,-1.2436,-1.2436,-1.2436,-1.2436,-1.2327,-1.2327,-1.2219,-1.2327,-1.2327,-1.2436,-1.2327,-1.1891,-1.1564,-1.1345,-1.0903,-1.0237,-1.0014,-1.0123,-1.0237,-1.0351,-1.046,-1.0347,-1.0676,-1.1004,-1.1227,-1.1446,-1.1118,-1.0789,-1.0574,-1.0464,-1.0351,-1.0237,-0.9904,-0.9794,-1.0017,-1.0127,-1.4298,-1.4298,-1.4298,-1.4298,-1.4298,-1.4304,-1.4455,-1.4733,-1.4992,-1.5252,-1.5517,-1.5771,-1.5885,-1.5885,-1.5885,-1.5885,-1.5885,-1.5891,-1.5891,-1.5672,-1.5891,-1.5779,-1.5779,-1.5785,-1.5885,-1.5885,-1.5885,-1.5867,-1.5867,-1.5885,-1.5713,-1.5719,-1.5463,-1.5252,-1.5192,-1.5056,-1.447,-1.3653,-1.3474,-1.3117,-1.257,-1.2432,-1.269,-1.2787,-1.2684,-1.2577,-1.2792,-1.2653,-1.2595,-1.3003,-1.3034,-1.2946,-1.2936,-1.3172,-1.3296,-1.3302,-1.3214,-1.2956,-1.2725,-1.272,-1.2597,-1.2195,-1.2328,-1.2309,-1.2209,-1.2205,-1.2214,-1.2219,-1.2219,-1.2436,-1.2436,-1.2436,-1.2436,-1.2436,-1.2436,-1.2332,-1.2223,-1.2219,-1.211,-1.2436,-1.2327,-1.2327,-1.211,-1.2001,-1.2001,-1.211,-1.2105,-1.2105,-1.2105,-1.1887,-1.1232,-1.0684,-1.0245,-0.9695,-0.9027,-0.8806,-0.8916,-0.9247,-0.9361,-0.9471,-0.9361,-0.9588,-0.9919,-1.0127,-1.0123,-1.0017,-0.9908,-0.9801,-0.9691,-0.9688,-0.9247,-0.8806,-0.9027,-0.9357,-0.9357,-1.4298,-1.4298,-1.4298,-1.4298,-1.4298,-1.4298,-1.4455,-1.4739,-1.4992,-1.5258,-1.5517,-1.5771,-1.5885,-1.5885,-1.5885,-1.5885,-1.5885,-1.5891,-1.5678,-1.5357,-1.5571,-1.5678,-1.525,-1.5464,-1.5779,-1.5885,-1.5779,-1.5779,-1.5885,-1.5885,-1.5678,-1.5232,-1.5085,-1.4843,-1.45,-1.427,-1.3875,-1.3088,-1.2886,-1.2605,-1.2154,-1.185,-1.1879,-1.2091,-1.1997,-1.1983,-1.2101,-1.2107,-1.187,-1.134,-1.1379,-1.1108,-1.1044,-1.1892,-1.2576,-1.266,-1.2394,-1.2129,-1.2145,-1.2332,-1.238,-1.2394,-1.22,-1.1887,-1.1673,-1.1787,-1.1782,-1.1673,-1.1891,-1.2327,-1.2327,-1.211,-1.2327,-1.2327,-1.211,-1.2001,-1.1455,-1.1345,-1.1559,-1.1887,-1.211,-1.2001,-1.1559,-1.1232,-1.1122,-1.1008,-1.0895,-1.0895,-1.0785,-1.0566,-1.0017,-0.9471,-0.8816,-0.826,-0.7706,-0.7706,-0.7706,-0.8042,-0.8263,-0.8377,-0.838,-0.8501,-0.8722,-0.9034,-0.9354,-0.9464,-0.9357,-0.903,-0.8809,-0.8699,-0.8257,-0.7703,-0.8036,-0.8367,-0.8036,-1.4298,-1.4298,-1.4298,-1.4298,-1.4298,-1.4298,-1.4455,-1.4727,-1.4992,-1.5252,-1.5511,-1.5765,-1.5885,-1.5885,-1.5885,-1.5885,-1.5885,-1.5885,-1.5571,-1.5256,-1.525,-1.5143,-1.4606,-1.4922,-1.503,-1.503,-1.5024,-1.5351,-1.5891,-1.5885,-1.5565,-1.5351,-1.4809,-1.4153,-1.3712,-1.3151,-1.2635,-1.2068,-1.1891,-1.1513,-1.0983,-1.0873,-1.0958,-1.1385,-1.1385,-1.1389,-1.1411,-1.1465,-1.1099,-1.0458,-1.0413,-1.0123,-1.0186,-1.0438,-1.1193,-1.1272,-1.1086,-1.1012,-1.1101,-1.1008,-1.1004,-1.1004,-1.1114,-1.0895,-1.068,-1.068,-1.0903,-1.068,-1.068,-1.1114,-1.1008,-1.1118,-1.1008,-1.1008,-1.1114,-1.0899,-1.0574,-1.0464,-1.068,-1.1008,-1.0789,-1.068,-1.057,-1.0351,-1.0241,-1.0017,-0.9794,-0.9684,-0.9574,-0.9467,-0.9137,-0.8699,-0.8263,-0.782,-0.7265,-0.7265,-0.7154,-0.7379,-0.7493,-0.7496,-0.7607,-0.7832,-0.794,-0.8042,-0.8367,-0.8806,-0.8367,-0.7928,-0.7928,-0.782,-0.7595,-0.7485,-0.7265,-0.7265,-0.7154,-1.4298,-1.4298,-1.4298,-1.4196,-1.4004,-1.4004,-1.3922,-1.4063,-1.4251,-1.4379,-1.4804,-1.4982,-1.5238,-1.5565,-1.5672,-1.5678,-1.5678,-1.5678,-1.525,-1.4713,-1.4928,-1.4713,-1.4169,-1.4169,-1.4277,-1.4385,-1.4379,-1.4702,-1.5244,-1.5458,-1.5345,-1.4583,-1.3706,-1.3161,-1.2615,-1.1746,-1.0882,-1.0668,-1.0449,-1.0233,-0.9904,-0.9798,-1.0131,-1.0798,-1.0798,-1.0777,-1.0757,-1.0761,-1.0331,-0.9779,-0.9464,-0.9467,-0.9247,-0.9247,-0.9247,-0.9357,-0.9574,-0.9794,-0.9904,-0.9904,-1.0127,-1.0123,-0.9904,-0.9798,-0.9578,-0.9581,-0.9691,-0.9684,-0.9904,-1.0014,-1.0123,-0.9904,-0.9904,-0.9904,-0.9908,-0.9798,-0.9581,-0.9471,-0.9361,-0.9471,-0.9361,-0.9361,-0.9361,-0.9471,-0.9361,-0.8809,-0.8585,-0.8696,-0.8585,-0.8806,-0.8478,-0.8149,-0.782,-0.7487,-0.7265,-0.7265,-0.7154,-0.7268,-0.7268,-0.7379,-0.7268,-0.7379,-0.7376,-0.7598,-0.7487,-0.7706,-0.7265,-0.7154,-0.7376,-0.7487,-0.7265,-0.7154,-0.7154,-0.7154,-0.7154,-1.4298,-1.4298,-1.4298,-1.3806,-1.2926,-1.2926,-1.2349,-1.185,-1.2233,-1.2216,-1.261,-1.2758,-1.3599,-1.4272,-1.4815,-1.5035,-1.5035,-1.4815,-1.4272,-1.363,-1.4169,-1.3954,-1.3527,-1.3954,-1.3619,-1.3511,-1.3732,-1.4277,-1.4272,-1.4272,-1.3835,-1.296,-1.2521,-1.1651,-1.0769,-1.0116,-1.0014,-0.9904,-0.9794,-0.9794,-0.9684,-0.9574,-0.9688,-0.9908,-0.9908,-0.9911,-0.9911,-0.9911,-0.9578,-0.8813,-0.8706,-0.826,-0.7706,-0.7485,-0.7485,-0.7925,-0.8806,-0.9794,-0.9574,-0.9464,-0.9464,-0.9467,-0.9578,-0.9357,-0.892,-0.8702,-0.892,-0.9794,-0.9684,-0.9354,-0.924,-0.9574,-0.9684,-0.9464,-0.9244,-0.903,-0.8809,-0.8367,-0.8257,-0.7925,-0.7811,-0.8146,-0.8257,-0.8371,-0.8374,-0.7931,-0.7485,-0.7706,-0.7817,-0.8039,-0.8039,-0.7709,-0.7598,-0.7265,-0.7154,-0.7154,-0.7154,-0.7154,-0.7154,-0.7154,-0.7154,-0.7154,-0.7154,-0.7265,-0.7154,-0.7154,-0.7154,-0.7154,-0.7154,-0.7154,-0.7154,-0.7154,-0.7154,-0.7154,-0.7154,-1.2538,-1.2533,-1.2538,-1.2247,-1.1853,-1.1858,-1.1658,-1.133,-1.1577,-1.1685,-1.1831,-1.2096,-1.2622,-1.3161,-1.329,-1.329,-1.3285,-1.3166,-1.263,-1.2096,-1.2309,-1.22,-1.1546,-1.1546,-1.1651,-1.1869,-1.1764,-1.1542,-1.2091,-1.3295,-1.3511,-1.2417,-1.1546,-1.0773,-0.946,-0.8696,-0.8367,-0.8257,-0.8257,-0.8367,-0.8367,-0.8367,-0.8589,-0.903,-0.903,-0.9034,-0.903,-0.903,-0.8589,-0.7931,-0.7709,-0.7598,-0.7265,-0.7265,-0.7265,-0.7265,-0.7814,-0.8254,-0.8257,-0.8367,-0.8478,-0.8367,-0.8367,-0.8146,-0.782,-0.782,-0.7706,-0.7697,-0.7808,-0.7697,-0.7473,-0.7362,-0.7252,-0.7362,-0.7919,-0.7811,-0.7482,-0.7374,-0.7041,-0.6707,-0.6485,-0.6816,-0.7149,-0.7374,-0.7598,-0.7487,-0.7265,-0.7374,-0.7374,-0.7487,-0.7487,-0.7376,-0.7265,-0.7265,-0.7154,-0.7154,-0.7154,-0.7154,-0.7154,-0.7154,-0.7154,-0.7154,-0.7154,-0.7154,-0.7154,-0.7154,-0.7154,-0.7154,-0.7154,-0.7154,-0.7154,-0.7154,-0.7154,-0.7154,-0.7154,-1.0147,-1.0284,-1.0877,-1.0974,-1.0779,-1.0779,-1.0583,-1.0413,-1.0602,-1.0791,-1.0993,-1.1327,-1.1639,-1.1733,-1.176,-1.1764,-1.176,-1.1424,-1.0988,-1.0668,-1.0562,-1.0453,-1.0233,-1.0014,-1.0014,-0.9794,-1.0233,-1.0233,-1.0672,-1.1546,-1.2309,-1.176,-1.0453,-0.957,-0.8689,-0.7922,-0.7487,-0.7487,-0.7376,-0.7376,-0.7376,-0.7376,-0.7598,-0.7931,-0.8152,-0.8152,-0.8152,-0.8149,-0.7709,-0.7487,-0.7265,-0.7265,-0.7154,-0.7154,-0.7154,-0.7265,-0.7485,-0.7374,-0.7487,-0.7376,-0.7265,-0.7154,-0.7154,-0.7376,-0.7265,-0.7154,-0.6932,-0.6596,-0.6594,-0.6149,-0.5594,-0.5592,-0.5813,-0.6035,-0.6149,-0.604,-0.604,-0.6262,-0.6262,-0.6151,-0.5926,-0.5704,-0.6038,-0.6374,-0.671,-0.6932,-0.7043,-0.7043,-0.7043,-0.7043,-0.7043,-0.7043,-0.7154,-0.7154,-0.7154,-0.7154,-0.7154,-0.7154,-0.7154,-0.716,-0.7163,-0.716,-0.7154,-0.7154,-0.7173,-0.7154,-0.7154,-0.7154,-0.7154,-0.7154,-0.7154,-0.7154,-0.7154,-0.7154,-0.7154,-0.7416,-0.763,-0.9895,-1.0293,-0.9702,-0.9414,-0.892,-0.8443,-0.8494,-0.8543,-0.8713,-0.9392,-0.9964,-1.012,-1.0453,-1.0562,-1.0672,-1.0777,-1.0229,-1.0014,-1.0347,-1.0014,-0.9574,-0.9464,-0.9574,-0.9574,-0.9354,-0.9464,-0.9684,-0.9794,-0.9688,-0.8923,-0.914,-0.8257,-0.7703,-0.7374,-0.7154,-0.7154,-0.7154,-0.7154,-0.7154,-0.7154,-0.7265,-0.7265,-0.7376,-0.7265,-0.7265,-0.7376,-0.7376,-0.7154,-0.7154,-0.7154,-0.7154,-0.7043,-0.7043,-0.7043,-0.6932,-0.6932,-0.6932,-0.7043,-0.7154,-0.7154,-0.7154,-0.7154,-0.7154,-0.7154,-0.6932,-0.6262,-0.604,-0.5706,-0.5483,-0.5369,-0.5148,-0.5148,-0.526,-0.5371,-0.5483,-0.5483,-0.5481,-0.5481,-0.5258,-0.5037,-0.4925,-0.5371,-0.5929,-0.6262,-0.6374,-0.6374,-0.6596,-0.6596,-0.6707,-0.6821,-0.6932,-0.7043,-0.7041,-0.693,-0.671,-0.6599,-0.6707,-0.6831,-0.6956,-0.7059,-0.6816,-0.7001,-0.6802,-0.698,-0.7179,-0.7009,-0.7022,-0.7182,-0.7154,-0.7154,-0.7154,-0.7154,-0.7154,-0.7018,-0.7039,-0.7928,-0.8226,-0.8127,-0.8031,-0.7832,-0.7547,-0.7598,-0.7654,-0.7765,-0.837,-0.8616,-0.8789,-0.8702,-0.8813,-0.8813,-0.8585,-0.8475,-0.8364,-0.8367,-0.8364,-0.8257,-0.8257,-0.8146,-0.8257,-0.8257,-0.8149,-0.8146,-0.8367,-0.8149,-0.7931,-0.8152,-0.7931,-0.7487,-0.7154,-0.7154,-0.7154,-0.7154,-0.7154,-0.7154,-0.7154,-0.7154,-0.7154,-0.7154,-0.7154,-0.7265,-0.7265,-0.7154,-0.7154,-0.7154,-0.7154,-0.7043,-0.6818,-0.6707,-0.6596,-0.6374,-0.6262,-0.6374,-0.671,-0.7154,-0.7154,-0.7154,-0.7154,-0.7043,-0.6821,-0.6374,-0.5929,-0.5483,-0.5148,-0.4482,-0.4258,-0.4257,-0.4369,-0.4599,-0.483,-0.4837,-0.4848,-0.4848,-0.4863,-0.4499,-0.4145,-0.4145,-0.4257,-0.4925,-0.5483,-0.5706,-0.5817,-0.6042,-0.6056,-0.6177,-0.6191,-0.6422,-0.642,-0.642,-0.6291,-0.6161,-0.6168,-0.6286,-0.6317,-0.6456,-0.6154,-0.6047,-0.6238,-0.6448,-0.657,-0.6572,-0.669,-0.6759,-0.6891,-0.7065,-0.7154,-0.7154,-0.7154,-0.7154,-0.6766,-0.6688,-0.6628,-0.6842,-0.7138,-0.7138,-0.7138,-0.7238,-0.7238,-0.7289,-0.744,-0.757,-0.7698,-0.7683,-0.7601,-0.7604,-0.7601,-0.7487,-0.7376,-0.7376,-0.7376,-0.7154,-0.7154,-0.7265,-0.7487,-0.7154,-0.7154,-0.7265,-0.7376,-0.7265,-0.7265,-0.7487,-0.7709,-0.7598,-0.7376,-0.7154,-0.7154,-0.7154,-0.7154,-0.7154,-0.7154,-0.7154,-0.7154,-0.7154,-0.7154,-0.7154,-0.7154,-0.7154,-0.7154,-0.7154,-0.7154,-0.7154,-0.6821,-0.6599,-0.6265,-0.5929,-0.5706,-0.5369,-0.5594,-0.604,-0.6599,-0.6485,-0.6485,-0.6596,-0.6596,-0.6262,-0.5817,-0.526,-0.4702,-0.4265,-0.3717,-0.3734,-0.3872,-0.4,-0.4125,-0.436,-0.4357,-0.436,-0.4352,-0.4349,-0.3991,-0.3882,-0.3885,-0.4002,-0.4413,-0.4961,-0.5037,-0.5264,-0.5603,-0.5512,-0.5433,-0.5562,-0.5694,-0.5579,-0.5461,-0.5707,-0.5842,-0.5849,-0.5855,-0.5743,-0.5735,-0.5443,-0.5445,-0.589,-0.597,-0.5905,-0.6007,-0.6071,-0.6334,-0.6576,-0.6654,-0.6624,-0.6821,-0.671,-0.7043,-0.6159,-0.6282,-0.6385,-0.6728,-0.7126,-0.6942,-0.6942,-0.7135,-0.7138,-0.7175,-0.72,-0.7127,-0.7141,-0.7232,-0.7252,-0.7268,-0.7268,-0.7265,-0.7154,-0.7154,-0.7154,-0.7154,-0.7154,-0.7154,-0.7154,-0.7154,-0.7154,-0.7154,-0.7154,-0.7154,-0.7154,-0.7154,-0.7376,-0.7376,-0.7265,-0.7154,-0.7154,-0.7154,-0.7154,-0.7154,-0.7154,-0.7154,-0.7043,-0.7043,-0.6932,-0.6818,-0.6821,-0.6821,-0.6821,-0.6821,-0.6821,-0.671,-0.6262,-0.6151,-0.5817,-0.5483,-0.5371,-0.526,-0.5371,-0.5371,-0.5483,-0.5706,-0.5815,-0.5815,-0.5592,-0.5369,-0.5286,-0.4748,-0.4506,-0.4192,-0.3878,-0.368,-0.3707,-0.3721,-0.396,-0.3963,-0.3957,-0.3954,-0.4062,-0.4054,-0.397,-0.376,-0.3759,-0.3861,-0.4032,-0.4328,-0.4501,-0.4714,-0.4964,-0.4996,-0.4813,-0.4827,-0.4962,-0.4971,-0.4978,-0.5249,-0.5504,-0.551,-0.5385,-0.5137,-0.5137,-0.5116,-0.5255,-0.5432,-0.5491,-0.5431,-0.5489,-0.5532,-0.56,-0.5553,-0.5684,-0.5753,-0.6063,-0.6391,-0.6522,-0.6034,-0.6157,-0.6276,-0.6421,-0.6631,-0.6608,-0.6639,-0.6637,-0.6651,-0.6732,-0.6782,-0.6809,-0.6929,-0.7027,-0.7124,-0.7154,-0.7154,-0.7154,-0.7154,-0.7154,-0.7154,-0.7154,-0.7154,-0.7154,-0.7154,-0.7154,-0.7154,-0.7154,-0.7154,-0.7154,-0.7154,-0.7154,-0.7043,-0.7154,-0.7154,-0.7154,-0.7154,-0.7154,-0.7154,-0.7154,-0.7154,-0.6821,-0.6599,-0.6599,-0.6262,-0.6151,-0.6151,-0.6151,-0.6151,-0.6151,-0.6151,-0.5929,-0.5706,-0.5483,-0.5037,-0.4704,-0.4592,-0.4257,-0.4257,-0.4257,-0.4592,-0.5037,-0.5258,-0.526,-0.5371,-0.5037,-0.4754,-0.4473,-0.4232,-0.3917,-0.384,-0.3736,-0.3753,-0.3753,-0.3875,-0.3875,-0.3873,-0.3875,-0.3871,-0.3868,-0.3768,-0.3781,-0.3785,-0.3805,-0.4001,-0.3979,-0.4177,-0.4154,-0.4398,-0.4295,-0.4087,-0.4205,-0.4214,-0.4342,-0.4475,-0.4742,-0.4734,-0.4715,-0.448,-0.4361,-0.4366,-0.4626,-0.4661,-0.4699,-0.4877,-0.5046,-0.4857,-0.4799,-0.454,-0.4498,-0.49,-0.5303,-0.5631,-0.5836,-0.581,-0.5863,-0.5949,-0.6162,-0.6241,-0.6293,-0.6391,-0.6437,-0.6437,-0.6439,-0.6505,-0.663,-0.6749,-0.6874,-0.6991,-0.7095,-0.7154,-0.7154,-0.7154,-0.7154,-0.7154,-0.7154,-0.7154,-0.7154,-0.7157,-0.7154,-0.7154,-0.7154,-0.7154,-0.7154,-0.6932,-0.671,-0.6485,-0.6596,-0.6485,-0.6599,-0.6821,-0.7154,-0.7154,-0.7154,-0.7154,-0.7043,-0.6707,-0.6374,-0.6151,-0.5815,-0.5481,-0.5369,-0.5369,-0.5369,-0.5369,-0.5371,-0.526,-0.5037,-0.4815,-0.4369,-0.4145,-0.3923,-0.3699,-0.3699,-0.3699,-0.4145,-0.4592,-0.4814,-0.4814,-0.4713,-0.4397,-0.4359,-0.4064,-0.3957,-0.3872,-0.3786,-0.3796,-0.3807,-0.3808,-0.3824,-0.3827,-0.3828,-0.3833,-0.3833,-0.3826,-0.3822,-0.3824,-0.3823,-0.3839,-0.3845,-0.3839,-0.3833,-0.3811,-0.3788,-0.3794,-0.3801,-0.3923,-0.3937,-0.4077,-0.4086,-0.4095,-0.4077,-0.3917,-0.3808,-0.3827,-0.397,-0.4237,-0.4027,-0.3925,-0.4307,-0.4439,-0.4187,-0.3917,-0.4011,-0.4236,-0.4455,-0.4765,-0.5191,-0.5259,-0.5213,-0.5644,-0.5663,-0.5865,-0.5976,-0.6184,-0.5968,-0.6124,-0.6337,-0.6439,-0.6505,-0.6619,-0.673,-0.6844,-0.6975,-0.7092,-0.7149,-0.716,-0.716,-0.716,-0.716,-0.7163,-0.7163,-0.7163,-0.7163,-0.6937,-0.6935,-0.7046,-0.6937,-0.7043,-0.6035,-0.559,-0.5369,-0.5369,-0.5369,-0.5704,-0.6262,-0.671,-0.6821,-0.6818,-0.6821,-0.6599,-0.6376,-0.5929,-0.5706,-0.5371,-0.5037,-0.5037,-0.5037,-0.5148,-0.5148,-0.526,-0.4925,-0.4704,-0.448,-0.4145,-0.3811,-0.3587,-0.3587,-0.3587,-0.3587,-0.3587,-0.3923,-0.3821,-0.3705,-0.3713,-0.3862,-0.3943,-0.3883,-0.3789,-0.382,-0.3849,-0.3865,-0.3882,-0.3899,-0.3922,-0.3927,-0.3928,-0.3929,-0.3928,-0.3924,-0.3921,-0.3918,-0.3912,-0.3918,-0.3897,-0.3901,-0.389,-0.3869,-0.3853,-0.3856,-0.3862,-0.3869,-0.389,-0.3927,-0.3929,-0.3907,-0.3901,-0.3867,-0.3888,-0.3909,-0.3931,-0.3931,-0.3935,-0.3939,-0.3946,-0.3948,-0.3944,-0.3946,-0.3942,-0.4052,-0.4154,-0.4254,-0.4679,-0.4748,-0.471,-0.3707,-0.3716,-0.3788,-0.3833,-0.3776,-0.3209,-0.4173,-0.6253,-0.6366,-0.639,-0.6425,-0.6535,-0.6445,-0.688,-0.7108,-0.7095,-0.7149,-0.7182,-0.7179,-0.7065,-0.6723,-0.7067,-0.707,-0.6842,-0.6277,-0.5938,-0.6049,-0.6272,-0.5146,-0.4362,-0.3913,-0.3578,-0.4027,-0.4252,-0.4698,-0.5369,-0.5706,-0.5929,-0.604,-0.604,-0.5929,-0.5483,-0.526,-0.5037,-0.459,-0.4367,-0.4257,-0.4257,-0.4257,-0.4257,-0.4145,-0.3923,-0.3923,-0.3811,-0.3699,-0.3699,-0.3587,-0.3587,-0.3587,-0.3587,-0.3587,-0.3598,-0.3623,-0.362,-0.3621,-0.3664,-0.3751,-0.3815,-0.3846,-0.3868,-0.3892,-0.3912,-0.3921,-0.3933,-0.395,-0.395,-0.395,-0.395,-0.395,-0.395,-0.395,-0.395,-0.395,-0.3946,-0.3928,-0.3943,-0.394,-0.3918,-0.3906,-0.3906,-0.3907,-0.3913,-0.3921,-0.3947,-0.395,-0.3933,-0.394,-0.3943,-0.395,-0.395,-0.3946,-0.3943,-0.3948,-0.3826,-0.3703,-0.3826,-0.395,-0.3703,-0.3331,-0.3703,-0.3935,-0.4045,-0.4025,-0.3982,-0.3951,-0.1433,-0.1436,-0.1451,-0.1466,-0.1393,-0.0867,-0.1776,-0.3293,-0.4323,-0.4847,-0.4855,-0.5248,-0.5527,-0.5602,-0.5618,-0.5606,-0.5649,-0.5699,-0.5491,-0.4702,-0.5268,-0.5154,-0.5382,-0.5382,-0.4704,-0.4369,-0.448,-0.459,-0.358,-0.291,-0.2462,-0.2126,-0.2686,-0.291,-0.3357,-0.3805,-0.4254,-0.4702,-0.5148,-0.5258,-0.5146,-0.4814,-0.4592,-0.4257,-0.381,-0.3586,-0.3475,-0.3475,-0.3587,-0.3587,-0.3587,-0.3362,-0.3138,-0.2801,-0.2466,-0.2466,-0.2802,-0.2913,-0.3025,-0.3475,-0.3475,-0.3604,-0.3644,-0.3669,-0.3696,-0.3737,-0.3826,-0.3899,-0.3901,-0.3907,-0.3931,-0.395,-0.3948,-0.395,-0.395,-0.395,-0.395,-0.395,-0.395,-0.395,-0.395,-0.395,-0.395,-0.395,-0.395,-0.395,-0.395,-0.3943,-0.3933,-0.3933,-0.3933,-0.3935,-0.394,-0.395,-0.395,-0.395,-0.395,-0.395,-0.395,-0.395,-0.395,-0.3826,-0.3826,-0.3702,-0.3579,-0.3455,-0.3208,-0.2714,-0.2466,-0.2837,-0.296,-0.2706,-0.27,-0.3058,-0.292,0.0718,0.072,0.0808,0.0636,0.0743,0.0769,0.0978,0.1278,-0.1097,-0.2112,-0.2222,-0.3072,-0.3407,-0.3239,-0.3211,-0.337,-0.3408,-0.3557,-0.3246,-0.1789,-0.2125,-0.235,-0.2349,-0.2348,-0.2126,-0.2237,-0.2237,-0.2126,-0.2125,-0.1454,-0.0896,-0.0673,-0.0897,-0.1233,-0.1791,-0.224,-0.2687,-0.3248,-0.3918,-0.4477,-0.4814,-0.4592,-0.4257,-0.4145,-0.3586,-0.325,-0.325,-0.3362,-0.3362,-0.3363,-0.325,-0.2801,-0.2129,-0.1569,-0.1234,-0.1233,-0.1793,-0.2017,-0.2241,-0.2577,-0.2922,-0.3165,-0.3422,-0.3129,-0.3049,-0.3672,-0.3869,-0.3924,-0.3928,-0.3928,-0.3944,-0.395,-0.395,-0.395,-0.395,-0.395,-0.395,-0.395,-0.395,-0.395,-0.395,-0.395,-0.395,-0.395,-0.395,-0.395,-0.395,-0.395,-0.3826,-0.3826,-0.3703,-0.3826,-0.3826,-0.3826,-0.395,-0.395,-0.395,-0.395,-0.3703,-0.3826,-0.3826,-0.3826,-0.3702,-0.3208,-0.259,-0.2466,-0.222,-0.1849,-0.1602,-0.1602,-0.1602,-0.1233,-0.1355,-0.1723,-0.1967,0.1267,0.1192,0.1264,0.1271,0.1202,0.1309,0.1435,0.157,0.0986,0.0498,0.0504,0.0304,-0.0102,-0.0623,-0.0636,-0.0861,-0.1529,-0.1216,-0.0894,-0.056,-0.0224,0.0,0.056,0.0112,0.0448,0.0784,0.0672,0.0336,0.0336,0.056,0.0896,0.0897,0.0561,-0.0112,-0.0448,-0.0896,-0.1457,-0.1905,-0.2241,-0.3136,-0.3698,-0.3248,-0.2687,-0.2576,-0.2129,-0.1793,-0.1793,-0.1681,-0.1569,-0.1569,-0.157,-0.1346,-0.1234,-0.1009,-0.0897,-0.0897,-0.1009,-0.1121,-0.1345,-0.1571,-0.1803,-0.1714,-0.1736,-0.1644,-0.2021,-0.324,-0.3759,-0.3803,-0.3826,-0.3703,-0.3703,-0.3703,-0.3703,-0.3703,-0.3703,-0.3703,-0.3826,-0.3826,-0.3826,-0.395,-0.395,-0.3826,-0.3826,-0.3826,-0.395,-0.395,-0.395,-0.3826,-0.3702,-0.3579,-0.3331,-0.3455,-0.3826,-0.3826,-0.3703,-0.3455,-0.3208,-0.3208,-0.3083,-0.3331,-0.3702,-0.3208,-0.2714,-0.1973,-0.1479,-0.1356,-0.1356,-0.1233,-0.0986,-0.0616,-0.0493,-0.0247,0.0,-0.0246,-0.0616,0.1453,0.1476,0.1448,0.1444,0.1461,0.1474,0.1508,0.1548,0.1566,0.1588,0.1614,0.1516,0.1423,0.1132,0.1151,0.0959,0.0216,0.088,0.0667,0.0783,0.0897,0.1458,0.1795,0.1795,0.157,0.1795,0.1795,0.1682,0.1795,0.1795,0.1683,0.1683,0.1121,0.0785,0.0448,-0.0112,-0.0561,-0.0897,-0.0785,-0.1457,-0.2354,-0.1905,-0.1569,-0.1345,-0.1233,-0.0785,-0.0897,-0.0897,-0.0897,-0.0673,-0.0673,-0.0448,-0.0224,0.0224,0.0336,0.0224,0.0,-0.0336,-0.0448,-0.0562,-0.0679,-0.069,-0.0816,-0.1061,-0.1195,-0.2171,-0.2318,-0.2219,-0.222,-0.222,-0.222,-0.222,-0.222,-0.222,-0.2343,-0.2466,-0.2837,-0.3085,-0.3455,-0.395,-0.3826,-0.3579,-0.3455,-0.3085,-0.296,-0.2343,-0.259,-0.2714,-0.2714,-0.296,-0.2837,-0.2837,-0.296,-0.2837,-0.2343,-0.222,-0.222,-0.222,-0.222,-0.2097,-0.222,-0.1973,-0.1602,-0.0986,-0.0616,-0.037,-0.0246,-0.0247,0.0247,0.074,0.074,0.0617,0.0863,0.111,0.074,0.1457,0.1475,0.1453,0.1442,0.1444,0.1469,0.1499,0.1529,0.1558,0.1585,0.1607,0.1614,0.1616,0.1627,0.1649,0.1679,0.171,0.1526,0.1547,0.1564,0.1682,0.1795,0.1795,0.1795,0.1795,0.1795,0.1795,0.1795,0.1795,0.1795,0.1795,0.1795,0.1683,0.1346,0.0785,0.0561,0.0336,-0.0,-0.0224,-0.0336,-0.0561,-0.0673,-0.0673,-0.0785,-0.0673,-0.0561,-0.0561,-0.0561,-0.0448,-0.0224,0.0224,0.0448,0.0673,0.1121,0.1346,0.1234,0.0897,0.0673,0.0448,0.0112,-0.0114,-0.0346,-0.0584,-0.0592,-0.06,-0.0607,-0.0614,-0.0739,-0.074,-0.0986,-0.1109,-0.1109,-0.1109,-0.1109,-0.1233,-0.1356,-0.1849,-0.2343,-0.2837,-0.3455,-0.3331,-0.296,-0.2714,-0.2343,-0.1973,-0.1233,-0.0986,-0.0986,-0.1109,-0.1602,-0.1726,-0.1479,-0.1479,-0.1233,-0.1109,-0.1233,-0.1356,-0.1356,-0.1356,-0.0986,-0.074,-0.074,-0.0617,-0.0247,0.0123,0.0493,0.0863,0.0987,0.1482,0.1729,0.1605,0.1358,0.1482,0.1605,0.1853,0.1475,0.148,0.1474,0.1472,0.1564,0.1572,0.1498,0.1528,0.1656,0.1576,0.1687,0.1608,0.1617,0.1619,0.1649,0.1676,0.17,0.1731,0.1765,0.1791,0.1793,0.1794,0.1795,0.1795,0.1795,0.1795,0.1795,0.1795,0.1795,0.1795,0.1795,0.1795,0.1795,0.1683,0.1683,0.1458,0.1234,0.0897,0.1009,0.1009,0.0785,0.0673,0.0224,0.0448,0.0897,0.1121,0.1346,0.1234,0.1346,0.1346,0.1346,0.1346,0.1458,0.157,0.1795,0.1795,0.1458,0.1346,0.1121,0.1009,0.0794,0.0932,0.0944,0.1074,0.1088,0.1103,0.0987,0.074,0.0493,-0.0493,-0.0617,-0.0617,-0.0617,-0.0617,-0.074,-0.0863,-0.1109,-0.1356,-0.1602,-0.1849,-0.1849,-0.1602,-0.1479,-0.1233,-0.1233,-0.0617,-0.0493,-0.0493,-0.0493,-0.0493,-0.0616,-0.037,-0.0123,-0.0616,-0.0863,-0.0616,-0.074,-0.0616,-0.037,0.0123,0.0493,0.0493,0.0617,0.074,0.1111,0.1482,0.1853,0.1729,0.1853,0.1853,0.1977,0.1853,0.1977,0.1977,0.1977]}]]